<?xml version='1.0' encoding='UTF-8'?><gpx version="1.1" creator="JPX - https://github.com/jenetics/jpx" xmlns="http://www.topografix.com/GPX/1/1"><trk><trkseg><trkpt lat="53.35671166216856" lon="14.611004187019526"><ele>87.0</ele><time>2026-03-28T09:41:14.789Z</time></trkpt><trkpt lat="53.356688014923506" lon="14.611124912855441"><ele>87.0</ele><time>2026-03-28T09:42:01.998Z</time></trkpt><trkpt lat="53.35665928051616" lon="14.611258444475734"><ele>87.0</ele><time>2026-03-28T09:42:04.998Z</time></trkpt><trkpt lat="53.35665865053441" lon="14.61137316717461"><ele>87.0</ele><time>2026-03-28T09:42:06.998Z</time></trkpt><trkpt lat="53.3566635326832" lon="14.611542303909266"><ele>87.0</ele><time>2026-03-28T09:42:08.999Z</time></trkpt><trkpt lat="53.356669164490306" lon="14.611716137287283"><ele>87.0</ele><time>2026-03-28T09:42:10.999Z</time></trkpt><trkpt lat="53.35662791673934" lon="14.611841757770524"><ele>87.39999999999999</ele><time>2026-03-28T09:42:12.999Z</time></trkpt><trkpt lat="53.356584937691856" lon="14.611964619655675"><ele>87.8</ele><time>2026-03-28T09:42:14.999Z</time></trkpt><trkpt lat="53.35652994470998" lon="14.612098637885273"><ele>88.2</ele><time>2026-03-28T09:42:16.999Z</time></trkpt><trkpt lat="53.356481279307296" lon="14.612252162400344"><ele>88.6</ele><time>2026-03-28T09:42:18.999Z</time></trkpt><trkpt lat="53.35644615317313" lon="14.612430716098741"><ele>89.0</ele><time>2026-03-28T09:42:21Z</time></trkpt><trkpt lat="53.356428827371445" lon="14.612611754149336"><ele>89.66666666666667</ele><time>2026-03-28T09:42:23Z</time></trkpt><trkpt lat="53.35643308488893" lon="14.612766939407718"><ele>90.33333333333334</ele><time>2026-03-28T09:42:25Z</time></trkpt><trkpt lat="53.35645640022195" lon="14.612904835724914"><ele>91.0</ele><time>2026-03-28T09:42:27Z</time></trkpt><trkpt lat="53.356517934588055" lon="14.613025142666581"><ele>91.66666666666667</ele><time>2026-03-28T09:42:30Z</time></trkpt><trkpt lat="53.356557461740536" lon="14.613109079504966"><ele>92.33333333333333</ele><time>2026-03-28T09:42:32Z</time></trkpt><trkpt lat="53.3566033363982" lon="14.613216547710378"><ele>93.0</ele><time>2026-03-28T09:42:34Z</time></trkpt><trkpt lat="53.35664619426182" lon="14.613303785280001"><ele>93.5</ele><time>2026-03-28T09:42:36Z</time></trkpt><trkpt lat="53.35666113527213" lon="14.613419495699857"><ele>94.0</ele><time>2026-03-28T09:42:38.001Z</time></trkpt><trkpt lat="53.35669319223891" lon="14.613576764362277"><ele>94.5</ele><time>2026-03-28T09:42:40.001Z</time></trkpt><trkpt lat="53.35669614243304" lon="14.613715833182546"><ele>95.0</ele><time>2026-03-28T09:42:42.001Z</time></trkpt><trkpt lat="53.356705544582134" lon="14.613842602625553"><ele>95.5</ele><time>2026-03-28T09:42:44.001Z</time></trkpt><trkpt lat="53.35670762169241" lon="14.613979575571028"><ele>96.0</ele><time>2026-03-28T09:42:46.001Z</time></trkpt><trkpt lat="53.35673439219555" lon="14.614123163167063"><ele>96.6</ele><time>2026-03-28T09:42:48.001Z</time></trkpt><trkpt lat="53.35676278678211" lon="14.614289343093747"><ele>97.19999999999999</ele><time>2026-03-28T09:42:50.001Z</time></trkpt><trkpt lat="53.35678945683157" lon="14.614487874319165"><ele>97.80000000000001</ele><time>2026-03-28T09:42:52.001Z</time></trkpt><trkpt lat="53.35680264207902" lon="14.61464850964884"><ele>98.4</ele><time>2026-03-28T09:42:54.001Z</time></trkpt><trkpt lat="53.356826734931815" lon="14.614827080871141"><ele>99.0</ele><time>2026-03-28T09:42:56.001Z</time></trkpt><trkpt lat="53.35683580011752" lon="14.614991051807836"><ele>99.80000000000001</ele><time>2026-03-28T09:42:58.001Z</time></trkpt><trkpt lat="53.356832872361316" lon="14.615134301859863"><ele>100.60000000000001</ele><time>2026-03-28T09:43:00.001Z</time></trkpt><trkpt lat="53.35681739123885" lon="14.615288744401635"><ele>101.4</ele><time>2026-03-28T09:43:02.001Z</time></trkpt><trkpt lat="53.35680693958362" lon="14.615464702928016"><ele>102.2</ele><time>2026-03-28T09:43:04.001Z</time></trkpt><trkpt lat="53.356851956971816" lon="14.615692368964181"><ele>103.0</ele><time>2026-03-28T09:43:06.001Z</time></trkpt><trkpt lat="53.356850637545975" lon="14.615814061843018"><ele>104.0</ele><time>2026-03-28T09:43:08.002Z</time></trkpt><trkpt lat="53.35692974803603" lon="14.615864249179893"><ele>105.0</ele><time>2026-03-28T09:43:29.002Z</time></trkpt><trkpt lat="53.357019861896795" lon="14.61589072652197"><ele>106.00000000000001</ele><time>2026-03-28T09:43:31.002Z</time></trkpt><trkpt lat="53.357086583512036" lon="14.615993854594477"><ele>107.0</ele><time>2026-03-28T09:43:33.002Z</time></trkpt><trkpt lat="53.357105767304404" lon="14.616154423560534"><ele>108.0</ele><time>2026-03-28T09:43:35.002Z</time></trkpt><trkpt lat="53.35707871240461" lon="14.616334017219389"><ele>108.5</ele><time>2026-03-28T09:43:37.002Z</time></trkpt><trkpt lat="53.357032195072954" lon="14.616478950236049"><ele>109.0</ele><time>2026-03-28T09:43:39.003Z</time></trkpt><trkpt lat="53.35700725540729" lon="14.616599478575862"><ele>109.5</ele><time>2026-03-28T09:43:41.003Z</time></trkpt><trkpt lat="53.35699186390013" lon="14.616741798855335"><ele>110.0</ele><time>2026-03-28T09:43:43.003Z</time></trkpt><trkpt lat="53.357009387433216" lon="14.616861600865578"><ele>110.5</ele><time>2026-03-28T09:43:44.003Z</time></trkpt><trkpt lat="53.35703835902574" lon="14.617011908741096"><ele>111.0</ele><time>2026-03-28T09:43:46.003Z</time></trkpt><trkpt lat="53.357040759927976" lon="14.617172318028924"><ele>111.33333333333333</ele><time>2026-03-28T09:43:48.003Z</time></trkpt><trkpt lat="53.357041559552535" lon="14.617306346190626"><ele>111.66666666666666</ele><time>2026-03-28T09:43:50.003Z</time></trkpt><trkpt lat="53.35707261944667" lon="14.617408575087047"><ele>112.0</ele><time>2026-03-28T09:43:52.003Z</time></trkpt><trkpt lat="53.35717447011033" lon="14.617486133368814"><ele>112.33333333333333</ele><time>2026-03-28T09:43:54.003Z</time></trkpt><trkpt lat="53.35724632818069" lon="14.617462678314343"><ele>112.66666666666666</ele><time>2026-03-28T09:43:56.003Z</time></trkpt><trkpt lat="53.357282519351976" lon="14.617561845231196"><ele>113.0</ele><time>2026-03-28T09:44:01.002Z</time></trkpt><trkpt lat="53.35720991073014" lon="14.61772349559019"><ele>112.99999999999999</ele><time>2026-03-28T09:44:03.002Z</time></trkpt><trkpt lat="53.35715208188269" lon="14.61790154708446"><ele>113.0</ele><time>2026-03-28T09:44:05.001Z</time></trkpt><trkpt lat="53.357119139214305" lon="14.617999825711633"><ele>113.0</ele><time>2026-03-28T09:44:06.001Z</time></trkpt><trkpt lat="53.3570788177174" lon="14.618122913632815"><ele>113.0</ele><time>2026-03-28T09:44:07.001Z</time></trkpt><trkpt lat="53.35704682507859" lon="14.618262326725915"><ele>112.99999999999999</ele><time>2026-03-28T09:44:08.001Z</time></trkpt><trkpt lat="53.35701628251426" lon="14.618387972783966"><ele>113.0</ele><time>2026-03-28T09:44:09.001Z</time></trkpt><trkpt lat="53.35700699564514" lon="14.618508353896697"><ele>113.0</ele><time>2026-03-28T09:44:10.001Z</time></trkpt><trkpt lat="53.35699051503873" lon="14.618635799995129"><ele>113.0</ele><time>2026-03-28T09:44:11.001Z</time></trkpt><trkpt lat="53.35697337375287" lon="14.618766020404511"><ele>113.0</ele><time>2026-03-28T09:44:12.001Z</time></trkpt><trkpt lat="53.35696589242311" lon="14.618872708084051"><ele>113.0</ele><time>2026-03-28T09:44:13.001Z</time></trkpt><trkpt lat="53.35694289115996" lon="14.618980563763804"><ele>113.0</ele><time>2026-03-28T09:44:14.001Z</time></trkpt><trkpt lat="53.35691302663995" lon="14.61907591655215"><ele>113.0</ele><time>2026-03-28T09:44:15.001Z</time></trkpt><trkpt lat="53.35688315223518" lon="14.619174811618018"><ele>113.0</ele><time>2026-03-28T09:44:16Z</time></trkpt><trkpt lat="53.35685803417998" lon="14.619346129633325"><ele>113.16666666666666</ele><time>2026-03-28T09:44:18Z</time></trkpt><trkpt lat="53.35691624503003" lon="14.619477524512206"><ele>113.33333333333333</ele><time>2026-03-28T09:44:20Z</time></trkpt><trkpt lat="53.35696446389415" lon="14.61956318709101"><ele>113.5</ele><time>2026-03-28T09:44:21Z</time></trkpt><trkpt lat="53.35697551720356" lon="14.619685206009187"><ele>113.66666666666666</ele><time>2026-03-28T09:44:23Z</time></trkpt><trkpt lat="53.35694392930252" lon="14.619793865358456"><ele>113.83333333333333</ele><time>2026-03-28T09:44:25Z</time></trkpt><trkpt lat="53.35687549332169" lon="14.619825313711749"><ele>114.0</ele><time>2026-03-28T09:44:28Z</time></trkpt><trkpt lat="53.356807279040375" lon="14.619764550631963"><ele>114.16666666666667</ele><time>2026-03-28T09:44:30Z</time></trkpt><trkpt lat="53.356745055121216" lon="14.619703438433751"><ele>114.33333333333334</ele><time>2026-03-28T09:44:32Z</time></trkpt><trkpt lat="53.35667168900615" lon="14.619676680382321"><ele>114.5</ele><time>2026-03-28T09:44:35Z</time></trkpt><trkpt lat="53.356582226194874" lon="14.619568413722586"><ele>114.66666666666667</ele><time>2026-03-28T09:44:38Z</time></trkpt><trkpt lat="53.35650180119189" lon="14.619568560185416"><ele>114.83333333333334</ele><time>2026-03-28T09:44:41Z</time></trkpt><trkpt lat="53.356425665271786" lon="14.619640714859006"><ele>115.0</ele><time>2026-03-28T09:44:47Z</time></trkpt><trkpt lat="53.35639414602596" lon="14.61975435576148"><ele>115.33333333333334</ele><time>2026-03-28T09:44:49Z</time></trkpt><trkpt lat="53.356363071927575" lon="14.619913567624815"><ele>115.66666666666667</ele><time>2026-03-28T09:44:51Z</time></trkpt><trkpt lat="53.35628785251309" lon="14.620024184088374"><ele>116.0</ele><time>2026-03-28T09:44:53Z</time></trkpt><trkpt lat="53.356215603450266" lon="14.620045645298697"><ele>116.33333333333334</ele><time>2026-03-28T09:44:54Z</time></trkpt><trkpt lat="53.356120543122664" lon="14.62004183853338"><ele>116.66666666666667</ele><time>2026-03-28T09:44:56Z</time></trkpt><trkpt lat="53.35607028281037" lon="14.619977932592013"><ele>117.0</ele><time>2026-03-28T09:44:57Z</time></trkpt><trkpt lat="53.355968987852705" lon="14.6199401111078"><ele>117.0</ele><time>2026-03-28T09:44:59Z</time></trkpt><trkpt lat="53.3558760208094" lon="14.619925128440482"><ele>117.0</ele><time>2026-03-28T09:45:01Z</time></trkpt><trkpt lat="53.35579379741031" lon="14.619922018059622"><ele>117.0</ele><time>2026-03-28T09:45:02Z</time></trkpt><trkpt lat="53.355709757916195" lon="14.619921106310523"><ele>117.0</ele><time>2026-03-28T09:45:03Z</time></trkpt><trkpt lat="53.35564532057993" lon="14.619907314734496"><ele>117.0</ele><time>2026-03-28T09:45:04Z</time></trkpt><trkpt lat="53.355546722025316" lon="14.619885693069804"><ele>117.0</ele><time>2026-03-28T09:45:06Z</time></trkpt><trkpt lat="53.355486857730256" lon="14.619844116893434"><ele>116.66666666666667</ele><time>2026-03-28T09:45:07Z</time></trkpt><trkpt lat="53.35541775937468" lon="14.619794403318576"><ele>116.33333333333334</ele><time>2026-03-28T09:45:08Z</time></trkpt><trkpt lat="53.35533944099662" lon="14.619795813630393"><ele>116.0</ele><time>2026-03-28T09:45:10Z</time></trkpt><trkpt lat="53.355247692703266" lon="14.61975474540773"><ele>115.66666666666667</ele><time>2026-03-28T09:45:12Z</time></trkpt><trkpt lat="53.355175991849535" lon="14.61973433532217"><ele>115.33333333333334</ele><time>2026-03-28T09:45:13Z</time></trkpt><trkpt lat="53.35505770884148" lon="14.619703596208709"><ele>115.0</ele><time>2026-03-28T09:45:15Z</time></trkpt><trkpt lat="53.354944638810075" lon="14.61969393389181"><ele>115.00000000000001</ele><time>2026-03-28T09:45:17Z</time></trkpt><trkpt lat="53.354853204897054" lon="14.619693845001636"><ele>115.0</ele><time>2026-03-28T09:45:19.001Z</time></trkpt><trkpt lat="53.35478401140218" lon="14.61966154554856"><ele>115.0</ele><time>2026-03-28T09:45:21.001Z</time></trkpt><trkpt lat="53.35472835708941" lon="14.619724353408978"><ele>115.0</ele><time>2026-03-28T09:45:23.001Z</time></trkpt><trkpt lat="53.354653942064736" lon="14.619739221184785"><ele>115.00000000000001</ele><time>2026-03-28T09:45:25.001Z</time></trkpt><trkpt lat="53.35460914562048" lon="14.619880452523999"><ele>115.0</ele><time>2026-03-28T09:45:27.001Z</time></trkpt><trkpt lat="53.35455743688096" lon="14.619968047245093"><ele>116.50000000000001</ele><time>2026-03-28T09:45:29.001Z</time></trkpt><trkpt lat="53.354460485342614" lon="14.620028294370526"><ele>118.0</ele><time>2026-03-28T09:45:31.001Z</time></trkpt><trkpt lat="53.35436973670482" lon="14.620061472667324"><ele>119.5</ele><time>2026-03-28T09:45:33.001Z</time></trkpt><trkpt lat="53.35428549728131" lon="14.620093000581157"><ele>121.0</ele><time>2026-03-28T09:45:35.001Z</time></trkpt><trkpt lat="53.35421287288955" lon="14.62016449957266"><ele>122.50000000000001</ele><time>2026-03-28T09:45:38.001Z</time></trkpt><trkpt lat="53.35415077140079" lon="14.620182816884544"><ele>124.0</ele><time>2026-03-28T09:45:50.001Z</time></trkpt><trkpt lat="53.35413784566779" lon="14.620287878681307"><ele>124.0</ele><time>2026-03-28T09:45:54.001Z</time></trkpt><trkpt lat="53.35405612343587" lon="14.620379269891398"><ele>124.00000000000001</ele><time>2026-03-28T09:46:04.001Z</time></trkpt><trkpt lat="53.35401799831088" lon="14.620278358330793"><ele>124.0</ele><time>2026-03-28T09:46:09Z</time></trkpt><trkpt lat="53.35398429341263" lon="14.620179328987444"><ele>124.0</ele><time>2026-03-28T09:46:11Z</time></trkpt><trkpt lat="53.353938843412315" lon="14.620093761319508"><ele>124.00000000000001</ele><time>2026-03-28T09:46:13.999Z</time></trkpt><trkpt lat="53.35387100936354" lon="14.620077013271926"><ele>124.0</ele><time>2026-03-28T09:46:39Z</time></trkpt><trkpt lat="53.35393153323629" lon="14.620125411846512"><ele>124.0</ele><time>2026-03-28T09:46:51Z</time></trkpt><trkpt lat="53.353976978979624" lon="14.620202651375797"><ele>124.0</ele><time>2026-03-28T09:46:57Z</time></trkpt><trkpt lat="53.35393323840145" lon="14.620125175787074"><ele>124.00000000000001</ele><time>2026-03-28T09:47:18Z</time></trkpt><trkpt lat="53.353886792844776" lon="14.62004544483475"><ele>124.0</ele><time>2026-03-28T09:47:28.001Z</time></trkpt><trkpt lat="53.35382704130188" lon="14.620011538097232"><ele>124.0</ele><time>2026-03-28T09:47:47.001Z</time></trkpt><trkpt lat="53.353764359844945" lon="14.619992198049763"><ele>124.00000000000001</ele><time>2026-03-28T09:48:10.001Z</time></trkpt><trkpt lat="53.35369819102305" lon="14.619971598916035"><ele>124.0</ele><time>2026-03-28T09:48:13.999Z</time></trkpt><trkpt lat="53.353635084637105" lon="14.619952633572266"><ele>124.0</ele><time>2026-03-28T09:48:18Z</time></trkpt><trkpt lat="53.35356816149941" lon="14.619894969479109"><ele>125.66666666666667</ele><time>2026-03-28T09:48:26Z</time></trkpt><trkpt lat="53.353505279624564" lon="14.619927164179712"><ele>127.33333333333334</ele><time>2026-03-28T09:48:31Z</time></trkpt><trkpt lat="53.35345228972109" lon="14.620008249637134"><ele>129.0</ele><time>2026-03-28T09:48:36Z</time></trkpt><trkpt lat="53.353395459949134" lon="14.620055004314269"><ele>130.66666666666666</ele><time>2026-03-28T09:50:01.001Z</time></trkpt><trkpt lat="53.35333670861689" lon="14.620177128281945"><ele>132.33333333333331</ele><time>2026-03-28T09:50:05.001Z</time></trkpt><trkpt lat="53.35329167652046" lon="14.62029525130582"><ele>134.0</ele><time>2026-03-28T09:50:07.001Z</time></trkpt><trkpt lat="53.353239646425024" lon="14.620424683460522"><ele>134.4</ele><time>2026-03-28T09:50:09.001Z</time></trkpt><trkpt lat="53.353163063663935" lon="14.620493548373084"><ele>134.8</ele><time>2026-03-28T09:50:12.001Z</time></trkpt><trkpt lat="53.3531075156859" lon="14.62055934741564"><ele>135.2</ele><time>2026-03-28T09:50:13.001Z</time></trkpt><trkpt lat="53.35301814582076" lon="14.620665057431273"><ele>135.6</ele><time>2026-03-28T09:50:15.001Z</time></trkpt><trkpt lat="53.352953786551474" lon="14.620767104688564"><ele>136.0</ele><time>2026-03-28T09:50:17.001Z</time></trkpt><trkpt lat="53.352871512161954" lon="14.620868526577745"><ele>135.16666666666669</ele><time>2026-03-28T09:50:19Z</time></trkpt><trkpt lat="53.35280197962487" lon="14.6208891929561"><ele>134.33333333333334</ele><time>2026-03-28T09:50:21Z</time></trkpt><trkpt lat="53.3526851450707" lon="14.620936864056718"><ele>133.5</ele><time>2026-03-28T09:50:23Z</time></trkpt><trkpt lat="53.35262746476406" lon="14.621053458589913"><ele>132.66666666666666</ele><time>2026-03-28T09:50:25Z</time></trkpt><trkpt lat="53.35255489966274" lon="14.621058680211204"><ele>131.83333333333331</ele><time>2026-03-28T09:50:27Z</time></trkpt><trkpt lat="53.35247729125173" lon="14.621089433161533"><ele>131.0</ele><time>2026-03-28T09:50:29Z</time></trkpt><trkpt lat="53.35241597149007" lon="14.621114861285385"><ele>131.0</ele><time>2026-03-28T09:50:31Z</time></trkpt><trkpt lat="53.35233746503118" lon="14.62112433496896"><ele>131.0</ele><time>2026-03-28T09:50:33Z</time></trkpt><trkpt lat="53.35227026937094" lon="14.621140950786566"><ele>131.0</ele><time>2026-03-28T09:50:35Z</time></trkpt><trkpt lat="53.35218045910423" lon="14.621193352719498"><ele>131.0</ele><time>2026-03-28T09:50:37Z</time></trkpt><trkpt lat="53.35211166995553" lon="14.621233873510763"><ele>131.0</ele><time>2026-03-28T09:50:39Z</time></trkpt><trkpt lat="53.35201506473239" lon="14.621287733844296"><ele>131.0</ele><time>2026-03-28T09:50:41Z</time></trkpt><trkpt lat="53.35192735611889" lon="14.621353597194455"><ele>130.33333333333331</ele><time>2026-03-28T09:50:43Z</time></trkpt><trkpt lat="53.35185964178183" lon="14.621411554446386"><ele>129.66666666666666</ele><time>2026-03-28T09:50:45Z</time></trkpt><trkpt lat="53.35178877259066" lon="14.621439496595883"><ele>129.0</ele><time>2026-03-28T09:50:47Z</time></trkpt><trkpt lat="53.35169576022187" lon="14.621516046757286"><ele>128.33333333333334</ele><time>2026-03-28T09:50:49Z</time></trkpt><trkpt lat="53.35164360794157" lon="14.621595041260731"><ele>127.66666666666667</ele><time>2026-03-28T09:50:50Z</time></trkpt><trkpt lat="53.351561405632125" lon="14.621669295302397"><ele>127.0</ele><time>2026-03-28T09:50:51Z</time></trkpt><trkpt lat="53.35148161596305" lon="14.62174013402896"><ele>127.00000000000001</ele><time>2026-03-28T09:50:52Z</time></trkpt><trkpt lat="53.35139444215526" lon="14.621846936295015"><ele>127.0</ele><time>2026-03-28T09:50:54Z</time></trkpt><trkpt lat="53.35133648617567" lon="14.621895656297392"><ele>127.0</ele><time>2026-03-28T09:50:56Z</time></trkpt><trkpt lat="53.35125021582112" lon="14.621967613414919"><ele>127.0</ele><time>2026-03-28T09:50:58Z</time></trkpt><trkpt lat="53.351178698907155" lon="14.622058922361992"><ele>127.00000000000001</ele><time>2026-03-28T09:51:02Z</time></trkpt><trkpt lat="53.35111872440825" lon="14.622134101292156"><ele>127.0</ele><time>2026-03-28T09:51:04Z</time></trkpt><trkpt lat="53.35103944237414" lon="14.622159269150611"><ele>126.50000000000001</ele><time>2026-03-28T09:51:06Z</time></trkpt><trkpt lat="53.35094798006817" lon="14.622200538531589"><ele>126.0</ele><time>2026-03-28T09:51:08Z</time></trkpt><trkpt lat="53.35086917750795" lon="14.622244535595675"><ele>125.5</ele><time>2026-03-28T09:51:09Z</time></trkpt><trkpt lat="53.35080334975612" lon="14.622285447837848"><ele>125.0</ele><time>2026-03-28T09:51:11Z</time></trkpt><trkpt lat="53.35073978925435" lon="14.622377475409143"><ele>124.50000000000001</ele><time>2026-03-28T09:51:13Z</time></trkpt><trkpt lat="53.350670729451686" lon="14.622445946016363"><ele>124.0</ele><time>2026-03-28T09:51:16Z</time></trkpt><trkpt lat="53.35060591133796" lon="14.622509388341275"><ele>124.0</ele><time>2026-03-28T09:51:18Z</time></trkpt><trkpt lat="53.350545874716936" lon="14.62259552836029"><ele>124.0</ele><time>2026-03-28T09:51:20Z</time></trkpt><trkpt lat="53.35047343535363" lon="14.62267397934635"><ele>124.0</ele><time>2026-03-28T09:51:22Z</time></trkpt><trkpt lat="53.350399200840776" lon="14.622778794877695"><ele>124.0</ele><time>2026-03-28T09:51:24Z</time></trkpt><trkpt lat="53.35032214629497" lon="14.622908390059916"><ele>124.0</ele><time>2026-03-28T09:51:26Z</time></trkpt><trkpt lat="53.35025250109594" lon="14.623029846274568"><ele>124.0</ele><time>2026-03-28T09:51:28Z</time></trkpt><trkpt lat="53.35019757099897" lon="14.623166156724679"><ele>124.0</ele><time>2026-03-28T09:51:30Z</time></trkpt><trkpt lat="53.35013210723655" lon="14.623310073675473"><ele>124.0</ele><time>2026-03-28T09:51:32Z</time></trkpt><trkpt lat="53.35007875746003" lon="14.623433918288667"><ele>124.0</ele><time>2026-03-28T09:51:34Z</time></trkpt><trkpt lat="53.34999212466648" lon="14.623617631592651"><ele>124.0</ele><time>2026-03-28T09:51:36Z</time></trkpt><trkpt lat="53.34991914805027" lon="14.623736226334488"><ele>123.80000000000001</ele><time>2026-03-28T09:51:38Z</time></trkpt><trkpt lat="53.349863808567825" lon="14.623881175196262"><ele>123.60000000000001</ele><time>2026-03-28T09:51:40Z</time></trkpt><trkpt lat="53.34981592062876" lon="14.624021541551066"><ele>123.4</ele><time>2026-03-28T09:51:41Z</time></trkpt><trkpt lat="53.3497570531786" lon="14.62414898605948"><ele>123.2</ele><time>2026-03-28T09:51:42Z</time></trkpt><trkpt lat="53.34970133315048" lon="14.624285234741684"><ele>123.0</ele><time>2026-03-28T09:51:43Z</time></trkpt><trkpt lat="53.34965511860149" lon="14.624410143096982"><ele>122.60000000000001</ele><time>2026-03-28T09:51:44Z</time></trkpt><trkpt lat="53.349604497967974" lon="14.624513672044444"><ele>122.20000000000002</ele><time>2026-03-28T09:51:45Z</time></trkpt><trkpt lat="53.34950693439109" lon="14.624674537620502"><ele>121.8</ele><time>2026-03-28T09:51:47Z</time></trkpt><trkpt lat="53.349434149938304" lon="14.62478243016545"><ele>121.4</ele><time>2026-03-28T09:51:48Z</time></trkpt><trkpt lat="53.349372328913596" lon="14.62487585563512"><ele>121.0</ele><time>2026-03-28T09:51:49Z</time></trkpt><trkpt lat="53.349306765121455" lon="14.624967188932493"><ele>121.0</ele><time>2026-03-28T09:51:50Z</time></trkpt><trkpt lat="53.34924077289951" lon="14.625040453907475"><ele>121.0</ele><time>2026-03-28T09:51:51Z</time></trkpt><trkpt lat="53.34914629197797" lon="14.625167122078288"><ele>121.0</ele><time>2026-03-28T09:51:53Z</time></trkpt><trkpt lat="53.34906872121762" lon="14.625279339111957"><ele>121.0</ele><time>2026-03-28T09:51:55Z</time></trkpt><trkpt lat="53.34900244531449" lon="14.62536095343631"><ele>121.0</ele><time>2026-03-28T09:51:56Z</time></trkpt><trkpt lat="53.348935429208105" lon="14.625449071166972"><ele>121.0</ele><time>2026-03-28T09:51:57Z</time></trkpt><trkpt lat="53.34888204723589" lon="14.625519774851345"><ele>120.99999999999999</ele><time>2026-03-28T09:51:58Z</time></trkpt><trkpt lat="53.348824740791926" lon="14.625578017545582"><ele>121.0</ele><time>2026-03-28T09:51:59Z</time></trkpt><trkpt lat="53.34876655602044" lon="14.625631749111568"><ele>121.0</ele><time>2026-03-28T09:52:00Z</time></trkpt><trkpt lat="53.3487158433247" lon="14.625702706713932"><ele>120.99999999999999</ele><time>2026-03-28T09:52:02Z</time></trkpt><trkpt lat="53.34871305058293" lon="14.625861298858148"><ele>121.0</ele><time>2026-03-28T09:52:04Z</time></trkpt><trkpt lat="53.34865240387079" lon="14.625894893347924"><ele>121.0</ele><time>2026-03-28T09:52:12.001Z</time></trkpt><trkpt lat="53.34857101659708" lon="14.62593536988639"><ele>120.75</ele><time>2026-03-28T09:52:18.001Z</time></trkpt><trkpt lat="53.348492700379175" lon="14.62597921954043"><ele>120.5</ele><time>2026-03-28T09:52:20.001Z</time></trkpt><trkpt lat="53.348415384475345" lon="14.626123441023555"><ele>120.25</ele><time>2026-03-28T09:52:22.001Z</time></trkpt><trkpt lat="53.34835240451762" lon="14.626312029799294"><ele>120.0</ele><time>2026-03-28T09:52:24Z</time></trkpt><trkpt lat="53.34833881974256" lon="14.626518750993233"><ele>119.66666666666667</ele><time>2026-03-28T09:52:26Z</time></trkpt><trkpt lat="53.34829773790986" lon="14.626683845888842"><ele>119.33333333333334</ele><time>2026-03-28T09:52:28Z</time></trkpt><trkpt lat="53.34826992033351" lon="14.626791693768808"><ele>119.0</ele><time>2026-03-28T09:52:29Z</time></trkpt><trkpt lat="53.348232723656444" lon="14.626899982770995"><ele>118.66666666666667</ele><time>2026-03-28T09:52:30Z</time></trkpt><trkpt lat="53.34819604425154" lon="14.626994369041938"><ele>118.33333333333334</ele><time>2026-03-28T09:52:31Z</time></trkpt><trkpt lat="53.348152797458965" lon="14.627080817037355"><ele>118.0</ele><time>2026-03-28T09:52:32Z</time></trkpt><trkpt lat="53.34810054178764" lon="14.627185134708476"><ele>118.0</ele><time>2026-03-28T09:52:33Z</time></trkpt><trkpt lat="53.348060191713344" lon="14.62727801110546"><ele>118.00000000000001</ele><time>2026-03-28T09:52:34Z</time></trkpt><trkpt lat="53.347983561618705" lon="14.627395982211208"><ele>118.00000000000001</ele><time>2026-03-28T09:52:36Z</time></trkpt><trkpt lat="53.3478984399341" lon="14.627523853286005"><ele>118.0</ele><time>2026-03-28T09:52:38Z</time></trkpt><trkpt lat="53.3478525331647" lon="14.62761343372772"><ele>118.0</ele><time>2026-03-28T09:52:39Z</time></trkpt><trkpt lat="53.34776586507527" lon="14.62779197100184"><ele>116.4</ele><time>2026-03-28T09:52:41Z</time></trkpt><trkpt lat="53.34768626452181" lon="14.627965013374386"><ele>114.80000000000001</ele><time>2026-03-28T09:52:43Z</time></trkpt><trkpt lat="53.34764561866789" lon="14.628086613189373"><ele>113.2</ele><time>2026-03-28T09:52:44Z</time></trkpt><trkpt lat="53.34759086411483" lon="14.628251340802292"><ele>111.6</ele><time>2026-03-28T09:52:45Z</time></trkpt><trkpt lat="53.34754610831839" lon="14.628358233796085"><ele>110.0</ele><time>2026-03-28T09:52:46Z</time></trkpt><trkpt lat="53.34751574039029" lon="14.62846176738693"><ele>109.99999999999999</ele><time>2026-03-28T09:52:47Z</time></trkpt><trkpt lat="53.34748141452733" lon="14.62858881482656"><ele>110.0</ele><time>2026-03-28T09:52:48Z</time></trkpt><trkpt lat="53.34745884476649" lon="14.628707825774127"><ele>110.0</ele><time>2026-03-28T09:52:49Z</time></trkpt><trkpt lat="53.347412941967264" lon="14.628880781781413"><ele>110.0</ele><time>2026-03-28T09:52:51Z</time></trkpt><trkpt lat="53.34736162669212" lon="14.628992427696716"><ele>109.99999999999999</ele><time>2026-03-28T09:52:54Z</time></trkpt><trkpt lat="53.34728092959311" lon="14.629022206098375"><ele>110.0</ele><time>2026-03-28T09:52:57Z</time></trkpt><trkpt lat="53.34718260898119" lon="14.629001406445383"><ele>108.8</ele><time>2026-03-28T09:52:59Z</time></trkpt><trkpt lat="53.34711103861156" lon="14.629000418357439"><ele>107.6</ele><time>2026-03-28T09:53:00Z</time></trkpt><trkpt lat="53.347023671648095" lon="14.628986826282986"><ele>106.4</ele><time>2026-03-28T09:53:02Z</time></trkpt><trkpt lat="53.34691240194545" lon="14.6289540125948"><ele>105.2</ele><time>2026-03-28T09:53:04Z</time></trkpt><trkpt lat="53.34682913721359" lon="14.628889342833821"><ele>104.0</ele><time>2026-03-28T09:53:06Z</time></trkpt><trkpt lat="53.3467214562026" lon="14.628953834284394"><ele>104.0</ele><time>2026-03-28T09:53:08Z</time></trkpt><trkpt lat="53.346648236108564" lon="14.629030445802131"><ele>104.0</ele><time>2026-03-28T09:53:09Z</time></trkpt><trkpt lat="53.34658587068666" lon="14.629080811959543"><ele>104.0</ele><time>2026-03-28T09:53:10Z</time></trkpt><trkpt lat="53.34645628872447" lon="14.629132184180294"><ele>104.0</ele><time>2026-03-28T09:53:12Z</time></trkpt><trkpt lat="53.34630767350721" lon="14.629122245089738"><ele>104.0</ele><time>2026-03-28T09:53:14Z</time></trkpt><trkpt lat="53.34622780075813" lon="14.629127129460336"><ele>105.2</ele><time>2026-03-28T09:53:15Z</time></trkpt><trkpt lat="53.346158015188266" lon="14.629159989966096"><ele>106.4</ele><time>2026-03-28T09:53:16Z</time></trkpt><trkpt lat="53.346067753995186" lon="14.629211234237706"><ele>107.6</ele><time>2026-03-28T09:53:17Z</time></trkpt><trkpt lat="53.346003213581476" lon="14.629253314390827"><ele>108.8</ele><time>2026-03-28T09:53:18Z</time></trkpt><trkpt lat="53.345929582320586" lon="14.629316348787636"><ele>110.0</ele><time>2026-03-28T09:53:19Z</time></trkpt><trkpt lat="53.345815368912945" lon="14.629422586437315"><ele>110.0</ele><time>2026-03-28T09:53:21Z</time></trkpt><trkpt lat="53.34570045879019" lon="14.629492333448706"><ele>110.0</ele><time>2026-03-28T09:53:23Z</time></trkpt><trkpt lat="53.34562990168585" lon="14.62952961521335"><ele>110.0</ele><time>2026-03-28T09:53:24Z</time></trkpt><trkpt lat="53.34548067043624" lon="14.629627197817296"><ele>110.0</ele><time>2026-03-28T09:53:26Z</time></trkpt><trkpt lat="53.34537366496905" lon="14.62969676927265"><ele>110.4</ele><time>2026-03-28T09:53:27Z</time></trkpt><trkpt lat="53.34527737290921" lon="14.62974381082677"><ele>110.8</ele><time>2026-03-28T09:53:28Z</time></trkpt><trkpt lat="53.3451872979399" lon="14.62981997826394"><ele>111.19999999999999</ele><time>2026-03-28T09:53:29Z</time></trkpt><trkpt lat="53.34510907479515" lon="14.629857128286051"><ele>111.6</ele><time>2026-03-28T09:53:30Z</time></trkpt><trkpt lat="53.34502602681878" lon="14.629912910695927"><ele>112.0</ele><time>2026-03-28T09:53:31Z</time></trkpt><trkpt lat="53.34492818524788" lon="14.629987245663063"><ele>112.0</ele><time>2026-03-28T09:53:32Z</time></trkpt><trkpt lat="53.34480348105331" lon="14.630055387839787"><ele>112.0</ele><time>2026-03-28T09:53:33Z</time></trkpt><trkpt lat="53.34466997935299" lon="14.630151072774753"><ele>112.0</ele><time>2026-03-28T09:53:34Z</time></trkpt><trkpt lat="53.34456097488452" lon="14.630217293943284"><ele>112.0</ele><time>2026-03-28T09:53:35Z</time></trkpt><trkpt lat="53.34447218684765" lon="14.630279503245674"><ele>112.66666666666667</ele><time>2026-03-28T09:53:36.001Z</time></trkpt><trkpt lat="53.344393741845344" lon="14.630342797657352"><ele>113.33333333333334</ele><time>2026-03-28T09:53:37.001Z</time></trkpt><trkpt lat="53.34432564526965" lon="14.630401144865921"><ele>114.0</ele><time>2026-03-28T09:53:38.001Z</time></trkpt><trkpt lat="53.34425025233344" lon="14.630456771071259"><ele>114.66666666666666</ele><time>2026-03-28T09:53:39.001Z</time></trkpt><trkpt lat="53.344174953261565" lon="14.630498890628884"><ele>115.33333333333333</ele><time>2026-03-28T09:53:40.001Z</time></trkpt><trkpt lat="53.34410656607921" lon="14.630531389074424"><ele>116.0</ele><time>2026-03-28T09:53:41.001Z</time></trkpt><trkpt lat="53.344031093376756" lon="14.630570537822365"><ele>116.0</ele><time>2026-03-28T09:53:42.001Z</time></trkpt><trkpt lat="53.34394597236578" lon="14.630606971228826"><ele>116.0</ele><time>2026-03-28T09:53:43.001Z</time></trkpt><trkpt lat="53.343860317281155" lon="14.630633157677643"><ele>116.0</ele><time>2026-03-28T09:53:44.001Z</time></trkpt><trkpt lat="53.34376790551186" lon="14.63063988271865"><ele>116.0</ele><time>2026-03-28T09:53:45.001Z</time></trkpt><trkpt lat="53.34366720348768" lon="14.630674022144573"><ele>116.0</ele><time>2026-03-28T09:53:47.001Z</time></trkpt><trkpt lat="53.34360018864907" lon="14.630831538066023"><ele>116.16666666666666</ele><time>2026-03-28T09:53:49.001Z</time></trkpt><trkpt lat="53.34357969603239" lon="14.630966259480063"><ele>116.33333333333333</ele><time>2026-03-28T09:53:50.001Z</time></trkpt><trkpt lat="53.34355935667477" lon="14.63112822623269"><ele>116.5</ele><time>2026-03-28T09:53:51.001Z</time></trkpt><trkpt lat="53.34351884342401" lon="14.631256782261413"><ele>116.66666666666666</ele><time>2026-03-28T09:53:53.001Z</time></trkpt><trkpt lat="53.34347920753441" lon="14.631352727422987"><ele>116.83333333333333</ele><time>2026-03-28T09:53:54.001Z</time></trkpt><trkpt lat="53.3434521364503" lon="14.631485965629834"><ele>117.0</ele><time>2026-03-28T09:53:55.001Z</time></trkpt><trkpt lat="53.343422383738805" lon="14.631604023897845"><ele>117.33333333333333</ele><time>2026-03-28T09:53:56.001Z</time></trkpt><trkpt lat="53.343394296877335" lon="14.631736871324993"><ele>117.66666666666666</ele><time>2026-03-28T09:53:57.001Z</time></trkpt><trkpt lat="53.343369979802915" lon="14.631881200753817"><ele>118.0</ele><time>2026-03-28T09:53:58.001Z</time></trkpt><trkpt lat="53.34335421383746" lon="14.63199093345393"><ele>118.33333333333333</ele><time>2026-03-28T09:53:59.001Z</time></trkpt><trkpt lat="53.34332709309022" lon="14.632204171427635"><ele>118.66666666666666</ele><time>2026-03-28T09:54:01.001Z</time></trkpt><trkpt lat="53.343303816279736" lon="14.632319016469593"><ele>119.0</ele><time>2026-03-28T09:54:02.001Z</time></trkpt><trkpt lat="53.34328585548852" lon="14.632429013697015"><ele>118.33333333333333</ele><time>2026-03-28T09:54:03.001Z</time></trkpt><trkpt lat="53.34325812929671" lon="14.632558774903911"><ele>117.66666666666666</ele><time>2026-03-28T09:54:05.001Z</time></trkpt><trkpt lat="53.3432248442262" lon="14.632723510903755"><ele>117.0</ele><time>2026-03-28T09:54:08.001Z</time></trkpt><trkpt lat="53.343220449716924" lon="14.632829209522267"><ele>116.33333333333334</ele><time>2026-03-28T09:54:10.001Z</time></trkpt><trkpt lat="53.34324471779771" lon="14.632963511606818"><ele>115.66666666666667</ele><time>2026-03-28T09:54:12.001Z</time></trkpt><trkpt lat="53.343271888469964" lon="14.63312952116061"><ele>115.0</ele><time>2026-03-28T09:54:14.001Z</time></trkpt><trkpt lat="53.34330544042606" lon="14.633284342308755"><ele>114.33333333333334</ele><time>2026-03-28T09:54:16.001Z</time></trkpt><trkpt lat="53.34328119482941" lon="14.63341330045669"><ele>113.66666666666667</ele><time>2026-03-28T09:54:19.001Z</time></trkpt><trkpt lat="53.34322738776994" lon="14.633510866548928"><ele>113.0</ele><time>2026-03-28T09:54:20.001Z</time></trkpt><trkpt lat="53.34318019618729" lon="14.633607815991999"><ele>112.33333333333334</ele><time>2026-03-28T09:54:21.001Z</time></trkpt><trkpt lat="53.343125489743336" lon="14.633722649059665"><ele>111.66666666666667</ele><time>2026-03-28T09:54:22.001Z</time></trkpt><trkpt lat="53.34308486441343" lon="14.633825886410689"><ele>111.0</ele><time>2026-03-28T09:54:23.001Z</time></trkpt><trkpt lat="53.34303556371348" lon="14.633936460386064"><ele>112.8</ele><time>2026-03-28T09:54:24.001Z</time></trkpt><trkpt lat="53.34297370930075" lon="14.634095366202237"><ele>114.6</ele><time>2026-03-28T09:54:25.001Z</time></trkpt><trkpt lat="53.34290614914892" lon="14.634248627672523"><ele>116.4</ele><time>2026-03-28T09:54:26.001Z</time></trkpt><trkpt lat="53.34286055191106" lon="14.634359663953989"><ele>118.2</ele><time>2026-03-28T09:54:27.001Z</time></trkpt><trkpt lat="53.34280919335255" lon="14.634442921192907"><ele>120.0</ele><time>2026-03-28T09:54:28.001Z</time></trkpt><trkpt lat="53.3427534953028" lon="14.634554830067392"><ele>120.0</ele><time>2026-03-28T09:54:30Z</time></trkpt><trkpt lat="53.34269644985025" lon="14.634704961316796"><ele>120.0</ele><time>2026-03-28T09:54:32Z</time></trkpt><trkpt lat="53.3426656245111" lon="14.634870301469958"><ele>120.0</ele><time>2026-03-28T09:54:34Z</time></trkpt><trkpt lat="53.34263945811817" lon="14.634997705478265"><ele>120.0</ele><time>2026-03-28T09:54:36Z</time></trkpt><trkpt lat="53.34262791850891" lon="14.63516002926094"><ele>120.0</ele><time>2026-03-28T09:54:38Z</time></trkpt><trkpt lat="53.342607067019614" lon="14.635277343000377"><ele>120.16666666666667</ele><time>2026-03-28T09:54:39Z</time></trkpt><trkpt lat="53.342614564411484" lon="14.635430935716812"><ele>120.33333333333334</ele><time>2026-03-28T09:54:40Z</time></trkpt><trkpt lat="53.342608155983214" lon="14.635556139008376"><ele>120.5</ele><time>2026-03-28T09:54:41Z</time></trkpt><trkpt lat="53.34260509213026" lon="14.635674746356893"><ele>120.66666666666667</ele><time>2026-03-28T09:54:42Z</time></trkpt><trkpt lat="53.34261196713993" lon="14.635809570376354"><ele>120.83333333333334</ele><time>2026-03-28T09:54:44Z</time></trkpt><trkpt lat="53.34257454586791" lon="14.635952852719704"><ele>121.0</ele><time>2026-03-28T09:54:46Z</time></trkpt><trkpt lat="53.34252290950434" lon="14.63603681215636"><ele>121.00000000000001</ele><time>2026-03-28T09:54:49Z</time></trkpt><trkpt lat="53.34246590312558" lon="14.636083695027096"><ele>121.0</ele><time>2026-03-28T09:54:51Z</time></trkpt><trkpt lat="53.34240481002563" lon="14.63613943438296"><ele>121.0</ele><time>2026-03-28T09:54:52Z</time></trkpt><trkpt lat="53.34235480980202" lon="14.6362348277081"><ele>121.0</ele><time>2026-03-28T09:54:55Z</time></trkpt><trkpt lat="53.34228966825849" lon="14.636358593930595"><ele>121.00000000000001</ele><time>2026-03-28T09:54:57Z</time></trkpt><trkpt lat="53.34224617350913" lon="14.63644918683502"><ele>121.0</ele><time>2026-03-28T09:54:59Z</time></trkpt><trkpt lat="53.34216300608197" lon="14.636520394272418"><ele>121.83333333333334</ele><time>2026-03-28T09:55:02Z</time></trkpt><trkpt lat="53.34209811298878" lon="14.63656230847252"><ele>122.66666666666667</ele><time>2026-03-28T09:55:05Z</time></trkpt><trkpt lat="53.34203109186898" lon="14.636629128661252"><ele>123.5</ele><time>2026-03-28T09:55:08Z</time></trkpt><trkpt lat="53.34194322415937" lon="14.636670563869554"><ele>124.33333333333334</ele><time>2026-03-28T09:56:45Z</time></trkpt><trkpt lat="53.34192079123751" lon="14.636788888808171"><ele>125.16666666666667</ele><time>2026-03-28T09:59:01Z</time></trkpt><trkpt lat="53.3418480123374" lon="14.636751680504808"><ele>126.0</ele><time>2026-03-28T09:59:46Z</time></trkpt><trkpt lat="53.34178310675139" lon="14.63679330442561"><ele>126.0</ele><time>2026-03-28T09:59:48Z</time></trkpt><trkpt lat="53.34168402428357" lon="14.636846403635914"><ele>126.0</ele><time>2026-03-28T09:59:51Z</time></trkpt><trkpt lat="53.3416236770518" lon="14.63691512981482"><ele>126.0</ele><time>2026-03-28T09:59:54Z</time></trkpt><trkpt lat="53.341510308573454" lon="14.636977059069935"><ele>126.0</ele><time>2026-03-28T10:00:37.001Z</time></trkpt><trkpt lat="53.34146534104485" lon="14.637097588031722"><ele>126.0</ele><time>2026-03-28T10:01:05.999Z</time></trkpt><trkpt lat="53.34140959444185" lon="14.637161581205671"><ele>126.0</ele><time>2026-03-28T10:01:12Z</time></trkpt><trkpt lat="53.34135053205402" lon="14.637199984755625"><ele>129.0</ele><time>2026-03-28T10:02:05Z</time></trkpt><trkpt lat="53.34129266102925" lon="14.637297333501163"><ele>132.0</ele><time>2026-03-28T10:02:08Z</time></trkpt><trkpt lat="53.341253842238245" lon="14.637435246475151"><ele>135.0</ele><time>2026-03-28T10:02:11Z</time></trkpt><trkpt lat="53.341225526367786" lon="14.63758470847679"><ele>138.0</ele><time>2026-03-28T10:02:13Z</time></trkpt><trkpt lat="53.34120865351944" lon="14.63773284808317"><ele>141.0</ele><time>2026-03-28T10:02:15Z</time></trkpt><trkpt lat="53.34115336792492" lon="14.637880122520112"><ele>141.16666666666666</ele><time>2026-03-28T10:02:17Z</time></trkpt><trkpt lat="53.341106680633104" lon="14.6380038344121"><ele>141.33333333333334</ele><time>2026-03-28T10:02:20Z</time></trkpt><trkpt lat="53.341066535097134" lon="14.638108892515472"><ele>141.5</ele><time>2026-03-28T10:02:22Z</time></trkpt><trkpt lat="53.34101048281873" lon="14.638282850957538"><ele>141.66666666666669</ele><time>2026-03-28T10:02:24Z</time></trkpt><trkpt lat="53.34098655590102" lon="14.638391242687796"><ele>141.83333333333334</ele><time>2026-03-28T10:02:25Z</time></trkpt><trkpt lat="53.340977696414356" lon="14.638496464475375"><ele>142.0</ele><time>2026-03-28T10:02:26Z</time></trkpt><trkpt lat="53.3409632776828" lon="14.638678420747128"><ele>142.0</ele><time>2026-03-28T10:02:28Z</time></trkpt><trkpt lat="53.34093310295691" lon="14.63882839662746"><ele>142.0</ele><time>2026-03-28T10:02:30Z</time></trkpt><trkpt lat="53.340900636600885" lon="14.638997555483906"><ele>142.0</ele><time>2026-03-28T10:02:32Z</time></trkpt><trkpt lat="53.34087194681901" lon="14.639182704206538"><ele>142.0</ele><time>2026-03-28T10:02:34Z</time></trkpt><trkpt lat="53.34082817334137" lon="14.639361095936607"><ele>142.0</ele><time>2026-03-28T10:02:36Z</time></trkpt><trkpt lat="53.34078783372898" lon="14.639482514566044"><ele>142.28571428571428</ele><time>2026-03-28T10:02:39Z</time></trkpt><trkpt lat="53.34076292572289" lon="14.639606031700438"><ele>142.57142857142856</ele><time>2026-03-28T10:02:43Z</time></trkpt><trkpt lat="53.340707791164064" lon="14.639688871364884"><ele>142.85714285714286</ele><time>2026-03-28T10:02:48Z</time></trkpt><trkpt lat="53.34068106811687" lon="14.639797363806123"><ele>143.14285714285714</ele><time>2026-03-28T10:02:53Z</time></trkpt><trkpt lat="53.340658926787604" lon="14.639902894981937"><ele>143.42857142857144</ele><time>2026-03-28T10:03:07Z</time></trkpt><trkpt lat="53.340606068744115" lon="14.639969041594917"><ele>143.71428571428572</ele><time>2026-03-28T10:03:15Z</time></trkpt><trkpt lat="53.34054625395374" lon="14.640081749423633"><ele>144.0</ele><time>2026-03-28T10:05:10.999Z</time></trkpt><trkpt lat="53.340466874213874" lon="14.640188075761532"><ele>145.5</ele><time>2026-03-28T10:05:14Z</time></trkpt><trkpt lat="53.340415708583194" lon="14.640273699518023"><ele>147.0</ele><time>2026-03-28T10:05:16Z</time></trkpt><trkpt lat="53.3403526184867" lon="14.640369386850997"><ele>148.5</ele><time>2026-03-28T10:05:19Z</time></trkpt><trkpt lat="53.34030488847791" lon="14.64046957625774"><ele>150.0</ele><time>2026-03-28T10:05:21Z</time></trkpt><trkpt lat="53.340255517166206" lon="14.640591950097122"><ele>151.5</ele><time>2026-03-28T10:05:23Z</time></trkpt><trkpt lat="53.34020194373037" lon="14.640735461379405"><ele>153.0</ele><time>2026-03-28T10:05:25Z</time></trkpt><trkpt lat="53.340150938824856" lon="14.640870208780331"><ele>153.33333333333334</ele><time>2026-03-28T10:05:27Z</time></trkpt><trkpt lat="53.34011519762869" lon="14.641045594148759"><ele>153.66666666666666</ele><time>2026-03-28T10:05:29Z</time></trkpt><trkpt lat="53.34008279198232" lon="14.641172248407964"><ele>154.0</ele><time>2026-03-28T10:05:31Z</time></trkpt><trkpt lat="53.340041311102276" lon="14.641267158778781"><ele>154.33333333333331</ele><time>2026-03-28T10:05:33Z</time></trkpt><trkpt lat="53.340003976818224" lon="14.641386985906543"><ele>154.66666666666666</ele><time>2026-03-28T10:05:35Z</time></trkpt><trkpt lat="53.339972036289616" lon="14.641544169470777"><ele>155.0</ele><time>2026-03-28T10:05:37Z</time></trkpt><trkpt lat="53.33994782569074" lon="14.6416544979553"><ele>155.66666666666666</ele><time>2026-03-28T10:05:38Z</time></trkpt><trkpt lat="53.33992513741219" lon="14.641769556254781"><ele>156.33333333333331</ele><time>2026-03-28T10:05:39Z</time></trkpt><trkpt lat="53.3398945951857" lon="14.641872950212056"><ele>157.0</ele><time>2026-03-28T10:05:40Z</time></trkpt><trkpt lat="53.33983828885237" lon="14.641962315847527"><ele>157.66666666666666</ele><time>2026-03-28T10:05:43Z</time></trkpt><trkpt lat="53.33976055109454" lon="14.6419983100145"><ele>158.33333333333334</ele><time>2026-03-28T10:05:45Z</time></trkpt><trkpt lat="53.33966813327796" lon="14.641998085831494"><ele>159.0</ele><time>2026-03-28T10:05:47Z</time></trkpt><trkpt lat="53.33958803845012" lon="14.641911202998706"><ele>159.66666666666666</ele><time>2026-03-28T10:05:49Z</time></trkpt><trkpt lat="53.33949491486608" lon="14.641782646817017"><ele>160.33333333333334</ele><time>2026-03-28T10:05:51Z</time></trkpt><trkpt lat="53.33944782177451" lon="14.641706675344059"><ele>161.0</ele><time>2026-03-28T10:05:54Z</time></trkpt><trkpt lat="53.33938699004584" lon="14.641658626082895"><ele>161.66666666666669</ele><time>2026-03-28T10:06:02Z</time></trkpt><trkpt lat="53.33931656762932" lon="14.64167271570754"><ele>162.33333333333334</ele><time>2026-03-28T10:06:05Z</time></trkpt><trkpt lat="53.339293316666634" lon="14.641788115731819"><ele>163.0</ele><time>2026-03-28T10:06:07Z</time></trkpt><trkpt lat="53.33923355210005" lon="14.641944810447452"><ele>163.0</ele><time>2026-03-28T10:06:09Z</time></trkpt><trkpt lat="53.33918135599366" lon="14.642020545737383"><ele>163.0</ele><time>2026-03-28T10:06:11Z</time></trkpt><trkpt lat="53.33914017041469" lon="14.642127926515014"><ele>163.0</ele><time>2026-03-28T10:06:13Z</time></trkpt><trkpt lat="53.339085766439375" lon="14.642237438642617"><ele>163.0</ele><time>2026-03-28T10:06:15Z</time></trkpt><trkpt lat="53.33905347187278" lon="14.642363250210947"><ele>163.0</ele><time>2026-03-28T10:06:17Z</time></trkpt><trkpt lat="53.339059518460985" lon="14.642475279015745"><ele>163.0</ele><time>2026-03-28T10:06:19Z</time></trkpt><trkpt lat="53.33906456349971" lon="14.642729915272916"><ele>162.4</ele><time>2026-03-28T10:06:21Z</time></trkpt><trkpt lat="53.33908954774119" lon="14.642860403464917"><ele>161.8</ele><time>2026-03-28T10:06:23Z</time></trkpt><trkpt lat="53.339096787559775" lon="14.642978640031787"><ele>161.2</ele><time>2026-03-28T10:06:25Z</time></trkpt><trkpt lat="53.33905860097265" lon="14.643169930365247"><ele>160.6</ele><time>2026-03-28T10:06:50Z</time></trkpt><trkpt lat="53.33910431547276" lon="14.643303989918625"><ele>160.0</ele><time>2026-03-28T10:09:24Z</time></trkpt><trkpt lat="53.33909476476653" lon="14.643147204498998"><ele>160.0</ele><time>2026-03-28T10:09:30Z</time></trkpt><trkpt lat="53.339071347252414" lon="14.642968501982793"><ele>160.0</ele><time>2026-03-28T10:09:32Z</time></trkpt><trkpt lat="53.33906368465006" lon="14.64282552728584"><ele>160.0</ele><time>2026-03-28T10:09:33Z</time></trkpt><trkpt lat="53.339061642520484" lon="14.642709997668591"><ele>160.0</ele><time>2026-03-28T10:09:34Z</time></trkpt><trkpt lat="53.33905557656684" lon="14.642542819429266"><ele>160.0</ele><time>2026-03-28T10:09:36Z</time></trkpt><trkpt lat="53.3390486462849" lon="14.642407582960795"><ele>160.0</ele><time>2026-03-28T10:09:39Z</time></trkpt><trkpt lat="53.33899974789653" lon="14.64229327176534"><ele>159.8</ele><time>2026-03-28T10:09:41Z</time></trkpt><trkpt lat="53.33887635816026" lon="14.642092759952135"><ele>159.6</ele><time>2026-03-28T10:09:43Z</time></trkpt><trkpt lat="53.33884950040518" lon="14.641968836689088"><ele>159.4</ele><time>2026-03-28T10:09:45Z</time></trkpt><trkpt lat="53.338840056387404" lon="14.641845036079033"><ele>159.2</ele><time>2026-03-28T10:09:47Z</time></trkpt><trkpt lat="53.33876049575225" lon="14.641761103380542"><ele>159.0</ele><time>2026-03-28T10:09:50Z</time></trkpt><trkpt lat="53.338671501649344" lon="14.641700822960392"><ele>158.8</ele><time>2026-03-28T10:09:53Z</time></trkpt><trkpt lat="53.33860852940067" lon="14.64160321692899"><ele>158.60000000000002</ele><time>2026-03-28T10:09:55Z</time></trkpt><trkpt lat="53.33854212843387" lon="14.641518529554231"><ele>158.4</ele><time>2026-03-28T10:09:57Z</time></trkpt><trkpt lat="53.3384647174606" lon="14.641438814602132"><ele>158.20000000000002</ele><time>2026-03-28T10:09:59Z</time></trkpt><trkpt lat="53.338360758845155" lon="14.641392711680917"><ele>158.0</ele><time>2026-03-28T10:10:02Z</time></trkpt><trkpt lat="53.33825409340567" lon="14.641348366064687"><ele>158.0</ele><time>2026-03-28T10:10:04Z</time></trkpt><trkpt lat="53.33815948578685" lon="14.641352355232268"><ele>158.0</ele><time>2026-03-28T10:10:06Z</time></trkpt><trkpt lat="53.33809420428173" lon="14.641402570954865"><ele>158.0</ele><time>2026-03-28T10:10:07Z</time></trkpt><trkpt lat="53.338007874271455" lon="14.64150893810567"><ele>158.0</ele><time>2026-03-28T10:10:09Z</time></trkpt><trkpt lat="53.33791774642007" lon="14.641627004424235"><ele>158.0</ele><time>2026-03-28T10:10:11Z</time></trkpt><trkpt lat="53.337866219863834" lon="14.641721847315972"><ele>157.83333333333331</ele><time>2026-03-28T10:10:12Z</time></trkpt><trkpt lat="53.33780812246225" lon="14.641804538847563"><ele>157.66666666666666</ele><time>2026-03-28T10:10:13Z</time></trkpt><trkpt lat="53.33775440896922" lon="14.641872656450179"><ele>157.5</ele><time>2026-03-28T10:10:14Z</time></trkpt><trkpt lat="53.337692128800185" lon="14.641923937804176"><ele>157.33333333333334</ele><time>2026-03-28T10:10:15Z</time></trkpt><trkpt lat="53.337615199439114" lon="14.642009991739306"><ele>157.16666666666669</ele><time>2026-03-28T10:10:16Z</time></trkpt><trkpt lat="53.33750633443719" lon="14.642116954843583"><ele>157.0</ele><time>2026-03-28T10:10:17Z</time></trkpt><trkpt lat="53.337403509753855" lon="14.642223378427397"><ele>157.0</ele><time>2026-03-28T10:10:18Z</time></trkpt><trkpt lat="53.33728834847865" lon="14.64232146060022"><ele>157.0</ele><time>2026-03-28T10:10:19Z</time></trkpt><trkpt lat="53.337178825515714" lon="14.642410968802155"><ele>157.0</ele><time>2026-03-28T10:10:20Z</time></trkpt><trkpt lat="53.33708969153007" lon="14.642487764715398"><ele>157.0</ele><time>2026-03-28T10:10:21Z</time></trkpt><trkpt lat="53.337012420366165" lon="14.642588955114295"><ele>157.0</ele><time>2026-03-28T10:10:22Z</time></trkpt><trkpt lat="53.33692598407352" lon="14.642686964046318"><ele>156.4</ele><time>2026-03-28T10:10:23Z</time></trkpt><trkpt lat="53.336838245395796" lon="14.642804942075912"><ele>155.79999999999998</ele><time>2026-03-28T10:10:24Z</time></trkpt><trkpt lat="53.336751823050925" lon="14.642906050112892"><ele>155.2</ele><time>2026-03-28T10:10:25Z</time></trkpt><trkpt lat="53.33665734262179" lon="14.643022314878912"><ele>154.6</ele><time>2026-03-28T10:10:26Z</time></trkpt><trkpt lat="53.33657612739857" lon="14.643116152033912"><ele>154.0</ele><time>2026-03-28T10:10:27Z</time></trkpt><trkpt lat="53.336427336760984" lon="14.643097298019597"><ele>151.0</ele><time>2026-03-28T10:10:28Z</time></trkpt><trkpt lat="53.33633368307023" lon="14.64320751214585"><ele>148.0</ele><time>2026-03-28T10:10:29Z</time></trkpt><trkpt lat="53.336230266043955" lon="14.643329667262424"><ele>145.0</ele><time>2026-03-28T10:10:30Z</time></trkpt><trkpt lat="53.33612680125856" lon="14.643457073693051"><ele>142.0</ele><time>2026-03-28T10:10:31Z</time></trkpt><trkpt lat="53.33601504229982" lon="14.64360045983969"><ele>142.75</ele><time>2026-03-28T10:10:32Z</time></trkpt><trkpt lat="53.33591261253309" lon="14.64376133337963"><ele>143.5</ele><time>2026-03-28T10:10:33Z</time></trkpt><trkpt lat="53.33581910985122" lon="14.643930488372451"><ele>144.25</ele><time>2026-03-28T10:10:34Z</time></trkpt><trkpt lat="53.33574187730609" lon="14.64407551901071"><ele>145.0</ele><time>2026-03-28T10:10:35Z</time></trkpt><trkpt lat="53.33567094279863" lon="14.64422824625721"><ele>145.0</ele><time>2026-03-28T10:10:36Z</time></trkpt><trkpt lat="53.335607465859724" lon="14.644375753815305"><ele>145.0</ele><time>2026-03-28T10:10:37Z</time></trkpt><trkpt lat="53.33554151780134" lon="14.644524839130254"><ele>145.0</ele><time>2026-03-28T10:10:38Z</time></trkpt><trkpt lat="53.335467746995405" lon="14.644661821499653"><ele>145.0</ele><time>2026-03-28T10:10:39Z</time></trkpt><trkpt lat="53.33541434067085" lon="14.644807429285503"><ele>145.0</ele><time>2026-03-28T10:10:40Z</time></trkpt><trkpt lat="53.335352350022305" lon="14.644943744095468"><ele>145.2</ele><time>2026-03-28T10:10:41Z</time></trkpt><trkpt lat="53.33527689310827" lon="14.645068423341838"><ele>145.4</ele><time>2026-03-28T10:10:42Z</time></trkpt><trkpt lat="53.33521209060364" lon="14.645190742485212"><ele>145.6</ele><time>2026-03-28T10:10:43Z</time></trkpt><trkpt lat="53.33514248206352" lon="14.645325073615712"><ele>145.8</ele><time>2026-03-28T10:10:44Z</time></trkpt><trkpt lat="53.33507792598779" lon="14.645457187133578"><ele>146.0</ele><time>2026-03-28T10:10:45Z</time></trkpt><trkpt lat="53.33501334863957" lon="14.645593357581653"><ele>147.0</ele><time>2026-03-28T10:10:46Z</time></trkpt><trkpt lat="53.33494589397161" lon="14.645737860188728"><ele>148.0</ele><time>2026-03-28T10:10:47Z</time></trkpt><trkpt lat="53.33489103808147" lon="14.645903364364054"><ele>149.0</ele><time>2026-03-28T10:10:48Z</time></trkpt><trkpt lat="53.334838949246844" lon="14.64607188285739"><ele>150.0</ele><time>2026-03-28T10:10:49Z</time></trkpt><trkpt lat="53.33477882811172" lon="14.646285814152908"><ele>150.5</ele><time>2026-03-28T10:10:50Z</time></trkpt><trkpt lat="53.33471205052845" lon="14.64653643564265"><ele>151.0</ele><time>2026-03-28T10:10:51Z</time></trkpt><trkpt lat="53.33465369006409" lon="14.646760044835927"><ele>151.5</ele><time>2026-03-28T10:10:52Z</time></trkpt><trkpt lat="53.33461109937608" lon="14.646950156950778"><ele>152.0</ele><time>2026-03-28T10:10:53Z</time></trkpt><trkpt lat="53.3345949074626" lon="14.647124266921459"><ele>152.33333333333331</ele><time>2026-03-28T10:10:54Z</time></trkpt><trkpt lat="53.334577568588244" lon="14.647282572952724"><ele>152.66666666666666</ele><time>2026-03-28T10:10:55Z</time></trkpt><trkpt lat="53.334583644959736" lon="14.647407917558098"><ele>153.0</ele><time>2026-03-28T10:10:56Z</time></trkpt><trkpt lat="53.33459386199296" lon="14.647515136753897"><ele>153.33333333333334</ele><time>2026-03-28T10:10:57Z</time></trkpt><trkpt lat="53.334629539691406" lon="14.647643107381382"><ele>153.66666666666669</ele><time>2026-03-28T10:10:59Z</time></trkpt><trkpt lat="53.33464452408104" lon="14.647763184332828"><ele>154.0</ele><time>2026-03-28T10:11:02Z</time></trkpt><trkpt lat="53.334483310545835" lon="14.647788782887153"><ele>154.0</ele><time>2026-03-28T10:11:08Z</time></trkpt><trkpt lat="53.33439162824798" lon="14.647730863368881"><ele>154.0</ele><time>2026-03-28T10:11:10.001Z</time></trkpt><trkpt lat="53.33430469932183" lon="14.647744802682519"><ele>154.0</ele><time>2026-03-28T10:11:11.001Z</time></trkpt><trkpt lat="53.334216705569595" lon="14.647750742021831"><ele>154.0</ele><time>2026-03-28T10:11:12.001Z</time></trkpt><trkpt lat="53.33415300545859" lon="14.647741106578442"><ele>154.0</ele><time>2026-03-28T10:11:13.001Z</time></trkpt><trkpt lat="53.33407477118264" lon="14.647766522779339"><ele>154.0</ele><time>2026-03-28T10:11:14.001Z</time></trkpt><trkpt lat="53.3339931304613" lon="14.647756605148318"><ele>154.0</ele><time>2026-03-28T10:11:15.001Z</time></trkpt><trkpt lat="53.33390613464542" lon="14.647742136246904"><ele>154.0</ele><time>2026-03-28T10:11:16.001Z</time></trkpt><trkpt lat="53.33379395872729" lon="14.647743302978492"><ele>154.0</ele><time>2026-03-28T10:11:17.999Z</time></trkpt><trkpt lat="53.33367309560971" lon="14.64778185436323"><ele>154.0</ele><time>2026-03-28T10:11:19.999Z</time></trkpt><trkpt lat="53.3335712258103" lon="14.647848774107269"><ele>154.0</ele><time>2026-03-28T10:11:20.999Z</time></trkpt><trkpt lat="53.3334692696137" lon="14.647922923301138"><ele>153.8</ele><time>2026-03-28T10:11:21.999Z</time></trkpt><trkpt lat="53.33338200016844" lon="14.647979243712134"><ele>153.60000000000002</ele><time>2026-03-28T10:11:22.999Z</time></trkpt><trkpt lat="53.33331030180926" lon="14.64804795158702"><ele>153.4</ele><time>2026-03-28T10:11:23.999Z</time></trkpt><trkpt lat="53.33325000692125" lon="14.648129877256881"><ele>153.20000000000002</ele><time>2026-03-28T10:11:24.999Z</time></trkpt><trkpt lat="53.333162912320134" lon="14.64832268772892"><ele>153.0</ele><time>2026-03-28T10:11:26.999Z</time></trkpt><trkpt lat="53.33307413272921" lon="14.648450705771436"><ele>151.8</ele><time>2026-03-28T10:11:28.999Z</time></trkpt><trkpt lat="53.33298483323349" lon="14.648576112063827"><ele>150.60000000000002</ele><time>2026-03-28T10:11:30.999Z</time></trkpt><trkpt lat="53.332920851289636" lon="14.648605815891136"><ele>149.39999999999998</ele><time>2026-03-28T10:11:31.999Z</time></trkpt><trkpt lat="53.332795741904654" lon="14.648665755477936"><ele>148.2</ele><time>2026-03-28T10:11:33.999Z</time></trkpt><trkpt lat="53.3327048949167" lon="14.648672787386348"><ele>147.0</ele><time>2026-03-28T10:11:35.999Z</time></trkpt><trkpt lat="53.33260102272897" lon="14.648738384210915"><ele>147.0</ele><time>2026-03-28T10:11:37.999Z</time></trkpt><trkpt lat="53.332526478009164" lon="14.648777731473816"><ele>147.0</ele><time>2026-03-28T10:11:38.999Z</time></trkpt><trkpt lat="53.33241459933584" lon="14.648810491098292"><ele>147.0</ele><time>2026-03-28T10:11:40.999Z</time></trkpt><trkpt lat="53.33230115626982" lon="14.648934040640473"><ele>147.0</ele><time>2026-03-28T10:11:42.999Z</time></trkpt><trkpt lat="53.332231274437774" lon="14.649000075081723"><ele>147.0</ele><time>2026-03-28T10:11:43.999Z</time></trkpt><trkpt lat="53.33216505997195" lon="14.649063206207728"><ele>145.2</ele><time>2026-03-28T10:11:44.999Z</time></trkpt><trkpt lat="53.3320969342214" lon="14.649107593919343"><ele>143.39999999999998</ele><time>2026-03-28T10:11:45.999Z</time></trkpt><trkpt lat="53.33203436634891" lon="14.649132445164213"><ele>141.60000000000002</ele><time>2026-03-28T10:11:46.999Z</time></trkpt><trkpt lat="53.331919789098414" lon="14.649205936441266"><ele>139.8</ele><time>2026-03-28T10:11:48.999Z</time></trkpt><trkpt lat="53.33181717612088" lon="14.649185821383986"><ele>138.0</ele><time>2026-03-28T10:11:50.999Z</time></trkpt><trkpt lat="53.331697165228576" lon="14.64921445495444"><ele>138.0</ele><time>2026-03-28T10:11:52.999Z</time></trkpt><trkpt lat="53.33161834590215" lon="14.649271060242743"><ele>138.0</ele><time>2026-03-28T10:11:54.999Z</time></trkpt><trkpt lat="53.33153942121362" lon="14.649352501922358"><ele>138.0</ele><time>2026-03-28T10:11:56.999Z</time></trkpt><trkpt lat="53.33146737387533" lon="14.649479554258216"><ele>138.0</ele><time>2026-03-28T10:11:58.999Z</time></trkpt><trkpt lat="53.33141058776999" lon="14.649566165684087"><ele>138.0</ele><time>2026-03-28T10:12:00.999Z</time></trkpt><trkpt lat="53.331321075568624" lon="14.64961640989442"><ele>137.6</ele><time>2026-03-28T10:12:02.999Z</time></trkpt><trkpt lat="53.33118522625577" lon="14.649609978963216"><ele>137.20000000000002</ele><time>2026-03-28T10:12:04.999Z</time></trkpt><trkpt lat="53.33112143167724" lon="14.649617808280679"><ele>136.8</ele><time>2026-03-28T10:12:05.999Z</time></trkpt><trkpt lat="53.331024346540254" lon="14.649677499307938"><ele>136.4</ele><time>2026-03-28T10:12:07.999Z</time></trkpt><trkpt lat="53.33096012428134" lon="14.649706030061044"><ele>136.0</ele><time>2026-03-28T10:12:08.999Z</time></trkpt><trkpt lat="53.33086566996696" lon="14.649673001011498"><ele>136.0</ele><time>2026-03-28T10:12:11Z</time></trkpt><trkpt lat="53.33075207068879" lon="14.649725054928448"><ele>136.0</ele><time>2026-03-28T10:12:13Z</time></trkpt><trkpt lat="53.33063282039125" lon="14.64975999055071"><ele>136.0</ele><time>2026-03-28T10:12:15Z</time></trkpt><trkpt lat="53.33054489487975" lon="14.649709050444589"><ele>136.0</ele><time>2026-03-28T10:12:17Z</time></trkpt><trkpt lat="53.33048030679012" lon="14.649684397928944"><ele>136.0</ele><time>2026-03-28T10:12:18Z</time></trkpt><trkpt lat="53.33039399589157" lon="14.649668526042882"><ele>137.6</ele><time>2026-03-28T10:12:19Z</time></trkpt><trkpt lat="53.330308720100504" lon="14.649665834023697"><ele>139.2</ele><time>2026-03-28T10:12:20Z</time></trkpt><trkpt lat="53.33021522158523" lon="14.649674915809488"><ele>140.8</ele><time>2026-03-28T10:12:22Z</time></trkpt><trkpt lat="53.33011514135363" lon="14.649726079202077"><ele>142.4</ele><time>2026-03-28T10:12:24Z</time></trkpt><trkpt lat="53.33006140073685" lon="14.649805396377728"><ele>144.0</ele><time>2026-03-28T10:12:26Z</time></trkpt><trkpt lat="53.329957270719" lon="14.649877207728489"><ele>144.0</ele><time>2026-03-28T10:12:28Z</time></trkpt><trkpt lat="53.329832189845824" lon="14.649979089818624"><ele>144.0</ele><time>2026-03-28T10:12:30Z</time></trkpt><trkpt lat="53.3297637234002" lon="14.650045243701467"><ele>144.0</ele><time>2026-03-28T10:12:31Z</time></trkpt><trkpt lat="53.32967490074109" lon="14.650137702174472"><ele>144.0</ele><time>2026-03-28T10:12:32Z</time></trkpt><trkpt lat="53.32961858727469" lon="14.650191798391255"><ele>144.0</ele><time>2026-03-28T10:12:33Z</time></trkpt><trkpt lat="53.329549046003166" lon="14.65027218657438"><ele>142.8</ele><time>2026-03-28T10:12:35Z</time></trkpt><trkpt lat="53.329473305468824" lon="14.650352773594927"><ele>141.60000000000002</ele><time>2026-03-28T10:12:37Z</time></trkpt><trkpt lat="53.329408482995596" lon="14.650443207415472"><ele>140.4</ele><time>2026-03-28T10:12:39Z</time></trkpt><trkpt lat="53.32931728978142" lon="14.650592044947533"><ele>139.20000000000002</ele><time>2026-03-28T10:12:41Z</time></trkpt><trkpt lat="53.32926375571809" lon="14.650681416654725"><ele>138.0</ele><time>2026-03-28T10:12:42Z</time></trkpt><trkpt lat="53.32919936269097" lon="14.650780439374849"><ele>138.0</ele><time>2026-03-28T10:12:44Z</time></trkpt><trkpt lat="53.32914351461156" lon="14.650870914578025"><ele>138.0</ele><time>2026-03-28T10:12:46Z</time></trkpt><trkpt lat="53.329083841490366" lon="14.650985151815082"><ele>138.0</ele><time>2026-03-28T10:12:48Z</time></trkpt><trkpt lat="53.3290302074079" lon="14.651088513842899"><ele>138.0</ele><time>2026-03-28T10:12:49Z</time></trkpt><trkpt lat="53.32897849271435" lon="14.651157520500817"><ele>138.0</ele><time>2026-03-28T10:12:50Z</time></trkpt><trkpt lat="53.32890946243925" lon="14.651229362344655"><ele>138.0</ele><time>2026-03-28T10:12:52Z</time></trkpt><trkpt lat="53.32882781137958" lon="14.651351124655337"><ele>137.75</ele><time>2026-03-28T10:12:54Z</time></trkpt><trkpt lat="53.32871707406506" lon="14.651423180401343"><ele>137.5</ele><time>2026-03-28T10:12:56Z</time></trkpt><trkpt lat="53.328612738873204" lon="14.651468118821594"><ele>137.25</ele><time>2026-03-28T10:12:58Z</time></trkpt><trkpt lat="53.328484890152126" lon="14.651513412738232"><ele>137.0</ele><time>2026-03-28T10:13:00Z</time></trkpt><trkpt lat="53.32839414076993" lon="14.651557045810884"><ele>137.0</ele><time>2026-03-28T10:13:02Z</time></trkpt><trkpt lat="53.32833282701526" lon="14.651650287865108"><ele>137.0</ele><time>2026-03-28T10:13:04Z</time></trkpt><trkpt lat="53.328279102978165" lon="14.65172751552372"><ele>137.0</ele><time>2026-03-28T10:13:05Z</time></trkpt><trkpt lat="53.328230418366765" lon="14.651828891952684"><ele>137.0</ele><time>2026-03-28T10:13:06Z</time></trkpt><trkpt lat="53.3281550508173" lon="14.65194314464115"><ele>137.0</ele><time>2026-03-28T10:13:07Z</time></trkpt><trkpt lat="53.32810906051745" lon="14.652022328070279"><ele>137.0</ele><time>2026-03-28T10:13:08Z</time></trkpt><trkpt lat="53.32804503748583" lon="14.652083836203305"><ele>138.4</ele><time>2026-03-28T10:13:09Z</time></trkpt><trkpt lat="53.32798015167268" lon="14.652142194795468"><ele>139.79999999999998</ele><time>2026-03-28T10:13:10Z</time></trkpt><trkpt lat="53.32792052372628" lon="14.652218454056072"><ele>141.2</ele><time>2026-03-28T10:13:11Z</time></trkpt><trkpt lat="53.32784064329418" lon="14.6523872365886"><ele>142.6</ele><time>2026-03-28T10:13:13Z</time></trkpt><trkpt lat="53.32778957016318" lon="14.652555525819764"><ele>144.0</ele><time>2026-03-28T10:13:15Z</time></trkpt><trkpt lat="53.32773606933087" lon="14.652691198939747"><ele>144.0</ele><time>2026-03-28T10:13:16Z</time></trkpt><trkpt lat="53.32769878955954" lon="14.65278412405045"><ele>144.0</ele><time>2026-03-28T10:13:17Z</time></trkpt><trkpt lat="53.32760579670715" lon="14.65296092649757"><ele>144.0</ele><time>2026-03-28T10:13:19Z</time></trkpt><trkpt lat="53.32754459074031" lon="14.653042841024352"><ele>144.0</ele><time>2026-03-28T10:13:20Z</time></trkpt><trkpt lat="53.32745774061214" lon="14.65317138793722"><ele>144.0</ele><time>2026-03-28T10:13:21Z</time></trkpt><trkpt lat="53.32739866937603" lon="14.653305167995656"><ele>144.0</ele><time>2026-03-28T10:13:22Z</time></trkpt><trkpt lat="53.32736085961274" lon="14.653403538451721"><ele>144.0</ele><time>2026-03-28T10:13:23Z</time></trkpt><trkpt lat="53.32729157695776" lon="14.653540932315822"><ele>144.0</ele><time>2026-03-28T10:13:24.999Z</time></trkpt><trkpt lat="53.327202237285846" lon="14.65361795719867"><ele>144.0</ele><time>2026-03-28T10:13:26.999Z</time></trkpt><trkpt lat="53.327114470230484" lon="14.653606632033492"><ele>144.0</ele><time>2026-03-28T10:13:28.999Z</time></trkpt><trkpt lat="53.32699915434471" lon="14.653562018316919"><ele>143.4</ele><time>2026-03-28T10:13:30.999Z</time></trkpt><trkpt lat="53.32689588873967" lon="14.653462886501343"><ele>142.8</ele><time>2026-03-28T10:13:32.999Z</time></trkpt><trkpt lat="53.32684916335567" lon="14.65338377823125"><ele>142.2</ele><time>2026-03-28T10:13:33.999Z</time></trkpt><trkpt lat="53.32677238223151" lon="14.653251407040743"><ele>141.6</ele><time>2026-03-28T10:13:35.999Z</time></trkpt><trkpt lat="53.32669785020735" lon="14.653142047247638"><ele>141.0</ele><time>2026-03-28T10:13:37.999Z</time></trkpt><trkpt lat="53.32659048496138" lon="14.65305344180655"><ele>141.0</ele><time>2026-03-28T10:13:39.999Z</time></trkpt><trkpt lat="53.326490270585786" lon="14.653017152364832"><ele>141.0</ele><time>2026-03-28T10:13:42Z</time></trkpt><trkpt lat="53.32638989286106" lon="14.652990659282636"><ele>141.0</ele><time>2026-03-28T10:13:44Z</time></trkpt><trkpt lat="53.32628673389708" lon="14.652935245018735"><ele>141.0</ele><time>2026-03-28T10:13:46Z</time></trkpt><trkpt lat="53.32620583811653" lon="14.652885559546096"><ele>141.0</ele><time>2026-03-28T10:13:48Z</time></trkpt><trkpt lat="53.32609991773136" lon="14.652819203497595"><ele>141.0</ele><time>2026-03-28T10:13:50Z</time></trkpt><trkpt lat="53.326021661669635" lon="14.65273197313955"><ele>141.0</ele><time>2026-03-28T10:13:52Z</time></trkpt><trkpt lat="53.32592415549442" lon="14.652683468050725"><ele>141.0</ele><time>2026-03-28T10:13:54Z</time></trkpt><trkpt lat="53.32582530985642" lon="14.652706173174442"><ele>141.0</ele><time>2026-03-28T10:13:56Z</time></trkpt><trkpt lat="53.325717238852995" lon="14.65279325328103"><ele>141.0</ele><time>2026-03-28T10:13:58Z</time></trkpt><trkpt lat="53.32563621230657" lon="14.652872385427306"><ele>141.0</ele><time>2026-03-28T10:14:00Z</time></trkpt><trkpt lat="53.32556426731099" lon="14.652969518231522"><ele>141.0</ele><time>2026-03-28T10:14:02Z</time></trkpt><trkpt lat="53.325512694001716" lon="14.653049311348804"><ele>141.0</ele><time>2026-03-28T10:14:04Z</time></trkpt><trkpt lat="53.325460838110295" lon="14.653151391557142"><ele>141.0</ele><time>2026-03-28T10:14:06Z</time></trkpt><trkpt lat="53.3254121767423" lon="14.653251895668918"><ele>141.0</ele><time>2026-03-28T10:14:08Z</time></trkpt><trkpt lat="53.32532982513142" lon="14.653374833127705"><ele>141.0</ele><time>2026-03-28T10:14:10Z</time></trkpt><trkpt lat="53.325221180809486" lon="14.653471445188474"><ele>140.16666666666666</ele><time>2026-03-28T10:14:12Z</time></trkpt><trkpt lat="53.32513944843083" lon="14.653563858344405"><ele>139.33333333333334</ele><time>2026-03-28T10:14:14Z</time></trkpt><trkpt lat="53.32506293292042" lon="14.65362243485541"><ele>138.5</ele><time>2026-03-28T10:14:16Z</time></trkpt><trkpt lat="53.324981458735024" lon="14.653680560022016"><ele>137.66666666666669</ele><time>2026-03-28T10:14:18Z</time></trkpt><trkpt lat="53.32490106137834" lon="14.65375640145907"><ele>136.83333333333334</ele><time>2026-03-28T10:14:20Z</time></trkpt><trkpt lat="53.32482360434046" lon="14.65381069513577"><ele>136.0</ele><time>2026-03-28T10:14:22Z</time></trkpt><trkpt lat="53.32475093021724" lon="14.653869929435796"><ele>133.85714285714283</ele><time>2026-03-28T10:14:25Z</time></trkpt><trkpt lat="53.32469552983154" lon="14.653930957609209"><ele>131.71428571428572</ele><time>2026-03-28T10:14:28Z</time></trkpt><trkpt lat="53.324615565693705" lon="14.653923523340335"><ele>129.57142857142856</ele><time>2026-03-28T10:14:32Z</time></trkpt><trkpt lat="53.32456564925284" lon="14.654007337001214"><ele>127.42857142857142</ele><time>2026-03-28T10:14:54Z</time></trkpt><trkpt lat="53.32455286035841" lon="14.654117462446314"><ele>125.28571428571428</ele><time>2026-03-28T10:15:08Z</time></trkpt><trkpt lat="53.324521873648216" lon="14.654239351255965"><ele>123.14285714285714</ele><time>2026-03-28T10:15:13Z</time></trkpt><trkpt lat="53.32450507984761" lon="14.654365165028503"><ele>121.0</ele><time>2026-03-28T10:16:30.001Z</time></trkpt><trkpt lat="53.324485226055316" lon="14.654468559766979"><ele>120.28571428571428</ele><time>2026-03-28T10:16:40.001Z</time></trkpt><trkpt lat="53.32443858359099" lon="14.65456268222523"><ele>119.57142857142856</ele><time>2026-03-28T10:16:57.001Z</time></trkpt><trkpt lat="53.32438493561238" lon="14.654628759220119"><ele>118.85714285714286</ele><time>2026-03-28T10:17:11.002Z</time></trkpt><trkpt lat="53.32432013047525" lon="14.654648455791083"><ele>118.14285714285714</ele><time>2026-03-28T10:18:22.002Z</time></trkpt><trkpt lat="53.324263693148396" lon="14.654590433054675"><ele>117.42857142857143</ele><time>2026-03-28T10:21:14.004Z</time></trkpt><trkpt lat="53.32419487667573" lon="14.654633234380249"><ele>116.71428571428572</ele><time>2026-03-28T10:21:44.004Z</time></trkpt><trkpt lat="53.32419583614621" lon="14.654757847262012"><ele>116.00000000000001</ele><time>2026-03-28T10:21:50.004Z</time></trkpt><trkpt lat="53.32417387246521" lon="14.654863883533082"><ele>115.99999999999999</ele><time>2026-03-28T10:21:56.004Z</time></trkpt><trkpt lat="53.32411266282156" lon="14.654934980081102"><ele>116.0</ele><time>2026-03-28T10:22:11.005Z</time></trkpt><trkpt lat="53.32402693559167" lon="14.654895234932749"><ele>116.0</ele><time>2026-03-28T10:22:38.005Z</time></trkpt><trkpt lat="53.32392654358779" lon="14.654824458166864"><ele>116.0</ele><time>2026-03-28T10:23:00.005Z</time></trkpt><trkpt lat="53.32384690745792" lon="14.65482635459671"><ele>115.99999999999999</ele><time>2026-03-28T10:23:06.005Z</time></trkpt><trkpt lat="53.32377509563683" lon="14.654851776265174"><ele>116.0</ele><time>2026-03-28T10:23:09.005Z</time></trkpt><trkpt lat="53.32371162869771" lon="14.65486011028701"><ele>116.0</ele><time>2026-03-28T10:23:14.005Z</time></trkpt><trkpt lat="53.3237485989999" lon="14.654771633284371"><ele>116.0</ele><time>2026-03-28T10:23:43.005Z</time></trkpt><trkpt lat="53.32391567315033" lon="14.654774175511847"><ele>116.0</ele><time>2026-03-28T10:24:10.006Z</time></trkpt><trkpt lat="53.3238515944008" lon="14.654736182188314"><ele>116.0</ele><time>2026-03-28T10:24:59.006Z</time></trkpt><trkpt lat="53.323767914509766" lon="14.654759913019927"><ele>116.0</ele><time>2026-03-28T10:25:53.007Z</time></trkpt><trkpt lat="53.32370488559391" lon="14.654718054947045"><ele>114.14285714285715</ele><time>2026-03-28T10:29:20.009Z</time></trkpt><trkpt lat="53.32367039607591" lon="14.654817107496632"><ele>112.28571428571429</ele><time>2026-03-28T10:30:17.009Z</time></trkpt><trkpt lat="53.32371384354255" lon="14.65492311216059"><ele>110.42857142857143</ele><time>2026-03-28T10:30:48.01Z</time></trkpt><trkpt lat="53.3238073948413" lon="14.654916565628293"><ele>108.57142857142858</ele><time>2026-03-28T10:32:35.011Z</time></trkpt><trkpt lat="53.3237444936983" lon="14.654884745757933"><ele>106.71428571428572</ele><time>2026-03-28T10:32:41.011Z</time></trkpt><trkpt lat="53.32374407178434" lon="14.654771112281908"><ele>104.85714285714285</ele><time>2026-03-28T10:32:50.011Z</time></trkpt><trkpt lat="53.32367502723475" lon="14.654775531276542"><ele>103.0</ele><time>2026-03-28T10:35:18.998Z</time></trkpt><trkpt lat="53.32358716960561" lon="14.65478372497685"><ele>103.00000000000001</ele><time>2026-03-28T10:35:31.998Z</time></trkpt><trkpt lat="53.32351406070721" lon="14.654819270836159"><ele>103.0</ele><time>2026-03-28T10:35:35.998Z</time></trkpt><trkpt lat="53.323451655761666" lon="14.65485306405824"><ele>103.0</ele><time>2026-03-28T10:35:40.998Z</time></trkpt><trkpt lat="53.32336199741688" lon="14.654805157831225"><ele>103.0</ele><time>2026-03-28T10:35:44.998Z</time></trkpt><trkpt lat="53.323318360003" lon="14.654638220105081"><ele>103.00000000000001</ele><time>2026-03-28T10:35:46.998Z</time></trkpt><trkpt lat="53.323279798175804" lon="14.654496599086569"><ele>103.0</ele><time>2026-03-28T10:35:49.998Z</time></trkpt><trkpt lat="53.32324553698002" lon="14.65440227510662"><ele>102.4</ele><time>2026-03-28T10:35:52.998Z</time></trkpt><trkpt lat="53.323226842963784" lon="14.65427084512462"><ele>101.80000000000001</ele><time>2026-03-28T10:35:54.998Z</time></trkpt><trkpt lat="53.32317607009763" lon="14.65406858199915"><ele>101.2</ele><time>2026-03-28T10:35:56.998Z</time></trkpt><trkpt lat="53.323153372141725" lon="14.653954304675029"><ele>100.6</ele><time>2026-03-28T10:35:57.998Z</time></trkpt><trkpt lat="53.32312071376546" lon="14.653793350852741"><ele>100.0</ele><time>2026-03-28T10:35:58.998Z</time></trkpt><trkpt lat="53.32309130354115" lon="14.65358396180875"><ele>99.50000000000001</ele><time>2026-03-28T10:36:00.998Z</time></trkpt><trkpt lat="53.32307268452993" lon="14.653449842609804"><ele>99.0</ele><time>2026-03-28T10:36:01.998Z</time></trkpt><trkpt lat="53.32303793259455" lon="14.653332690006582"><ele>98.5</ele><time>2026-03-28T10:36:02.998Z</time></trkpt><trkpt lat="53.3230200793226" lon="14.653221623514733"><ele>98.0</ele><time>2026-03-28T10:36:03.998Z</time></trkpt><trkpt lat="53.323011394193486" lon="14.653101375900189"><ele>97.50000000000001</ele><time>2026-03-28T10:36:04.998Z</time></trkpt><trkpt lat="53.32301819634496" lon="14.652976491129458"><ele>97.0</ele><time>2026-03-28T10:36:05.998Z</time></trkpt><trkpt lat="53.32300793625598" lon="14.65285427763812"><ele>95.6</ele><time>2026-03-28T10:36:06.998Z</time></trkpt><trkpt lat="53.32300539988931" lon="14.652671250260527"><ele>94.19999999999999</ele><time>2026-03-28T10:36:08.998Z</time></trkpt><trkpt lat="53.32300509689899" lon="14.652540060468137"><ele>92.8</ele><time>2026-03-28T10:36:11.998Z</time></trkpt><trkpt lat="53.32295420386409" lon="14.652445749735028"><ele>91.4</ele><time>2026-03-28T10:36:25.998Z</time></trkpt><trkpt lat="53.322947995873776" lon="14.652259535535519"><ele>90.0</ele><time>2026-03-28T10:36:27.998Z</time></trkpt><trkpt lat="53.322956576167776" lon="14.65213075743388"><ele>90.0</ele><time>2026-03-28T10:36:28.998Z</time></trkpt><trkpt lat="53.32294779065004" lon="14.651976079129074"><ele>90.0</ele><time>2026-03-28T10:36:29.996Z</time></trkpt><trkpt lat="53.32292863371153" lon="14.651799083868141"><ele>90.0</ele><time>2026-03-28T10:36:30.996Z</time></trkpt><trkpt lat="53.32292989154823" lon="14.651619603160935"><ele>90.0</ele><time>2026-03-28T10:36:31.996Z</time></trkpt><trkpt lat="53.32292702035332" lon="14.65149543788078"><ele>90.0</ele><time>2026-03-28T10:36:32.997Z</time></trkpt><trkpt lat="53.3229120906468" lon="14.651342867193566"><ele>89.16666666666667</ele><time>2026-03-28T10:36:33.996Z</time></trkpt><trkpt lat="53.32290658762128" lon="14.651235316241426"><ele>88.33333333333333</ele><time>2026-03-28T10:36:34.996Z</time></trkpt><trkpt lat="53.32290172418682" lon="14.651118486244025"><ele>87.5</ele><time>2026-03-28T10:36:35.996Z</time></trkpt><trkpt lat="53.322885835434704" lon="14.650959050510213"><ele>86.66666666666666</ele><time>2026-03-28T10:36:36.996Z</time></trkpt><trkpt lat="53.322902978476066" lon="14.650794100572385"><ele>85.83333333333333</ele><time>2026-03-28T10:36:37.996Z</time></trkpt><trkpt lat="53.322902004453205" lon="14.65061474250173"><ele>85.0</ele><time>2026-03-28T10:36:38.996Z</time></trkpt><trkpt lat="53.32290416369626" lon="14.650430253041028"><ele>84.6</ele><time>2026-03-28T10:36:39.996Z</time></trkpt><trkpt lat="53.3229017095635" lon="14.650270026486416"><ele>84.2</ele><time>2026-03-28T10:36:40.996Z</time></trkpt><trkpt lat="53.32290218773617" lon="14.650106785798673"><ele>83.80000000000001</ele><time>2026-03-28T10:36:41.996Z</time></trkpt><trkpt lat="53.32289168625271" lon="14.649934121224101"><ele>83.4</ele><time>2026-03-28T10:36:42.996Z</time></trkpt><trkpt lat="53.32288994891613" lon="14.649749097680367"><ele>83.0</ele><time>2026-03-28T10:36:43.996Z</time></trkpt><trkpt lat="53.322873314362795" lon="14.64959974879873"><ele>82.80000000000001</ele><time>2026-03-28T10:36:44.996Z</time></trkpt><trkpt lat="53.32286360630872" lon="14.649441682851501"><ele>82.6</ele><time>2026-03-28T10:36:45.996Z</time></trkpt><trkpt lat="53.322874621981676" lon="14.64927026569414"><ele>82.4</ele><time>2026-03-28T10:36:46.996Z</time></trkpt><trkpt lat="53.322870828575056" lon="14.649103337292644"><ele>82.19999999999999</ele><time>2026-03-28T10:36:47.996Z</time></trkpt><trkpt lat="53.32286999616641" lon="14.648927585505652"><ele>82.0</ele><time>2026-03-28T10:36:48.996Z</time></trkpt><trkpt lat="53.32286861135765" lon="14.648776901305327"><ele>82.0</ele><time>2026-03-28T10:36:49.996Z</time></trkpt><trkpt lat="53.32287424296709" lon="14.648640410661887"><ele>82.0</ele><time>2026-03-28T10:36:50.996Z</time></trkpt><trkpt lat="53.32287186915021" lon="14.648526289831958"><ele>82.0</ele><time>2026-03-28T10:36:51.996Z</time></trkpt><trkpt lat="53.32287759530914" lon="14.648413912819777"><ele>82.0</ele><time>2026-03-28T10:36:52.996Z</time></trkpt><trkpt lat="53.32287641408329" lon="14.648189582924203"><ele>82.0</ele><time>2026-03-28T10:36:54.996Z</time></trkpt><trkpt lat="53.32290321272703" lon="14.648029708468785"><ele>81.57142857142857</ele><time>2026-03-28T10:36:56.996Z</time></trkpt><trkpt lat="53.322942251218855" lon="14.647922854667714"><ele>81.14285714285714</ele><time>2026-03-28T10:37:00.996Z</time></trkpt><trkpt lat="53.32293746793448" lon="14.64779804551236"><ele>80.71428571428572</ele><time>2026-03-28T10:37:04.996Z</time></trkpt><trkpt lat="53.32291087207148" lon="14.647898847089893"><ele>80.28571428571428</ele><time>2026-03-28T10:37:09.996Z</time></trkpt><trkpt lat="53.32290900576405" lon="14.648016083991761"><ele>79.85714285714286</ele><time>2026-03-28T10:37:11.996Z</time></trkpt><trkpt lat="53.322908763823065" lon="14.64812710708253"><ele>79.42857142857143</ele><time>2026-03-28T10:37:12.996Z</time></trkpt><trkpt lat="53.322895171432314" lon="14.648248642901152"><ele>79.0</ele><time>2026-03-28T10:37:13.996Z</time></trkpt><trkpt lat="53.32286928032916" lon="14.648535251717883"><ele>79.5</ele><time>2026-03-28T10:37:15.996Z</time></trkpt><trkpt lat="53.322871970766585" lon="14.64866980528212"><ele>80.0</ele><time>2026-03-28T10:37:16.996Z</time></trkpt><trkpt lat="53.322874558052135" lon="14.648793881336848"><ele>80.5</ele><time>2026-03-28T10:37:17.996Z</time></trkpt><trkpt lat="53.32287738531019" lon="14.648947796872205"><ele>81.0</ele><time>2026-03-28T10:37:18.996Z</time></trkpt><trkpt lat="53.32286951287419" lon="14.649091522552142"><ele>81.5</ele><time>2026-03-28T10:37:19.996Z</time></trkpt><trkpt lat="53.322870326969635" lon="14.649255345546104"><ele>82.0</ele><time>2026-03-28T10:37:20.996Z</time></trkpt><trkpt lat="53.322872187139204" lon="14.649410329967168"><ele>82.19999999999999</ele><time>2026-03-28T10:37:21.996Z</time></trkpt><trkpt lat="53.3228880641247" lon="14.649555575978289"><ele>82.4</ele><time>2026-03-28T10:37:22.996Z</time></trkpt><trkpt lat="53.32289694159572" lon="14.64971422046897"><ele>82.6</ele><time>2026-03-28T10:37:23.996Z</time></trkpt><trkpt lat="53.32289834238834" lon="14.64985988588425"><ele>82.80000000000001</ele><time>2026-03-28T10:37:24.996Z</time></trkpt><trkpt lat="53.322919040987315" lon="14.650054137548262"><ele>83.0</ele><time>2026-03-28T10:37:25.996Z</time></trkpt><trkpt lat="53.32292724848161" lon="14.650275045285293"><ele>83.0</ele><time>2026-03-28T10:37:26.996Z</time></trkpt><trkpt lat="53.3229254744021" lon="14.650525241692984"><ele>83.0</ele><time>2026-03-28T10:37:27.996Z</time></trkpt><trkpt lat="53.322929271299024" lon="14.650767934146117"><ele>83.0</ele><time>2026-03-28T10:37:28.996Z</time></trkpt><trkpt lat="53.32292958558349" lon="14.65101523136755"><ele>83.0</ele><time>2026-03-28T10:37:29.996Z</time></trkpt><trkpt lat="53.322951959958445" lon="14.65123936056249"><ele>83.5</ele><time>2026-03-28T10:37:30.996Z</time></trkpt><trkpt lat="53.32297801314224" lon="14.651457452124381"><ele>84.0</ele><time>2026-03-28T10:37:31.996Z</time></trkpt><trkpt lat="53.32299376101623" lon="14.651669448224622"><ele>84.5</ele><time>2026-03-28T10:37:32.996Z</time></trkpt><trkpt lat="53.322991038011935" lon="14.651869440557826"><ele>85.0</ele><time>2026-03-28T10:37:33.996Z</time></trkpt><trkpt lat="53.322991571026236" lon="14.652057516166392"><ele>85.83333333333333</ele><time>2026-03-28T10:37:34.996Z</time></trkpt><trkpt lat="53.322994865805406" lon="14.652231739848629"><ele>86.66666666666666</ele><time>2026-03-28T10:37:35.996Z</time></trkpt><trkpt lat="53.32299070288566" lon="14.652383679085256"><ele>87.5</ele><time>2026-03-28T10:37:36.996Z</time></trkpt><trkpt lat="53.322986579398304" lon="14.652505814973964"><ele>88.33333333333333</ele><time>2026-03-28T10:37:37.996Z</time></trkpt><trkpt lat="53.32298599347643" lon="14.652656752510362"><ele>89.16666666666667</ele><time>2026-03-28T10:37:39.996Z</time></trkpt><trkpt lat="53.32295102890428" lon="14.652768930720729"><ele>90.0</ele><time>2026-03-28T10:37:45.996Z</time></trkpt><trkpt lat="53.32288877208305" lon="14.652789627257613"><ele>90.33333333333333</ele><time>2026-03-28T10:37:48.997Z</time></trkpt><trkpt lat="53.3228197636891" lon="14.652894629487976"><ele>90.66666666666667</ele><time>2026-03-28T10:37:53.997Z</time></trkpt><trkpt lat="53.3227647804322" lon="14.653001260423482"><ele>91.0</ele><time>2026-03-28T10:37:56.997Z</time></trkpt><trkpt lat="53.322718376693956" lon="14.653099284290093"><ele>91.33333333333334</ele><time>2026-03-28T10:37:59.997Z</time></trkpt><trkpt lat="53.32267363446944" lon="14.653194909798103"><ele>91.66666666666667</ele><time>2026-03-28T10:38:01.997Z</time></trkpt><trkpt lat="53.322626718909376" lon="14.653272725890092"><ele>92.0</ele><time>2026-03-28T10:38:03.997Z</time></trkpt><trkpt lat="53.32255094919395" lon="14.65334545735855"><ele>92.0</ele><time>2026-03-28T10:38:06.997Z</time></trkpt><trkpt lat="53.32247938785096" lon="14.653455422180297"><ele>92.0</ele><time>2026-03-28T10:38:09.997Z</time></trkpt><trkpt lat="53.322423869153674" lon="14.653565760689402"><ele>92.0</ele><time>2026-03-28T10:38:11.997Z</time></trkpt><trkpt lat="53.322358175365956" lon="14.65368808728908"><ele>92.0</ele><time>2026-03-28T10:38:13.997Z</time></trkpt><trkpt lat="53.3222948288124" lon="14.6537608042483"><ele>92.0</ele><time>2026-03-28T10:38:15.997Z</time></trkpt><trkpt lat="53.322226338480554" lon="14.65382669217542"><ele>92.0</ele><time>2026-03-28T10:38:17.997Z</time></trkpt><trkpt lat="53.322180140267" lon="14.653907747954571"><ele>92.33333333333334</ele><time>2026-03-28T10:38:19.997Z</time></trkpt><trkpt lat="53.3221295303572" lon="14.654054025381486"><ele>92.66666666666667</ele><time>2026-03-28T10:38:21.997Z</time></trkpt><trkpt lat="53.32209867776029" lon="14.654164428720572"><ele>93.0</ele><time>2026-03-28T10:38:23.997Z</time></trkpt><trkpt lat="53.322069497107435" lon="14.654259033079398"><ele>93.33333333333333</ele><time>2026-03-28T10:38:29.997Z</time></trkpt><trkpt lat="53.32203447136057" lon="14.654372758554642"><ele>93.66666666666666</ele><time>2026-03-28T10:38:37.995Z</time></trkpt><trkpt lat="53.32196338719963" lon="14.654400103147792"><ele>94.0</ele><time>2026-03-28T10:38:51.995Z</time></trkpt><trkpt lat="53.32190069073104" lon="14.654458100414637"><ele>94.42857142857143</ele><time>2026-03-28T10:39:34.995Z</time></trkpt><trkpt lat="53.32189022562082" lon="14.65456512202458"><ele>94.85714285714286</ele><time>2026-03-28T10:39:36.995Z</time></trkpt><trkpt lat="53.3218565371492" lon="14.654670333675272"><ele>95.28571428571428</ele><time>2026-03-28T10:39:38.995Z</time></trkpt><trkpt lat="53.32181131351659" lon="14.654787551905908"><ele>95.71428571428572</ele><time>2026-03-28T10:39:40.995Z</time></trkpt><trkpt lat="53.321773363822814" lon="14.654895914999441"><ele>96.14285714285715</ele><time>2026-03-28T10:39:42.995Z</time></trkpt><trkpt lat="53.32174879621941" lon="14.654994918079957"><ele>96.57142857142857</ele><time>2026-03-28T10:39:44.995Z</time></trkpt><trkpt lat="53.32173689878173" lon="14.655132506557324"><ele>97.0</ele><time>2026-03-28T10:39:46.995Z</time></trkpt><trkpt lat="53.32173686686766" lon="14.655243383182086"><ele>98.16666666666667</ele><time>2026-03-28T10:39:47.995Z</time></trkpt><trkpt lat="53.32172231986421" lon="14.655367526624778"><ele>99.33333333333334</ele><time>2026-03-28T10:39:48.995Z</time></trkpt><trkpt lat="53.32168915881724" lon="14.655480542881214"><ele>100.5</ele><time>2026-03-28T10:39:50.995Z</time></trkpt><trkpt lat="53.321650274947615" lon="14.655572154532203"><ele>101.66666666666666</ele><time>2026-03-28T10:39:51.995Z</time></trkpt><trkpt lat="53.32162270576495" lon="14.655669361270911"><ele>102.83333333333333</ele><time>2026-03-28T10:39:52.995Z</time></trkpt><trkpt lat="53.32157625376752" lon="14.655781537054654"><ele>104.0</ele><time>2026-03-28T10:39:54.995Z</time></trkpt><trkpt lat="53.321542484308885" lon="14.655934402621215"><ele>103.99999999999999</ele><time>2026-03-28T10:39:56.995Z</time></trkpt><trkpt lat="53.32151081072302" lon="14.656051678443921"><ele>104.0</ele><time>2026-03-28T10:39:58.995Z</time></trkpt><trkpt lat="53.32148273677684" lon="14.656155367175895"><ele>104.0</ele><time>2026-03-28T10:40:00.995Z</time></trkpt><trkpt lat="53.321457777545056" lon="14.656294206814398"><ele>104.0</ele><time>2026-03-28T10:40:02.995Z</time></trkpt><trkpt lat="53.321429063812815" lon="14.656439356847846"><ele>103.99999999999999</ele><time>2026-03-28T10:40:04.996Z</time></trkpt><trkpt lat="53.321398769234634" lon="14.656533350742878"><ele>104.0</ele><time>2026-03-28T10:40:06.996Z</time></trkpt><trkpt lat="53.32136082943385" lon="14.656649662484115"><ele>102.49999999999999</ele><time>2026-03-28T10:40:09.996Z</time></trkpt><trkpt lat="53.321330326571484" lon="14.656793126309335"><ele>101.0</ele><time>2026-03-28T10:40:12.996Z</time></trkpt><trkpt lat="53.32129987518667" lon="14.656936315475876"><ele>99.5</ele><time>2026-03-28T10:40:15.996Z</time></trkpt><trkpt lat="53.3212910087637" lon="14.657040981806755"><ele>98.0</ele><time>2026-03-28T10:40:17.996Z</time></trkpt><trkpt lat="53.32130003962899" lon="14.65715807341261"><ele>96.5</ele><time>2026-03-28T10:40:19.996Z</time></trkpt><trkpt lat="53.32125231288747" lon="14.657238934759075"><ele>95.0</ele><time>2026-03-28T10:40:21.996Z</time></trkpt><trkpt lat="53.32121319935072" lon="14.657330502491659"><ele>94.6</ele><time>2026-03-28T10:40:25.996Z</time></trkpt><trkpt lat="53.321169115166605" lon="14.657450979948761"><ele>94.2</ele><time>2026-03-28T10:40:29.996Z</time></trkpt><trkpt lat="53.32114207067372" lon="14.657563680868652"><ele>93.80000000000001</ele><time>2026-03-28T10:40:31.996Z</time></trkpt><trkpt lat="53.32110997365075" lon="14.657723487884542"><ele>93.4</ele><time>2026-03-28T10:40:33.996Z</time></trkpt><trkpt lat="53.32109616571938" lon="14.657855003348363"><ele>93.0</ele><time>2026-03-28T10:40:35.996Z</time></trkpt><trkpt lat="53.321063400746716" lon="14.658121953463343"><ele>92.83333333333333</ele><time>2026-03-28T10:40:37.996Z</time></trkpt><trkpt lat="53.32106566901588" lon="14.658248296752197"><ele>92.66666666666667</ele><time>2026-03-28T10:40:38.996Z</time></trkpt><trkpt lat="53.32103795966342" lon="14.658398227867313"><ele>92.5</ele><time>2026-03-28T10:40:39.996Z</time></trkpt><trkpt lat="53.32101415907191" lon="14.658522180424235"><ele>92.33333333333334</ele><time>2026-03-28T10:40:40.996Z</time></trkpt><trkpt lat="53.32100529086122" lon="14.658634076049223"><ele>92.16666666666667</ele><time>2026-03-28T10:40:41.995Z</time></trkpt><trkpt lat="53.32098921824992" lon="14.658741384060956"><ele>92.0</ele><time>2026-03-28T10:40:42.994Z</time></trkpt><trkpt lat="53.320947720903206" lon="14.658880783951371"><ele>92.0</ele><time>2026-03-28T10:40:43.994Z</time></trkpt><trkpt lat="53.32091179069525" lon="14.659082259643148"><ele>92.0</ele><time>2026-03-28T10:40:45.995Z</time></trkpt><trkpt lat="53.320865278418374" lon="14.659238009220918"><ele>92.0</ele><time>2026-03-28T10:40:47.994Z</time></trkpt><trkpt lat="53.320826441076484" lon="14.659337844660588"><ele>92.0</ele><time>2026-03-28T10:40:48.995Z</time></trkpt><trkpt lat="53.32077260643907" lon="14.659463698229496"><ele>92.0</ele><time>2026-03-28T10:40:49.995Z</time></trkpt><trkpt lat="53.320734827695176" lon="14.659551963174414"><ele>92.8</ele><time>2026-03-28T10:40:50.994Z</time></trkpt><trkpt lat="53.32067988356027" lon="14.659604929302956"><ele>93.6</ele><time>2026-03-28T10:40:51.994Z</time></trkpt><trkpt lat="53.320584290364025" lon="14.659766867757305"><ele>94.39999999999999</ele><time>2026-03-28T10:40:53.995Z</time></trkpt><trkpt lat="53.32053893169194" lon="14.65994157522177"><ele>95.19999999999999</ele><time>2026-03-28T10:40:55.994Z</time></trkpt><trkpt lat="53.320497191567334" lon="14.660078979672459"><ele>96.0</ele><time>2026-03-28T10:40:57.994Z</time></trkpt><trkpt lat="53.32047578872516" lon="14.66022413777992"><ele>93.8</ele><time>2026-03-28T10:40:59.994Z</time></trkpt><trkpt lat="53.32049974888048" lon="14.660352701947254"><ele>91.6</ele><time>2026-03-28T10:41:02.994Z</time></trkpt><trkpt lat="53.320484138294965" lon="14.660491235591458"><ele>89.4</ele><time>2026-03-28T10:41:04.994Z</time></trkpt><trkpt lat="53.3204480762035" lon="14.660592637287708"><ele>87.2</ele><time>2026-03-28T10:41:05.994Z</time></trkpt><trkpt lat="53.32041677389646" lon="14.660745353095937"><ele>85.0</ele><time>2026-03-28T10:41:07.994Z</time></trkpt><trkpt lat="53.32039412836283" lon="14.660941075721762"><ele>85.0</ele><time>2026-03-28T10:41:09.994Z</time></trkpt><trkpt lat="53.320342920980345" lon="14.661099984282837"><ele>85.0</ele><time>2026-03-28T10:41:11.994Z</time></trkpt><trkpt lat="53.32032880868193" lon="14.661236588704314"><ele>85.0</ele><time>2026-03-28T10:41:13.994Z</time></trkpt><trkpt lat="53.3203069260127" lon="14.661433143209887"><ele>85.0</ele><time>2026-03-28T10:41:15.994Z</time></trkpt><trkpt lat="53.32030058927977" lon="14.661573142916412"><ele>85.0</ele><time>2026-03-28T10:41:16.994Z</time></trkpt><trkpt lat="53.320295287445234" lon="14.661695688969912"><ele>85.0</ele><time>2026-03-28T10:41:17.994Z</time></trkpt><trkpt lat="53.32028274890477" lon="14.6618512692011"><ele>85.0</ele><time>2026-03-28T10:41:18.994Z</time></trkpt><trkpt lat="53.320267026286004" lon="14.66198613430521"><ele>85.0</ele><time>2026-03-28T10:41:19.994Z</time></trkpt><trkpt lat="53.32023334295412" lon="14.66218823528349"><ele>85.0</ele><time>2026-03-28T10:41:21.994Z</time></trkpt><trkpt lat="53.32019198940937" lon="14.662360047716435"><ele>85.0</ele><time>2026-03-28T10:41:23.994Z</time></trkpt><trkpt lat="53.32017777893758" lon="14.662481652514925"><ele>85.4</ele><time>2026-03-28T10:41:25.994Z</time></trkpt><trkpt lat="53.32014884544824" lon="14.662587449579881"><ele>85.8</ele><time>2026-03-28T10:41:27.994Z</time></trkpt><trkpt lat="53.32012110119565" lon="14.662814240783755"><ele>86.19999999999999</ele><time>2026-03-28T10:41:29.994Z</time></trkpt><trkpt lat="53.32010465699244" lon="14.662940123359506"><ele>86.6</ele><time>2026-03-28T10:41:30.994Z</time></trkpt><trkpt lat="53.320075521577145" lon="14.663107066904065"><ele>87.0</ele><time>2026-03-28T10:41:32.994Z</time></trkpt><trkpt lat="53.320062785386504" lon="14.663216393941008"><ele>87.33333333333333</ele><time>2026-03-28T10:41:33.994Z</time></trkpt><trkpt lat="53.3200407946868" lon="14.663351985386136"><ele>87.66666666666667</ele><time>2026-03-28T10:41:35.994Z</time></trkpt><trkpt lat="53.3200108421179" lon="14.663488978325649"><ele>88.0</ele><time>2026-03-28T10:41:37.994Z</time></trkpt><trkpt lat="53.319988893545634" lon="14.663613670193499"><ele>88.33333333333334</ele><time>2026-03-28T10:41:39.994Z</time></trkpt><trkpt lat="53.319967145170004" lon="14.663744777054923"><ele>88.66666666666667</ele><time>2026-03-28T10:41:41.994Z</time></trkpt><trkpt lat="53.31994093973718" lon="14.663911051926076"><ele>89.0</ele><time>2026-03-28T10:41:43.994Z</time></trkpt><trkpt lat="53.319899251746556" lon="14.66406408849469"><ele>89.33333333333334</ele><time>2026-03-28T10:41:45.995Z</time></trkpt><trkpt lat="53.31988008512723" lon="14.664195872174366"><ele>89.66666666666667</ele><time>2026-03-28T10:41:46.995Z</time></trkpt><trkpt lat="53.31985566323369" lon="14.664297839353276"><ele>90.0</ele><time>2026-03-28T10:41:47.995Z</time></trkpt><trkpt lat="53.31982925475442" lon="14.664411071960176"><ele>90.33333333333333</ele><time>2026-03-28T10:41:48.995Z</time></trkpt><trkpt lat="53.31981477684296" lon="14.664586086739106"><ele>90.66666666666666</ele><time>2026-03-28T10:41:50.995Z</time></trkpt><trkpt lat="53.31978176503229" lon="14.664785656918191"><ele>91.0</ele><time>2026-03-28T10:41:52.995Z</time></trkpt><trkpt lat="53.31974843748498" lon="14.664923505832018"><ele>89.8</ele><time>2026-03-28T10:41:54.995Z</time></trkpt><trkpt lat="53.319717937034056" lon="14.66502741880004"><ele>88.6</ele><time>2026-03-28T10:41:55.995Z</time></trkpt><trkpt lat="53.319667105984024" lon="14.665149114998073"><ele>87.4</ele><time>2026-03-28T10:41:56.995Z</time></trkpt><trkpt lat="53.31957873062308" lon="14.66532443799395"><ele>86.2</ele><time>2026-03-28T10:41:58.995Z</time></trkpt><trkpt lat="53.319533495297115" lon="14.665402796338318"><ele>85.0</ele><time>2026-03-28T10:41:59.995Z</time></trkpt><trkpt lat="53.31946199013369" lon="14.665536549384502"><ele>85.0</ele><time>2026-03-28T10:42:01.995Z</time></trkpt><trkpt lat="53.3194013868378" lon="14.665598973438707"><ele>85.0</ele><time>2026-03-28T10:42:03.995Z</time></trkpt><trkpt lat="53.31934028931403" lon="14.665671670119213"><ele>85.0</ele><time>2026-03-28T10:42:04.995Z</time></trkpt><trkpt lat="53.319250887621884" lon="14.665779818519999"><ele>85.0</ele><time>2026-03-28T10:42:05.995Z</time></trkpt><trkpt lat="53.31917265332898" lon="14.665859242639435"><ele>85.0</ele><time>2026-03-28T10:42:06.995Z</time></trkpt><trkpt lat="53.31911180796064" lon="14.665922264232377"><ele>85.0</ele><time>2026-03-28T10:42:07.995Z</time></trkpt><trkpt lat="53.31905732261773" lon="14.666000951292357"><ele>85.0</ele><time>2026-03-28T10:42:09.995Z</time></trkpt><trkpt lat="53.318976522377696" lon="14.666088851945046"><ele>85.0</ele><time>2026-03-28T10:42:11.995Z</time></trkpt><trkpt lat="53.318935751922275" lon="14.666192386055469"><ele>85.0</ele><time>2026-03-28T10:42:14.995Z</time></trkpt><trkpt lat="53.318962754478164" lon="14.666320164352145"><ele>85.0</ele><time>2026-03-28T10:42:16.995Z</time></trkpt><trkpt lat="53.319015791090905" lon="14.666428966987606"><ele>85.0</ele><time>2026-03-28T10:42:18.995Z</time></trkpt><trkpt lat="53.31906918165293" lon="14.666531956863285"><ele>85.0</ele><time>2026-03-28T10:42:21.995Z</time></trkpt><trkpt lat="53.31913259955866" lon="14.66666076495568"><ele>86.16666666666666</ele><time>2026-03-28T10:42:23.995Z</time></trkpt><trkpt lat="53.319186338176834" lon="14.666741882281787"><ele>87.33333333333333</ele><time>2026-03-28T10:42:25.995Z</time></trkpt><trkpt lat="53.319242864346094" lon="14.66684792093498"><ele>88.5</ele><time>2026-03-28T10:42:27.995Z</time></trkpt><trkpt lat="53.31928975383323" lon="14.666982685716468"><ele>89.66666666666667</ele><time>2026-03-28T10:42:29.995Z</time></trkpt><trkpt lat="53.31934534468402" lon="14.667062997495444"><ele>90.83333333333334</ele><time>2026-03-28T10:42:31.995Z</time></trkpt><trkpt lat="53.319406871152225" lon="14.667155454126455"><ele>92.0</ele><time>2026-03-28T10:42:33.995Z</time></trkpt><trkpt lat="53.31946378906167" lon="14.66723010014238"><ele>92.16666666666667</ele><time>2026-03-28T10:42:37.995Z</time></trkpt><trkpt lat="53.319464998187264" lon="14.66735106241489"><ele>92.33333333333334</ele><time>2026-03-28T10:42:40.995Z</time></trkpt><trkpt lat="53.319485829140184" lon="14.667501827276322"><ele>92.5</ele><time>2026-03-28T10:42:43.995Z</time></trkpt><trkpt lat="53.31949414861523" lon="14.667622648515888"><ele>92.66666666666667</ele><time>2026-03-28T10:42:45.995Z</time></trkpt><trkpt lat="53.31956455034182" lon="14.667709741494964"><ele>92.83333333333333</ele><time>2026-03-28T10:42:47.994Z</time></trkpt><trkpt lat="53.31965247206697" lon="14.66771253970874"><ele>93.0</ele><time>2026-03-28T10:42:50.994Z</time></trkpt><trkpt lat="53.3197205543551" lon="14.667761553616062"><ele>93.83333333333333</ele><time>2026-03-28T10:42:52.993Z</time></trkpt><trkpt lat="53.31978618148453" lon="14.667810466827389"><ele>94.66666666666666</ele><time>2026-03-28T10:42:55.994Z</time></trkpt><trkpt lat="53.319860367188454" lon="14.667887246255878"><ele>95.5</ele><time>2026-03-28T10:42:58.994Z</time></trkpt><trkpt lat="53.31992916641373" lon="14.667961442614699"><ele>96.33333333333333</ele><time>2026-03-28T10:43:02.994Z</time></trkpt><trkpt lat="53.31999329061214" lon="14.667937326026747"><ele>97.16666666666666</ele><time>2026-03-28T10:43:06.994Z</time></trkpt><trkpt lat="53.32007085253176" lon="14.667933985500467"><ele>98.0</ele><time>2026-03-28T10:43:09.994Z</time></trkpt><trkpt lat="53.320105111675204" lon="14.668040025392914"><ele>98.0</ele><time>2026-03-28T10:43:13.994Z</time></trkpt><trkpt lat="53.32015347076207" lon="14.668126601450737"><ele>98.0</ele><time>2026-03-28T10:43:16.994Z</time></trkpt><trkpt lat="53.320209408229715" lon="14.668202575621713"><ele>98.0</ele><time>2026-03-28T10:43:20.994Z</time></trkpt><trkpt lat="53.3202713964095" lon="14.668227213223906"><ele>98.0</ele><time>2026-03-28T10:43:22.994Z</time></trkpt><trkpt lat="53.32035666418481" lon="14.668229087501587"><ele>98.0</ele><time>2026-03-28T10:43:25.994Z</time></trkpt><trkpt lat="53.32041632931254" lon="14.668281048896242"><ele>98.0</ele><time>2026-03-28T10:43:27.994Z</time></trkpt><trkpt lat="53.32040965966945" lon="14.66840464666803"><ele>98.0</ele><time>2026-03-28T10:43:29.994Z</time></trkpt><trkpt lat="53.320393016622965" lon="14.66854768414225"><ele>97.66666666666666</ele><time>2026-03-28T10:43:31.994Z</time></trkpt><trkpt lat="53.32036359919085" lon="14.668675011277132"><ele>97.33333333333333</ele><time>2026-03-28T10:43:33.994Z</time></trkpt><trkpt lat="53.32029933504846" lon="14.668807423343752"><ele>97.0</ele><time>2026-03-28T10:43:36.994Z</time></trkpt><trkpt lat="53.320256485532106" lon="14.66889432063931"><ele>96.66666666666666</ele><time>2026-03-28T10:43:38.994Z</time></trkpt><trkpt lat="53.32023911813005" lon="14.669032881731242"><ele>96.33333333333333</ele><time>2026-03-28T10:43:41.994Z</time></trkpt><trkpt lat="53.320233872024836" lon="14.669180658198227"><ele>96.0</ele><time>2026-03-28T10:43:44.994Z</time></trkpt><trkpt lat="53.320220773849385" lon="14.669304178134505"><ele>96.0</ele><time>2026-03-28T10:43:47.994Z</time></trkpt><trkpt lat="53.320180586112244" lon="14.669417243456223"><ele>96.0</ele><time>2026-03-28T10:43:50.994Z</time></trkpt><trkpt lat="53.32005424094206" lon="14.669538982798167"><ele>96.0</ele><time>2026-03-28T10:43:52.994Z</time></trkpt><trkpt lat="53.319974090670044" lon="14.669682430093124"><ele>96.0</ele><time>2026-03-28T10:43:54.994Z</time></trkpt><trkpt lat="53.31989009402264" lon="14.669842542504492"><ele>95.99999999999999</ele><time>2026-03-28T10:43:56.994Z</time></trkpt><trkpt lat="53.31983613908109" lon="14.669901547359997"><ele>96.0</ele><time>2026-03-28T10:43:57.994Z</time></trkpt><trkpt lat="53.31977636951288" lon="14.66994751809837"><ele>96.0</ele><time>2026-03-28T10:43:58.994Z</time></trkpt><trkpt lat="53.319716733302094" lon="14.669983771562443"><ele>96.0</ele><time>2026-03-28T10:43:59.994Z</time></trkpt><trkpt lat="53.31963448038541" lon="14.670056788555545"><ele>96.0</ele><time>2026-03-28T10:44:01.994Z</time></trkpt><trkpt lat="53.319552574313654" lon="14.670093042696204"><ele>95.99999999999999</ele><time>2026-03-28T10:44:03.994Z</time></trkpt><trkpt lat="53.31948790954295" lon="14.670135993116538"><ele>96.0</ele><time>2026-03-28T10:44:07.995Z</time></trkpt><trkpt lat="53.31949027818429" lon="14.670284511594721"><ele>95.33333333333333</ele><time>2026-03-28T10:44:29.995Z</time></trkpt><trkpt lat="53.319507853642875" lon="14.670404717746571"><ele>94.66666666666667</ele><time>2026-03-28T10:44:31.995Z</time></trkpt><trkpt lat="53.319510671214914" lon="14.670524150273952"><ele>94.0</ele><time>2026-03-28T10:44:33.995Z</time></trkpt><trkpt lat="53.319532014742315" lon="14.67063774529839"><ele>93.33333333333334</ele><time>2026-03-28T10:44:35.995Z</time></trkpt><trkpt lat="53.319531255138685" lon="14.670763553274222"><ele>92.66666666666667</ele><time>2026-03-28T10:44:37.995Z</time></trkpt><trkpt lat="53.319548019591494" lon="14.670944330292146"><ele>92.0</ele><time>2026-03-28T10:44:39.995Z</time></trkpt><trkpt lat="53.319544986149936" lon="14.671057463330687"><ele>92.33333333333334</ele><time>2026-03-28T10:44:41.995Z</time></trkpt><trkpt lat="53.31950642600372" lon="14.671175063453388"><ele>92.66666666666667</ele><time>2026-03-28T10:44:43.995Z</time></trkpt><trkpt lat="53.31943675232839" lon="14.671291225375759"><ele>93.0</ele><time>2026-03-28T10:44:46.995Z</time></trkpt><trkpt lat="53.31940734962527" lon="14.671418251380464"><ele>93.33333333333333</ele><time>2026-03-28T10:44:49.995Z</time></trkpt><trkpt lat="53.31936248399681" lon="14.671543961098761"><ele>93.66666666666666</ele><time>2026-03-28T10:45:11.993Z</time></trkpt><trkpt lat="53.31933718793234" lon="14.671684556481646"><ele>94.0</ele><time>2026-03-28T10:45:14.993Z</time></trkpt><trkpt lat="53.319405550408405" lon="14.671761806687806"><ele>94.0</ele><time>2026-03-28T10:45:17.993Z</time></trkpt><trkpt lat="53.319463026526776" lon="14.671846512677282"><ele>94.0</ele><time>2026-03-28T10:45:19.993Z</time></trkpt><trkpt lat="53.31950762846951" lon="14.671947785913655"><ele>94.0</ele><time>2026-03-28T10:45:22.993Z</time></trkpt><trkpt lat="53.319499297629775" lon="14.67206509741243"><ele>94.0</ele><time>2026-03-28T10:45:25.993Z</time></trkpt><trkpt lat="53.319432410326115" lon="14.672117054560408"><ele>94.0</ele><time>2026-03-28T10:45:28.993Z</time></trkpt><trkpt lat="53.319376978334496" lon="14.672191997665365"><ele>94.0</ele><time>2026-03-28T10:45:35.994Z</time></trkpt><trkpt lat="53.319338569262996" lon="14.67227562635629"><ele>94.0</ele><time>2026-03-28T10:45:38.994Z</time></trkpt><trkpt lat="53.31932047298495" lon="14.672383823162361"><ele>94.71428571428571</ele><time>2026-03-28T10:45:41.994Z</time></trkpt><trkpt lat="53.31926262150369" lon="14.672444328674947"><ele>95.42857142857142</ele><time>2026-03-28T10:45:45.994Z</time></trkpt><trkpt lat="53.31925919999568" lon="14.672551280519693"><ele>96.14285714285714</ele><time>2026-03-28T10:45:49.994Z</time></trkpt><trkpt lat="53.31929837782379" lon="14.672652674303695"><ele>96.85714285714286</ele><time>2026-03-28T10:45:52.994Z</time></trkpt><trkpt lat="53.319334101682244" lon="14.672801551342205"><ele>97.57142857142857</ele><time>2026-03-28T10:45:55.994Z</time></trkpt><trkpt lat="53.31933295507803" lon="14.67293494324369"><ele>98.28571428571429</ele><time>2026-03-28T10:45:58.994Z</time></trkpt><trkpt lat="53.319372490183746" lon="14.673025153976065"><ele>99.0</ele><time>2026-03-28T10:46:01.994Z</time></trkpt><trkpt lat="53.31943510929749" lon="14.67308032665232"><ele>99.14285714285715</ele><time>2026-03-28T10:46:03.994Z</time></trkpt><trkpt lat="53.319470226634124" lon="14.673178327857638"><ele>99.28571428571428</ele><time>2026-03-28T10:46:07.994Z</time></trkpt><trkpt lat="53.319475619626914" lon="14.673306926135991"><ele>99.42857142857143</ele><time>2026-03-28T10:46:15.994Z</time></trkpt><trkpt lat="53.319492932282984" lon="14.67341190104353"><ele>99.57142857142858</ele><time>2026-03-28T10:49:10.992Z</time></trkpt><trkpt lat="53.319554707109376" lon="14.673452335876949"><ele>99.71428571428572</ele><time>2026-03-28T10:49:15.993Z</time></trkpt><trkpt lat="53.31957173947459" lon="14.673574093147916"><ele>99.85714285714286</ele><time>2026-03-28T10:49:19.992Z</time></trkpt><trkpt lat="53.31957852136803" lon="14.67369725273213"><ele>100.0</ele><time>2026-03-28T10:49:23.992Z</time></trkpt><trkpt lat="53.31960856960356" lon="14.673796835035489"><ele>100.00000000000001</ele><time>2026-03-28T10:49:26.992Z</time></trkpt><trkpt lat="53.31966569368248" lon="14.673874640857079"><ele>100.0</ele><time>2026-03-28T10:49:29.992Z</time></trkpt><trkpt lat="53.3197233615132" lon="14.673978012045819"><ele>100.0</ele><time>2026-03-28T10:49:32.993Z</time></trkpt><trkpt lat="53.31978379503061" lon="14.674008458463751"><ele>100.0</ele><time>2026-03-28T10:49:34.993Z</time></trkpt><trkpt lat="53.31985651941559" lon="14.674110066755913"><ele>100.00000000000001</ele><time>2026-03-28T10:49:37.993Z</time></trkpt><trkpt lat="53.31992161290106" lon="14.67418290595312"><ele>100.0</ele><time>2026-03-28T10:49:40.993Z</time></trkpt><trkpt lat="53.3199721320352" lon="14.674294375303274"><ele>100.00000000000001</ele><time>2026-03-28T10:49:43.993Z</time></trkpt><trkpt lat="53.32000803057985" lon="14.674428852938085"><ele>100.0</ele><time>2026-03-28T10:49:46.993Z</time></trkpt><trkpt lat="53.319969708166596" lon="14.674577293742173"><ele>100.0</ele><time>2026-03-28T10:49:49.993Z</time></trkpt><trkpt lat="53.31991732436736" lon="14.674651311509232"><ele>100.0</ele><time>2026-03-28T10:49:52.993Z</time></trkpt><trkpt lat="53.31983345119053" lon="14.674675407096535"><ele>100.00000000000001</ele><time>2026-03-28T10:49:55.993Z</time></trkpt><trkpt lat="53.31977539742674" lon="14.67460813755716"><ele>100.0</ele><time>2026-03-28T10:49:58.993Z</time></trkpt><trkpt lat="53.31971664357505" lon="14.674509619630822"><ele>100.00000000000001</ele><time>2026-03-28T10:50:01.993Z</time></trkpt><trkpt lat="53.319655586872486" lon="14.674411347498488"><ele>100.0</ele><time>2026-03-28T10:50:03.993Z</time></trkpt><trkpt lat="53.319595732038216" lon="14.674300901371991"><ele>100.0</ele><time>2026-03-28T10:50:05.993Z</time></trkpt><trkpt lat="53.31955106631572" lon="14.674195387973132"><ele>100.0</ele><time>2026-03-28T10:50:07.993Z</time></trkpt><trkpt lat="53.31949400339607" lon="14.674101402539211"><ele>100.00000000000001</ele><time>2026-03-28T10:50:09.993Z</time></trkpt><trkpt lat="53.31943682044179" lon="14.674003153554532"><ele>100.0</ele><time>2026-03-28T10:50:11.993Z</time></trkpt><trkpt lat="53.31937041233665" lon="14.673883364673872"><ele>100.0</ele><time>2026-03-28T10:50:13.993Z</time></trkpt><trkpt lat="53.31932059938218" lon="14.67381335931932"><ele>100.0</ele><time>2026-03-28T10:50:14.993Z</time></trkpt><trkpt lat="53.319241054105014" lon="14.673700445815598"><ele>100.0</ele><time>2026-03-28T10:50:16.993Z</time></trkpt><trkpt lat="53.319143501615976" lon="14.673556054998825"><ele>100.0</ele><time>2026-03-28T10:50:18.993Z</time></trkpt><trkpt lat="53.31904185572748" lon="14.673398466024459"><ele>100.0</ele><time>2026-03-28T10:50:20.993Z</time></trkpt><trkpt lat="53.31897777321753" lon="14.673307929763768"><ele>100.0</ele><time>2026-03-28T10:50:21.993Z</time></trkpt><trkpt lat="53.31891235098674" lon="14.673222384067408"><ele>100.0</ele><time>2026-03-28T10:50:22.993Z</time></trkpt><trkpt lat="53.31884559503508" lon="14.673130215917094"><ele>100.0</ele><time>2026-03-28T10:50:23.993Z</time></trkpt><trkpt lat="53.31876490861094" lon="14.673020405482525"><ele>100.0</ele><time>2026-03-28T10:50:24.993Z</time></trkpt><trkpt lat="53.318689654898044" lon="14.672913051365743"><ele>100.0</ele><time>2026-03-28T10:50:25.993Z</time></trkpt><trkpt lat="53.31860637794914" lon="14.672788067261955"><ele>99.66666666666667</ele><time>2026-03-28T10:50:26.993Z</time></trkpt><trkpt lat="53.31855085300725" lon="14.672693647344586"><ele>99.33333333333334</ele><time>2026-03-28T10:50:27.993Z</time></trkpt><trkpt lat="53.3184949962168" lon="14.672625543206701"><ele>99.0</ele><time>2026-03-28T10:50:28.993Z</time></trkpt><trkpt lat="53.31843791843957" lon="14.67254836091346"><ele>98.66666666666666</ele><time>2026-03-28T10:50:29.993Z</time></trkpt><trkpt lat="53.31837305286675" lon="14.672470157016665"><ele>98.33333333333333</ele><time>2026-03-28T10:50:30.993Z</time></trkpt><trkpt lat="53.31829608695789" lon="14.672381951211332"><ele>98.0</ele><time>2026-03-28T10:50:31.993Z</time></trkpt><trkpt lat="53.31822536845172" lon="14.67230310027633"><ele>98.0</ele><time>2026-03-28T10:50:32.993Z</time></trkpt><trkpt lat="53.3181009220783" lon="14.672234651878668"><ele>98.0</ele><time>2026-03-28T10:50:34.993Z</time></trkpt><trkpt lat="53.31803426714018" lon="14.672200937372443"><ele>98.0</ele><time>2026-03-28T10:50:36.993Z</time></trkpt><trkpt lat="53.317965020261894" lon="14.672335120077468"><ele>98.0</ele><time>2026-03-28T10:50:40.993Z</time></trkpt><trkpt lat="53.31793276320685" lon="14.672529699116984"><ele>98.0</ele><time>2026-03-28T10:50:42.993Z</time></trkpt><trkpt lat="53.317918368300944" lon="14.672729176148039"><ele>98.83333333333333</ele><time>2026-03-28T10:50:44.993Z</time></trkpt><trkpt lat="53.317900589961894" lon="14.672850079441625"><ele>99.66666666666666</ele><time>2026-03-28T10:50:45.993Z</time></trkpt><trkpt lat="53.31788387976009" lon="14.673036417675986"><ele>100.5</ele><time>2026-03-28T10:50:47.993Z</time></trkpt><trkpt lat="53.31786994945229" lon="14.673221721496065"><ele>101.33333333333334</ele><time>2026-03-28T10:50:49.993Z</time></trkpt><trkpt lat="53.3178381065209" lon="14.673328226586994"><ele>102.16666666666667</ele><time>2026-03-28T10:50:50.993Z</time></trkpt><trkpt lat="53.31780462474724" lon="14.673435858640026"><ele>103.0</ele><time>2026-03-28T10:50:51.993Z</time></trkpt><trkpt lat="53.317757745384235" lon="14.673528137174165"><ele>102.80000000000001</ele><time>2026-03-28T10:50:52.993Z</time></trkpt><trkpt lat="53.31771116273916" lon="14.673619731395645"><ele>102.6</ele><time>2026-03-28T10:50:53.993Z</time></trkpt><trkpt lat="53.31765231879485" lon="14.673739235179989"><ele>102.4</ele><time>2026-03-28T10:50:54.993Z</time></trkpt><trkpt lat="53.317579289411924" lon="14.67386305668039"><ele>102.19999999999999</ele><time>2026-03-28T10:50:55.993Z</time></trkpt><trkpt lat="53.31750070691356" lon="14.673977914859979"><ele>102.0</ele><time>2026-03-28T10:50:56.993Z</time></trkpt><trkpt lat="53.3174164253776" lon="14.674089641017115"><ele>102.0</ele><time>2026-03-28T10:50:57.993Z</time></trkpt><trkpt lat="53.31732491748214" lon="14.67421653885599"><ele>102.0</ele><time>2026-03-28T10:50:58.993Z</time></trkpt><trkpt lat="53.317251183633644" lon="14.674322170209127"><ele>102.0</ele><time>2026-03-28T10:50:59.993Z</time></trkpt><trkpt lat="53.317198980639716" lon="14.674421594507056"><ele>102.0</ele><time>2026-03-28T10:51:00.993Z</time></trkpt><trkpt lat="53.317120165861056" lon="14.674520222050678"><ele>102.0</ele><time>2026-03-28T10:51:01.993Z</time></trkpt><trkpt lat="53.317050548858575" lon="14.674596109148043"><ele>102.0</ele><time>2026-03-28T10:51:02.993Z</time></trkpt><trkpt lat="53.31697322164116" lon="14.674717048321636"><ele>102.0</ele><time>2026-03-28T10:51:03.993Z</time></trkpt><trkpt lat="53.31688712304786" lon="14.674830881213067"><ele>102.0</ele><time>2026-03-28T10:51:04.993Z</time></trkpt><trkpt lat="53.31677891803124" lon="14.674948808282199"><ele>102.0</ele><time>2026-03-28T10:51:05.993Z</time></trkpt><trkpt lat="53.31668581807336" lon="14.675078629799456"><ele>102.0</ele><time>2026-03-28T10:51:06.993Z</time></trkpt><trkpt lat="53.316596232322865" lon="14.675168960983296"><ele>102.0</ele><time>2026-03-28T10:51:07.993Z</time></trkpt><trkpt lat="53.31652375700478" lon="14.675233960870269"><ele>102.0</ele><time>2026-03-28T10:51:08.993Z</time></trkpt><trkpt lat="53.3164376314693" lon="14.67529894357922"><ele>102.0</ele><time>2026-03-28T10:51:09.993Z</time></trkpt><trkpt lat="53.316334792853056" lon="14.675360200895177"><ele>102.0</ele><time>2026-03-28T10:51:10.993Z</time></trkpt><trkpt lat="53.316241111007265" lon="14.675421302779784"><ele>101.5</ele><time>2026-03-28T10:51:11.992Z</time></trkpt><trkpt lat="53.316134352895865" lon="14.675490727869652"><ele>101.0</ele><time>2026-03-28T10:51:12.991Z</time></trkpt><trkpt lat="53.31604234217145" lon="14.675555778623124"><ele>100.5</ele><time>2026-03-28T10:51:13.991Z</time></trkpt><trkpt lat="53.31596259140124" lon="14.675619712895804"><ele>100.0</ele><time>2026-03-28T10:51:14.991Z</time></trkpt><trkpt lat="53.315902719700986" lon="14.6756620206842"><ele>99.5</ele><time>2026-03-28T10:51:15.992Z</time></trkpt><trkpt lat="53.31583908219629" lon="14.67570033516186"><ele>99.0</ele><time>2026-03-28T10:51:16.992Z</time></trkpt><trkpt lat="53.315743767283635" lon="14.675756065358623"><ele>99.0</ele><time>2026-03-28T10:51:18.992Z</time></trkpt><trkpt lat="53.31567323684126" lon="14.675815969524308"><ele>99.0</ele><time>2026-03-28T10:51:20.991Z</time></trkpt><trkpt lat="53.315646442991024" lon="14.67592039611361"><ele>99.0</ele><time>2026-03-28T10:51:22.992Z</time></trkpt><trkpt lat="53.31563334691464" lon="14.676060032202377"><ele>99.0</ele><time>2026-03-28T10:51:25.992Z</time></trkpt><trkpt lat="53.31556710721111" lon="14.676184735307153"><ele>99.0</ele><time>2026-03-28T10:51:27.992Z</time></trkpt><trkpt lat="53.315501467939114" lon="14.676271239005667"><ele>99.0</ele><time>2026-03-28T10:51:28.992Z</time></trkpt><trkpt lat="53.31544379143848" lon="14.676362722593886"><ele>98.6</ele><time>2026-03-28T10:51:29.992Z</time></trkpt><trkpt lat="53.31536254033062" lon="14.676496783092226"><ele>98.2</ele><time>2026-03-28T10:51:30.992Z</time></trkpt><trkpt lat="53.31528640947148" lon="14.676600546416337"><ele>97.8</ele><time>2026-03-28T10:51:31.992Z</time></trkpt><trkpt lat="53.31521157172611" lon="14.676714885641347"><ele>97.39999999999999</ele><time>2026-03-28T10:51:32.992Z</time></trkpt><trkpt lat="53.31515741877745" lon="14.676776088891502"><ele>97.0</ele><time>2026-03-28T10:51:33.992Z</time></trkpt><trkpt lat="53.31509834224706" lon="14.676865470900944"><ele>96.8</ele><time>2026-03-28T10:51:34.992Z</time></trkpt><trkpt lat="53.31501634515417" lon="14.67697905778222"><ele>96.6</ele><time>2026-03-28T10:51:35.992Z</time></trkpt><trkpt lat="53.314960936461446" lon="14.677049189255914"><ele>96.39999999999999</ele><time>2026-03-28T10:51:36.992Z</time></trkpt><trkpt lat="53.31484805318646" lon="14.67717654110452"><ele>96.19999999999999</ele><time>2026-03-28T10:51:38.992Z</time></trkpt><trkpt lat="53.314781906296524" lon="14.677210320981768"><ele>96.0</ele><time>2026-03-28T10:51:39.992Z</time></trkpt><trkpt lat="53.31470255217061" lon="14.677232798291245"><ele>96.4</ele><time>2026-03-28T10:51:40.992Z</time></trkpt><trkpt lat="53.31460597727183" lon="14.67723276482209"><ele>96.8</ele><time>2026-03-28T10:51:41.992Z</time></trkpt><trkpt lat="53.314493525537756" lon="14.677220253572305"><ele>97.2</ele><time>2026-03-28T10:51:42.992Z</time></trkpt><trkpt lat="53.31438599184746" lon="14.677179462216175"><ele>97.60000000000001</ele><time>2026-03-28T10:51:43.992Z</time></trkpt><trkpt lat="53.31430143933385" lon="14.677117725350469"><ele>98.0</ele><time>2026-03-28T10:51:44.992Z</time></trkpt><trkpt lat="53.31420639202155" lon="14.677042962981114"><ele>98.0</ele><time>2026-03-28T10:51:45.992Z</time></trkpt><trkpt lat="53.314133779852" lon="14.676981312302871"><ele>98.0</ele><time>2026-03-28T10:51:46.992Z</time></trkpt><trkpt lat="53.31405688121909" lon="14.676953102550643"><ele>98.0</ele><time>2026-03-28T10:51:47.992Z</time></trkpt><trkpt lat="53.313910620712036" lon="14.676974426623929"><ele>98.0</ele><time>2026-03-28T10:51:49.992Z</time></trkpt><trkpt lat="53.313807326600696" lon="14.677018579027672"><ele>98.0</ele><time>2026-03-28T10:51:50.992Z</time></trkpt><trkpt lat="53.313704720639116" lon="14.677070937528505"><ele>100.16666666666666</ele><time>2026-03-28T10:51:51.992Z</time></trkpt><trkpt lat="53.31361666648343" lon="14.677092160463346"><ele>102.33333333333333</ele><time>2026-03-28T10:51:52.992Z</time></trkpt><trkpt lat="53.313544895926796" lon="14.677079109348439"><ele>104.5</ele><time>2026-03-28T10:51:54.992Z</time></trkpt><trkpt lat="53.31344352280623" lon="14.677127540749193"><ele>106.66666666666666</ele><time>2026-03-28T10:51:56.992Z</time></trkpt><trkpt lat="53.31337993084637" lon="14.677109401547884"><ele>108.83333333333333</ele><time>2026-03-28T10:51:58.992Z</time></trkpt><trkpt lat="53.31331144571702" lon="14.677079196981689"><ele>111.0</ele><time>2026-03-28T10:52:01.992Z</time></trkpt><trkpt lat="53.313276141633004" lon="14.67722289886879"><ele>111.0</ele><time>2026-03-28T10:52:04.992Z</time></trkpt><trkpt lat="53.313229613211824" lon="14.67735900631085"><ele>111.0</ele><time>2026-03-28T10:52:06.992Z</time></trkpt><trkpt lat="53.313242734677054" lon="14.677475775177832"><ele>111.0</ele><time>2026-03-28T10:52:08.992Z</time></trkpt><trkpt lat="53.313253032765296" lon="14.6776441156099"><ele>111.0</ele><time>2026-03-28T10:52:10.992Z</time></trkpt><trkpt lat="53.31325110054759" lon="14.677751199516962"><ele>111.0</ele><time>2026-03-28T10:52:11.992Z</time></trkpt><trkpt lat="53.31327146884208" lon="14.677873396392561"><ele>111.0</ele><time>2026-03-28T10:52:12.992Z</time></trkpt><trkpt lat="53.31327412109143" lon="14.678029566288027"><ele>111.0</ele><time>2026-03-28T10:52:13.992Z</time></trkpt><trkpt lat="53.313264010987204" lon="14.678200761888345"><ele>111.0</ele><time>2026-03-28T10:52:14.992Z</time></trkpt><trkpt lat="53.313243557307395" lon="14.67836517041871"><ele>111.0</ele><time>2026-03-28T10:52:15.992Z</time></trkpt><trkpt lat="53.313241992131495" lon="14.678478405900002"><ele>111.0</ele><time>2026-03-28T10:52:16.992Z</time></trkpt><trkpt lat="53.31326978417743" lon="14.678649166461193"><ele>111.0</ele><time>2026-03-28T10:52:18.992Z</time></trkpt><trkpt lat="53.313325137159005" lon="14.678731076050155"><ele>110.19999999999999</ele><time>2026-03-28T10:52:19.992Z</time></trkpt><trkpt lat="53.313429498837806" lon="14.678872819835863"><ele>109.39999999999999</ele><time>2026-03-28T10:52:21.992Z</time></trkpt><trkpt lat="53.31348733887365" lon="14.678933528804013"><ele>108.6</ele><time>2026-03-28T10:52:22.992Z</time></trkpt><trkpt lat="53.31354932533903" lon="14.679055505670263"><ele>107.8</ele><time>2026-03-28T10:52:24.992Z</time></trkpt><trkpt lat="53.313602160596815" lon="14.679180536147372"><ele>107.0</ele><time>2026-03-28T10:52:26.992Z</time></trkpt><trkpt lat="53.31364522049407" lon="14.6793337786955"><ele>105.66666666666666</ele><time>2026-03-28T10:52:29.992Z</time></trkpt><trkpt lat="53.313659804476636" lon="14.67943696416421"><ele>104.33333333333333</ele><time>2026-03-28T10:52:31.992Z</time></trkpt><trkpt lat="53.31364734529167" lon="14.679575620710027"><ele>103.0</ele><time>2026-03-28T10:52:33.992Z</time></trkpt><trkpt lat="53.313601657813834" lon="14.679719163308228"><ele>101.66666666666666</ele><time>2026-03-28T10:52:36.992Z</time></trkpt><trkpt lat="53.31352318767428" lon="14.67982251817876"><ele>100.33333333333333</ele><time>2026-03-28T10:52:39.992Z</time></trkpt><trkpt lat="53.313448442968614" lon="14.67988056496455"><ele>99.0</ele><time>2026-03-28T10:52:41.992Z</time></trkpt><trkpt lat="53.31335528153307" lon="14.679894395625755"><ele>99.0</ele><time>2026-03-28T10:52:43.992Z</time></trkpt><trkpt lat="53.31328117268161" lon="14.679918890205663"><ele>99.0</ele><time>2026-03-28T10:52:44.992Z</time></trkpt><trkpt lat="53.31319430004736" lon="14.679925529913422"><ele>99.0</ele><time>2026-03-28T10:52:45.992Z</time></trkpt><trkpt lat="53.31312311975458" lon="14.67995855201933"><ele>99.0</ele><time>2026-03-28T10:52:46.992Z</time></trkpt><trkpt lat="53.31304151471402" lon="14.680043865789793"><ele>99.0</ele><time>2026-03-28T10:52:48.992Z</time></trkpt><trkpt lat="53.31292043149068" lon="14.680096135257672"><ele>99.2</ele><time>2026-03-28T10:52:50.993Z</time></trkpt><trkpt lat="53.312773805811034" lon="14.680112922749032"><ele>99.4</ele><time>2026-03-28T10:52:52.993Z</time></trkpt><trkpt lat="53.312693228388" lon="14.680129296984607"><ele>99.6</ele><time>2026-03-28T10:52:53.993Z</time></trkpt><trkpt lat="53.312627528635744" lon="14.680163295306091"><ele>99.8</ele><time>2026-03-28T10:52:54.993Z</time></trkpt><trkpt lat="53.31254908940171" lon="14.680211842685289"><ele>100.0</ele><time>2026-03-28T10:52:55.993Z</time></trkpt><trkpt lat="53.31246446578947" lon="14.680276012240206"><ele>99.6</ele><time>2026-03-28T10:52:56.993Z</time></trkpt><trkpt lat="53.31236852210021" lon="14.68034985831765"><ele>99.2</ele><time>2026-03-28T10:52:57.993Z</time></trkpt><trkpt lat="53.312290638713584" lon="14.6804035324286"><ele>98.80000000000001</ele><time>2026-03-28T10:52:58.993Z</time></trkpt><trkpt lat="53.312228054368354" lon="14.680435784776169"><ele>98.4</ele><time>2026-03-28T10:52:59.993Z</time></trkpt><trkpt lat="53.31215346687005" lon="14.680557984749115"><ele>98.0</ele><time>2026-03-28T10:53:00.993Z</time></trkpt><trkpt lat="53.31206710491453" lon="14.680669482760692"><ele>98.0</ele><time>2026-03-28T10:53:01.993Z</time></trkpt><trkpt lat="53.31198042216053" lon="14.680780146929287"><ele>98.0</ele><time>2026-03-28T10:53:02.993Z</time></trkpt><trkpt lat="53.31189018158292" lon="14.680885780684386"><ele>98.0</ele><time>2026-03-28T10:53:03.993Z</time></trkpt><trkpt lat="53.31181336012836" lon="14.680967703617112"><ele>98.0</ele><time>2026-03-28T10:53:04.993Z</time></trkpt><trkpt lat="53.31175044365566" lon="14.681025032435564"><ele>98.0</ele><time>2026-03-28T10:53:05.993Z</time></trkpt><trkpt lat="53.311688111245005" lon="14.681078627096431"><ele>98.33333333333333</ele><time>2026-03-28T10:53:06.993Z</time></trkpt><trkpt lat="53.311633407462416" lon="14.681187870867918"><ele>98.66666666666666</ele><time>2026-03-28T10:53:07.993Z</time></trkpt><trkpt lat="53.31157734962598" lon="14.681275271080565"><ele>99.0</ele><time>2026-03-28T10:53:08.993Z</time></trkpt><trkpt lat="53.31148305860635" lon="14.68141798125101"><ele>99.33333333333334</ele><time>2026-03-28T10:53:10.993Z</time></trkpt><trkpt lat="53.31142280207116" lon="14.681507251166298"><ele>99.66666666666667</ele><time>2026-03-28T10:53:11.993Z</time></trkpt><trkpt lat="53.31136703970394" lon="14.681566718086549"><ele>100.0</ele><time>2026-03-28T10:53:12.993Z</time></trkpt><trkpt lat="53.31127505300622" lon="14.6816708705751"><ele>100.0</ele><time>2026-03-28T10:53:14.993Z</time></trkpt><trkpt lat="53.31121322106772" lon="14.681701987157409"><ele>100.0</ele><time>2026-03-28T10:53:15.993Z</time></trkpt><trkpt lat="53.311113195909236" lon="14.681747673811477"><ele>100.0</ele><time>2026-03-28T10:53:16.993Z</time></trkpt><trkpt lat="53.31100161734017" lon="14.681805303532562"><ele>100.0</ele><time>2026-03-28T10:53:17.991Z</time></trkpt><trkpt lat="53.31089924789424" lon="14.681884402060291"><ele>100.0</ele><time>2026-03-28T10:53:18.991Z</time></trkpt><trkpt lat="53.310841857724995" lon="14.681941245488167"><ele>99.66666666666667</ele><time>2026-03-28T10:53:19.991Z</time></trkpt><trkpt lat="53.3107891361471" lon="14.682033959227724"><ele>99.33333333333334</ele><time>2026-03-28T10:53:20.991Z</time></trkpt><trkpt lat="53.31073519124658" lon="14.682094250274401"><ele>99.0</ele><time>2026-03-28T10:53:22.991Z</time></trkpt><trkpt lat="53.31064115912668" lon="14.682182514328632"><ele>98.66666666666666</ele><time>2026-03-28T10:53:24.991Z</time></trkpt><trkpt lat="53.31055819893829" lon="14.682270327510189"><ele>98.33333333333333</ele><time>2026-03-28T10:53:26.991Z</time></trkpt><trkpt lat="53.31049798831877" lon="14.68235597289136"><ele>98.0</ele><time>2026-03-28T10:53:28.99Z</time></trkpt><trkpt lat="53.31043945427217" lon="14.682418164427759"><ele>97.57142857142857</ele><time>2026-03-28T10:53:30.99Z</time></trkpt><trkpt lat="53.31042427220633" lon="14.682529620820162"><ele>97.14285714285714</ele><time>2026-03-28T10:53:33.99Z</time></trkpt><trkpt lat="53.310447648246395" lon="14.682669343873776"><ele>96.71428571428572</ele><time>2026-03-28T10:53:35.99Z</time></trkpt><trkpt lat="53.31041518938931" lon="14.682799644817544"><ele>96.28571428571428</ele><time>2026-03-28T10:53:38.991Z</time></trkpt><trkpt lat="53.31037428577775" lon="14.682879783902417"><ele>95.85714285714286</ele><time>2026-03-28T10:53:40.991Z</time></trkpt><trkpt lat="53.31030946519803" lon="14.682939966712135"><ele>95.42857142857143</ele><time>2026-03-28T10:53:43.991Z</time></trkpt><trkpt lat="53.310267883053484" lon="14.683029711785329"><ele>95.0</ele><time>2026-03-28T10:53:47.991Z</time></trkpt><trkpt lat="53.31025537799503" lon="14.683140668741359"><ele>95.0</ele><time>2026-03-28T10:53:55.991Z</time></trkpt><trkpt lat="53.310258826629024" lon="14.683252345120724"><ele>95.0</ele><time>2026-03-28T10:53:59.991Z</time></trkpt><trkpt lat="53.31022878322883" lon="14.683356238441725"><ele>95.0</ele><time>2026-03-28T10:54:02.991Z</time></trkpt><trkpt lat="53.310160242476435" lon="14.683403176469398"><ele>95.0</ele><time>2026-03-28T10:54:30.991Z</time></trkpt><trkpt lat="53.310105948320995" lon="14.683457771113494"><ele>95.0</ele><time>2026-03-28T10:54:31.991Z</time></trkpt><trkpt lat="53.310054619888426" lon="14.683387683373088"><ele>95.0</ele><time>2026-03-28T10:55:13.991Z</time></trkpt><trkpt lat="53.30998747736418" lon="14.683374844251214"><ele>95.0</ele><time>2026-03-28T10:55:15.991Z</time></trkpt><trkpt lat="53.30988651512753" lon="14.683394454061125"><ele>95.0</ele><time>2026-03-28T10:55:18.991Z</time></trkpt><trkpt lat="53.309760164266486" lon="14.683407365753007"><ele>95.0</ele><time>2026-03-28T10:55:20.991Z</time></trkpt><trkpt lat="53.30968163730762" lon="14.68340745917573"><ele>95.0</ele><time>2026-03-28T10:55:21.992Z</time></trkpt><trkpt lat="53.3095927579785" lon="14.683381448099404"><ele>95.0</ele><time>2026-03-28T10:55:22.992Z</time></trkpt><trkpt lat="53.30946981360249" lon="14.683310315172141"><ele>95.0</ele><time>2026-03-28T10:55:23.99Z</time></trkpt><trkpt lat="53.30937673323626" lon="14.683232102730253"><ele>94.8</ele><time>2026-03-28T10:55:24.991Z</time></trkpt><trkpt lat="53.30932198216578" lon="14.683141052298383"><ele>94.6</ele><time>2026-03-28T10:55:25.991Z</time></trkpt><trkpt lat="53.309222190429054" lon="14.68300334912348"><ele>94.4</ele><time>2026-03-28T10:55:27.991Z</time></trkpt><trkpt lat="53.30914069654664" lon="14.682881383823307"><ele>94.2</ele><time>2026-03-28T10:55:29.99Z</time></trkpt><trkpt lat="53.30906332435102" lon="14.682797412663593"><ele>94.0</ele><time>2026-03-28T10:55:31.99Z</time></trkpt><trkpt lat="53.308949340595525" lon="14.682612976292653"><ele>93.80000000000001</ele><time>2026-03-28T10:55:33.99Z</time></trkpt><trkpt lat="53.3088981223664" lon="14.682528902131889"><ele>93.60000000000001</ele><time>2026-03-28T10:55:34.99Z</time></trkpt><trkpt lat="53.30883038774146" lon="14.682431689941726"><ele>93.4</ele><time>2026-03-28T10:55:35.991Z</time></trkpt><trkpt lat="53.3087467823084" lon="14.68229621047869"><ele>93.2</ele><time>2026-03-28T10:55:37.99Z</time></trkpt><trkpt lat="53.30869227766424" lon="14.682161154717909"><ele>93.0</ele><time>2026-03-28T10:55:39.99Z</time></trkpt><trkpt lat="53.308621478759434" lon="14.682014408659649"><ele>92.5</ele><time>2026-03-28T10:55:41.99Z</time></trkpt><trkpt lat="53.30855765332981" lon="14.681875998548875"><ele>92.0</ele><time>2026-03-28T10:55:43.99Z</time></trkpt><trkpt lat="53.3084760870975" lon="14.681778010057334"><ele>91.5</ele><time>2026-03-28T10:55:45.99Z</time></trkpt><trkpt lat="53.30839538939802" lon="14.681726849470463"><ele>91.0</ele><time>2026-03-28T10:55:47.99Z</time></trkpt><trkpt lat="53.30831827001232" lon="14.68169032610127"><ele>90.5</ele><time>2026-03-28T10:55:50.99Z</time></trkpt><trkpt lat="53.30825545630831" lon="14.681643242014609"><ele>90.0</ele><time>2026-03-28T10:55:52.99Z</time></trkpt><trkpt lat="53.30816178306409" lon="14.681580909570359"><ele>90.2</ele><time>2026-03-28T10:55:54.99Z</time></trkpt><trkpt lat="53.308066676651165" lon="14.681520870286795"><ele>90.4</ele><time>2026-03-28T10:55:56.99Z</time></trkpt><trkpt lat="53.30794182963938" lon="14.681432311839538"><ele>90.6</ele><time>2026-03-28T10:55:58.99Z</time></trkpt><trkpt lat="53.30786233748939" lon="14.681367612823781"><ele>90.8</ele><time>2026-03-28T10:55:59.99Z</time></trkpt><trkpt lat="53.307775199162656" lon="14.681306765313316"><ele>91.0</ele><time>2026-03-28T10:56:00.99Z</time></trkpt><trkpt lat="53.30766645494891" lon="14.68121887810828"><ele>91.0</ele><time>2026-03-28T10:56:02.99Z</time></trkpt><trkpt lat="53.307590549798896" lon="14.681156222366786"><ele>91.0</ele><time>2026-03-28T10:56:03.99Z</time></trkpt><trkpt lat="53.30748843372333" lon="14.681103562576052"><ele>91.0</ele><time>2026-03-28T10:56:04.99Z</time></trkpt><trkpt lat="53.30737717973887" lon="14.68101846901962"><ele>91.0</ele><time>2026-03-28T10:56:05.99Z</time></trkpt><trkpt lat="53.307292168520085" lon="14.68098559382643"><ele>91.0</ele><time>2026-03-28T10:56:06.99Z</time></trkpt><trkpt lat="53.30722052903771" lon="14.680939272291676"><ele>90.16666666666666</ele><time>2026-03-28T10:56:07.99Z</time></trkpt><trkpt lat="53.30713572707448" lon="14.68087852068543"><ele>89.33333333333333</ele><time>2026-03-28T10:56:08.99Z</time></trkpt><trkpt lat="53.307039013179" lon="14.68085589479527"><ele>88.5</ele><time>2026-03-28T10:56:09.99Z</time></trkpt><trkpt lat="53.30696523059667" lon="14.680829669102062"><ele>87.66666666666667</ele><time>2026-03-28T10:56:10.99Z</time></trkpt><trkpt lat="53.306881822868114" lon="14.680792956866885"><ele>86.83333333333334</ele><time>2026-03-28T10:56:11.99Z</time></trkpt><trkpt lat="53.30680522222925" lon="14.680775291667537"><ele>86.0</ele><time>2026-03-28T10:56:12.99Z</time></trkpt><trkpt lat="53.30671572178584" lon="14.680751039476112"><ele>86.0</ele><time>2026-03-28T10:56:13.99Z</time></trkpt><trkpt lat="53.30665260503701" lon="14.680762186406398"><ele>86.0</ele><time>2026-03-28T10:56:14.99Z</time></trkpt><trkpt lat="53.306587185176674" lon="14.680772934947093"><ele>86.0</ele><time>2026-03-28T10:56:15.99Z</time></trkpt><trkpt lat="53.306496705011966" lon="14.680801817955492"><ele>86.0</ele><time>2026-03-28T10:56:16.99Z</time></trkpt><trkpt lat="53.3063732454331" lon="14.680874937814211"><ele>86.0</ele><time>2026-03-28T10:56:17.99Z</time></trkpt><trkpt lat="53.30624770502672" lon="14.680967652357706"><ele>86.0</ele><time>2026-03-28T10:56:18.99Z</time></trkpt><trkpt lat="53.30613600230775" lon="14.681065331882573"><ele>86.0</ele><time>2026-03-28T10:56:19.99Z</time></trkpt><trkpt lat="53.306031693028096" lon="14.681153734703598"><ele>86.0</ele><time>2026-03-28T10:56:20.99Z</time></trkpt><trkpt lat="53.305921393447946" lon="14.68124508542977"><ele>86.0</ele><time>2026-03-28T10:56:21.99Z</time></trkpt><trkpt lat="53.30584225447594" lon="14.681318807757929"><ele>85.5</ele><time>2026-03-28T10:56:22.99Z</time></trkpt><trkpt lat="53.30574477228694" lon="14.681384521125741"><ele>85.0</ele><time>2026-03-28T10:56:23.99Z</time></trkpt><trkpt lat="53.30564392466621" lon="14.681443503596833"><ele>84.5</ele><time>2026-03-28T10:56:24.99Z</time></trkpt><trkpt lat="53.305537664598894" lon="14.681501480957833"><ele>84.0</ele><time>2026-03-28T10:56:25.99Z</time></trkpt><trkpt lat="53.30541665518879" lon="14.681561193957116"><ele>82.8</ele><time>2026-03-28T10:56:26.99Z</time></trkpt><trkpt lat="53.30530335437328" lon="14.681596539645778"><ele>81.60000000000001</ele><time>2026-03-28T10:56:27.99Z</time></trkpt><trkpt lat="53.305200742827616" lon="14.681619049923835"><ele>80.4</ele><time>2026-03-28T10:56:28.991Z</time></trkpt><trkpt lat="53.30510044510196" lon="14.681668856090539"><ele>79.2</ele><time>2026-03-28T10:56:29.991Z</time></trkpt><trkpt lat="53.3050171971121" lon="14.681686837560733"><ele>78.0</ele><time>2026-03-28T10:56:30.991Z</time></trkpt><trkpt lat="53.304952453446674" lon="14.681723277485938"><ele>78.0</ele><time>2026-03-28T10:56:31.991Z</time></trkpt><trkpt lat="53.304874997606866" lon="14.6817493379478"><ele>78.0</ele><time>2026-03-28T10:56:33.991Z</time></trkpt><trkpt lat="53.30481464826997" lon="14.681781608695236"><ele>78.0</ele><time>2026-03-28T10:56:36.991Z</time></trkpt><trkpt lat="53.304733524553036" lon="14.681778121188504"><ele>78.0</ele><time>2026-03-28T10:56:50.991Z</time></trkpt><trkpt lat="53.30467005038459" lon="14.681787400152382"><ele>78.0</ele><time>2026-03-28T10:56:52.991Z</time></trkpt><trkpt lat="53.30460586660051" lon="14.6818023085225"><ele>78.0</ele><time>2026-03-28T10:56:55.991Z</time></trkpt><trkpt lat="53.30453716495444" lon="14.681760976907068"><ele>78.0</ele><time>2026-03-28T10:56:58.991Z</time></trkpt><trkpt lat="53.30447795028897" lon="14.681686854732485"><ele>76.83333333333333</ele><time>2026-03-28T10:57:02.991Z</time></trkpt><trkpt lat="53.30441848654311" lon="14.681613872095362"><ele>75.66666666666667</ele><time>2026-03-28T10:57:06.991Z</time></trkpt><trkpt lat="53.30433174236722" lon="14.681641506947491"><ele>74.5</ele><time>2026-03-28T10:57:24.991Z</time></trkpt><trkpt lat="53.30426979806587" lon="14.681745699537046"><ele>73.33333333333334</ele><time>2026-03-28T10:57:28.991Z</time></trkpt><trkpt lat="53.30420266294879" lon="14.681777493013259"><ele>72.16666666666667</ele><time>2026-03-28T10:57:30.99Z</time></trkpt><trkpt lat="53.304134717779526" lon="14.681773487629592"><ele>71.0</ele><time>2026-03-28T10:57:32.99Z</time></trkpt><trkpt lat="53.30405616412349" lon="14.681742839961867"><ele>71.0</ele><time>2026-03-28T10:57:35.99Z</time></trkpt><trkpt lat="53.30399788171007" lon="14.681678765807073"><ele>71.0</ele><time>2026-03-28T10:57:38.99Z</time></trkpt><trkpt lat="53.303936568805234" lon="14.681623205786966"><ele>71.0</ele><time>2026-03-28T10:57:41.99Z</time></trkpt><trkpt lat="53.303860513521336" lon="14.681551377158298"><ele>71.0</ele><time>2026-03-28T10:57:53.99Z</time></trkpt><trkpt lat="53.30381709760567" lon="14.68143813437344"><ele>71.0</ele><time>2026-03-28T10:57:56.99Z</time></trkpt><trkpt lat="53.30380038631274" lon="14.681328775592146"><ele>71.0</ele><time>2026-03-28T10:57:59.99Z</time></trkpt><trkpt lat="53.30377735124718" lon="14.681229505551393"><ele>71.0</ele><time>2026-03-28T10:58:01.99Z</time></trkpt><trkpt lat="53.30369591444885" lon="14.681155794344273"><ele>71.2</ele><time>2026-03-28T10:58:05.99Z</time></trkpt><trkpt lat="53.30362246122459" lon="14.681142290994172"><ele>71.39999999999999</ele><time>2026-03-28T10:58:08.99Z</time></trkpt><trkpt lat="53.303553777565654" lon="14.681018352341031"><ele>71.6</ele><time>2026-03-28T10:58:10.99Z</time></trkpt><trkpt lat="53.303519735266626" lon="14.680834687127955"><ele>71.8</ele><time>2026-03-28T10:58:12.99Z</time></trkpt><trkpt lat="53.30350223170625" lon="14.680707235747336"><ele>72.0</ele><time>2026-03-28T10:58:13.99Z</time></trkpt><trkpt lat="53.30348502350964" lon="14.680568198025826"><ele>72.0</ele><time>2026-03-28T10:58:15.99Z</time></trkpt><trkpt lat="53.30344065482907" lon="14.680443840499562"><ele>72.0</ele><time>2026-03-28T10:58:18.99Z</time></trkpt><trkpt lat="53.30337061611895" lon="14.680397982668282"><ele>72.0</ele><time>2026-03-28T10:58:20.99Z</time></trkpt><trkpt lat="53.303269708166034" lon="14.680430357974364"><ele>72.0</ele><time>2026-03-28T10:58:23.99Z</time></trkpt><trkpt lat="53.30317065058527" lon="14.680320932899205"><ele>72.0</ele><time>2026-03-28T10:58:48.99Z</time></trkpt><trkpt lat="53.30306265730254" lon="14.680299730787295"><ele>71.5</ele><time>2026-03-28T10:58:51.99Z</time></trkpt><trkpt lat="53.3029678333454" lon="14.680337844822947"><ele>71.0</ele><time>2026-03-28T10:58:54.99Z</time></trkpt><trkpt lat="53.302897568952275" lon="14.68035723863056"><ele>70.5</ele><time>2026-03-28T10:58:57.99Z</time></trkpt><trkpt lat="53.302836897659375" lon="14.680422873355578"><ele>70.0</ele><time>2026-03-28T10:59:02.991Z</time></trkpt><trkpt lat="53.30278695493025" lon="14.680510668865677"><ele>69.5</ele><time>2026-03-28T10:59:13.991Z</time></trkpt><trkpt lat="53.302779390572006" lon="14.680634929851344"><ele>69.0</ele><time>2026-03-28T10:59:20.991Z</time></trkpt><trkpt lat="53.30272465015104" lon="14.680751935998998"><ele>69.0</ele><time>2026-03-28T10:59:49.989Z</time></trkpt><trkpt lat="53.302677530156444" lon="14.680667712971703"><ele>69.0</ele><time>2026-03-28T11:03:22.989Z</time></trkpt><trkpt lat="53.302695606006765" lon="14.680769537212143"><ele>69.0</ele><time>2026-03-28T11:06:11.988Z</time></trkpt><trkpt lat="53.3026387129169" lon="14.680826220448742"><ele>69.0</ele><time>2026-03-28T11:06:59.989Z</time></trkpt><trkpt lat="53.302692945343374" lon="14.680882181374443"><ele>69.0</ele><time>2026-03-28T11:11:33.989Z</time></trkpt><trkpt lat="53.302706001188604" lon="14.680742826343984"><ele>69.0</ele><time>2026-03-28T11:12:12.987Z</time></trkpt><trkpt lat="53.3027083008039" lon="14.680613299032895"><ele>69.0</ele><time>2026-03-28T11:13:05.985Z</time></trkpt><trkpt lat="53.30274512629578" lon="14.680705590028376"><ele>69.0</ele><time>2026-03-28T11:14:00.986Z</time></trkpt><trkpt lat="53.30275059984911" lon="14.68082127610937"><ele>69.0</ele><time>2026-03-28T11:15:25.985Z</time></trkpt><trkpt lat="53.302759324668045" lon="14.680697567346687"><ele>69.0</ele><time>2026-03-28T11:16:07.985Z</time></trkpt><trkpt lat="53.302700561693676" lon="14.680752198171428"><ele>69.0</ele><time>2026-03-28T11:16:23.984Z</time></trkpt><trkpt lat="53.3026337083748" lon="14.68080078602048"><ele>69.0</ele><time>2026-03-28T11:19:19.984Z</time></trkpt><trkpt lat="53.30262839330984" lon="14.680919858171375"><ele>69.0</ele><time>2026-03-28T11:19:36.984Z</time></trkpt><trkpt lat="53.30267350481115" lon="14.680995015319256"><ele>69.0</ele><time>2026-03-28T11:19:46.984Z</time></trkpt><trkpt lat="53.30271767356175" lon="14.681073592413998"><ele>69.0</ele><time>2026-03-28T11:19:54.984Z</time></trkpt><trkpt lat="53.30264803552003" lon="14.681102991778614"><ele>69.0</ele><time>2026-03-28T11:20:04.984Z</time></trkpt><trkpt lat="53.30258706990943" lon="14.681069566179088"><ele>69.0</ele><time>2026-03-28T11:20:08.984Z</time></trkpt><trkpt lat="53.30255844744528" lon="14.68097131537919"><ele>69.0</ele><time>2026-03-28T11:23:24.982Z</time></trkpt><trkpt lat="53.30250375691199" lon="14.680904932567334"><ele>69.0</ele><time>2026-03-28T11:27:04.981Z</time></trkpt><trkpt lat="53.30241285475537" lon="14.680855766285772"><ele>69.0</ele><time>2026-03-28T11:27:06.981Z</time></trkpt><trkpt lat="53.30231393909557" lon="14.680729182967047"><ele>67.75</ele><time>2026-03-28T11:27:07.981Z</time></trkpt><trkpt lat="53.30221201166107" lon="14.680562578044187"><ele>66.5</ele><time>2026-03-28T11:27:08.981Z</time></trkpt><trkpt lat="53.30210616152769" lon="14.68045096344881"><ele>65.25</ele><time>2026-03-28T11:27:09.981Z</time></trkpt><trkpt lat="53.30218176499886" lon="14.680657947493794"><ele>64.0</ele><time>2026-03-28T11:27:11.981Z</time></trkpt><trkpt lat="53.302104180447586" lon="14.680691370424544"><ele>64.0</ele><time>2026-03-28T11:27:15.981Z</time></trkpt><trkpt lat="53.30196683102884" lon="14.6807622035717"><ele>64.0</ele><time>2026-03-28T11:27:17.981Z</time></trkpt><trkpt lat="53.30181219053355" lon="14.680865521799578"><ele>64.0</ele><time>2026-03-28T11:27:18.981Z</time></trkpt><trkpt lat="53.30166848952581" lon="14.680938212596022"><ele>63.99999999999999</ele><time>2026-03-28T11:27:19.981Z</time></trkpt><trkpt lat="53.30157306556736" lon="14.680979100949687"><ele>64.0</ele><time>2026-03-28T11:27:20.981Z</time></trkpt><trkpt lat="53.30149831232858" lon="14.681020911676734"><ele>64.0</ele><time>2026-03-28T11:27:21.981Z</time></trkpt><trkpt lat="53.301393602384124" lon="14.681055299007912"><ele>64.0</ele><time>2026-03-28T11:27:23.981Z</time></trkpt><trkpt lat="53.30140442957595" lon="14.680948734944137"><ele>63.99999999999999</ele><time>2026-03-28T11:27:43.982Z</time></trkpt><trkpt lat="53.30133629342099" lon="14.680967758847457"><ele>64.0</ele><time>2026-03-28T11:29:45.981Z</time></trkpt><trkpt lat="53.30122357217172" lon="14.681004810332448"><ele>62.800000000000004</ele><time>2026-03-28T11:29:47.981Z</time></trkpt><trkpt lat="53.301141815862124" lon="14.680994741448956"><ele>61.60000000000001</ele><time>2026-03-28T11:29:50.981Z</time></trkpt><trkpt lat="53.30106654486787" lon="14.680979924203852"><ele>60.4</ele><time>2026-03-28T11:29:51.981Z</time></trkpt><trkpt lat="53.30098631842124" lon="14.680955369723884"><ele>59.2</ele><time>2026-03-28T11:29:52.981Z</time></trkpt><trkpt lat="53.300896384834815" lon="14.680938380599434"><ele>58.0</ele><time>2026-03-28T11:29:53.981Z</time></trkpt><trkpt lat="53.30077055310647" lon="14.680957590626997"><ele>58.0</ele><time>2026-03-28T11:29:54.981Z</time></trkpt><trkpt lat="53.30065275180415" lon="14.680955809307033"><ele>58.0</ele><time>2026-03-28T11:29:55.981Z</time></trkpt><trkpt lat="53.300569460504555" lon="14.680940021302947"><ele>58.0</ele><time>2026-03-28T11:29:56.981Z</time></trkpt><trkpt lat="53.30047410591325" lon="14.680946984489934"><ele>58.0</ele><time>2026-03-28T11:29:57.981Z</time></trkpt><trkpt lat="53.30038759848657" lon="14.68093650964323"><ele>58.0</ele><time>2026-03-28T11:29:58.981Z</time></trkpt><trkpt lat="53.30031207509392" lon="14.680924016081121"><ele>57.49999999999999</ele><time>2026-03-28T11:29:59.981Z</time></trkpt><trkpt lat="53.30024577293075" lon="14.680907564496248"><ele>57.0</ele><time>2026-03-28T11:30:00.981Z</time></trkpt><trkpt lat="53.30016630479352" lon="14.680937174830287"><ele>56.5</ele><time>2026-03-28T11:30:01.981Z</time></trkpt><trkpt lat="53.300086920740036" lon="14.680959901122598"><ele>56.0</ele><time>2026-03-28T11:30:02.981Z</time></trkpt><trkpt lat="53.30001518875493" lon="14.680993737365753"><ele>55.49999999999999</ele><time>2026-03-28T11:30:03.981Z</time></trkpt><trkpt lat="53.29994063145309" lon="14.681012687423827"><ele>55.0</ele><time>2026-03-28T11:30:04.981Z</time></trkpt><trkpt lat="53.29986232334343" lon="14.681052430770299"><ele>54.99999999999999</ele><time>2026-03-28T11:30:05.981Z</time></trkpt><trkpt lat="53.29975763477393" lon="14.681089485404518"><ele>55.0</ele><time>2026-03-28T11:30:07.981Z</time></trkpt><trkpt lat="53.299659477227124" lon="14.681119940584756"><ele>55.0</ele><time>2026-03-28T11:30:09.981Z</time></trkpt><trkpt lat="53.299589562327945" lon="14.681149623036209"><ele>55.0</ele><time>2026-03-28T11:30:11.981Z</time></trkpt><trkpt lat="53.299525436447276" lon="14.68109397950885"><ele>54.99999999999999</ele><time>2026-03-28T11:30:15.981Z</time></trkpt><trkpt lat="53.299452323934055" lon="14.681060625215169"><ele>55.0</ele><time>2026-03-28T11:30:52.982Z</time></trkpt><trkpt lat="53.299378126710394" lon="14.681092617843476"><ele>54.83333333333333</ele><time>2026-03-28T11:30:55.982Z</time></trkpt><trkpt lat="53.299306010056064" lon="14.681096745704446"><ele>54.666666666666664</ele><time>2026-03-28T11:30:56.982Z</time></trkpt><trkpt lat="53.299237522537325" lon="14.68110277694112"><ele>54.5</ele><time>2026-03-28T11:30:57.982Z</time></trkpt><trkpt lat="53.2991582047019" lon="14.681075595797159"><ele>54.33333333333333</ele><time>2026-03-28T11:30:58.982Z</time></trkpt><trkpt lat="53.299081984476736" lon="14.681066439480317"><ele>54.166666666666664</ele><time>2026-03-28T11:30:59.982Z</time></trkpt><trkpt lat="53.298996641321" lon="14.681046751830047"><ele>54.0</ele><time>2026-03-28T11:31:00.982Z</time></trkpt><trkpt lat="53.298905798258744" lon="14.681004456542402"><ele>51.800000000000004</ele><time>2026-03-28T11:31:01.982Z</time></trkpt><trkpt lat="53.29880824843111" lon="14.680930806966927"><ele>49.60000000000001</ele><time>2026-03-28T11:31:02.982Z</time></trkpt><trkpt lat="53.29871340961383" lon="14.680817967820772"><ele>47.4</ele><time>2026-03-28T11:31:03.982Z</time></trkpt><trkpt lat="53.29862265210482" lon="14.680705983300971"><ele>45.2</ele><time>2026-03-28T11:31:04.98Z</time></trkpt><trkpt lat="53.29853418033415" lon="14.680596507077516"><ele>43.0</ele><time>2026-03-28T11:31:05.98Z</time></trkpt><trkpt lat="53.298448020172394" lon="14.680504259935786"><ele>43.0</ele><time>2026-03-28T11:31:06.98Z</time></trkpt><trkpt lat="53.29839054132759" lon="14.680441213929722"><ele>43.0</ele><time>2026-03-28T11:31:07.98Z</time></trkpt><trkpt lat="53.29832275055836" lon="14.680429575806015"><ele>43.0</ele><time>2026-03-28T11:31:11.98Z</time></trkpt><trkpt lat="53.29825893168968" lon="14.680527045463597"><ele>43.0</ele><time>2026-03-28T11:31:13.98Z</time></trkpt><trkpt lat="53.29819279248667" lon="14.680643278977062"><ele>43.0</ele><time>2026-03-28T11:31:14.98Z</time></trkpt><trkpt lat="53.298131530873434" lon="14.680741243733399"><ele>43.0</ele><time>2026-03-28T11:31:15.98Z</time></trkpt><trkpt lat="53.29807481043864" lon="14.680828096807653"><ele>43.0</ele><time>2026-03-28T11:31:16.98Z</time></trkpt><trkpt lat="53.29801953536913" lon="14.680907849981724"><ele>43.0</ele><time>2026-03-28T11:31:17.98Z</time></trkpt><trkpt lat="53.29795547772562" lon="14.68099217112166"><ele>43.0</ele><time>2026-03-28T11:31:18.98Z</time></trkpt><trkpt lat="53.29790244769785" lon="14.681090070089699"><ele>43.0</ele><time>2026-03-28T11:31:19.98Z</time></trkpt><trkpt lat="53.29789028778832" lon="14.68120972743724"><ele>43.0</ele><time>2026-03-28T11:31:20.98Z</time></trkpt><trkpt lat="53.2978699058605" lon="14.681429841017906"><ele>43.0</ele><time>2026-03-28T11:31:22.98Z</time></trkpt><trkpt lat="53.29787115318636" lon="14.681597092708405"><ele>42.5</ele><time>2026-03-28T11:31:23.98Z</time></trkpt><trkpt lat="53.297886033946696" lon="14.68178737957837"><ele>42.0</ele><time>2026-03-28T11:31:24.98Z</time></trkpt><trkpt lat="53.29789800102668" lon="14.682002624125502"><ele>41.5</ele><time>2026-03-28T11:31:25.98Z</time></trkpt><trkpt lat="53.29790815471916" lon="14.682232293771518"><ele>41.0</ele><time>2026-03-28T11:31:26.98Z</time></trkpt><trkpt lat="53.29792302018583" lon="14.682477496410733"><ele>40.4</ele><time>2026-03-28T11:31:27.98Z</time></trkpt><trkpt lat="53.29794302833534" lon="14.682688269581682"><ele>39.8</ele><time>2026-03-28T11:31:28.98Z</time></trkpt><trkpt lat="53.29796708665973" lon="14.682862060632711"><ele>39.199999999999996</ele><time>2026-03-28T11:31:29.98Z</time></trkpt><trkpt lat="53.29799801984257" lon="14.683040828330151"><ele>38.599999999999994</ele><time>2026-03-28T11:31:30.98Z</time></trkpt><trkpt lat="53.29801425789503" lon="14.683177676402167"><ele>38.0</ele><time>2026-03-28T11:31:31.98Z</time></trkpt><trkpt lat="53.298039580398715" lon="14.683317420764737"><ele>38.0</ele><time>2026-03-28T11:31:32.98Z</time></trkpt><trkpt lat="53.298056092576665" lon="14.683452552942597"><ele>38.0</ele><time>2026-03-28T11:31:33.98Z</time></trkpt><trkpt lat="53.29807726287159" lon="14.68360803575817"><ele>38.0</ele><time>2026-03-28T11:31:34.98Z</time></trkpt><trkpt lat="53.29809931035534" lon="14.68380017159527"><ele>38.0</ele><time>2026-03-28T11:31:35.98Z</time></trkpt><trkpt lat="53.298120318664786" lon="14.683996842351437"><ele>38.0</ele><time>2026-03-28T11:31:36.98Z</time></trkpt><trkpt lat="53.2981348471898" lon="14.684185240488025"><ele>38.199999999999996</ele><time>2026-03-28T11:31:37.98Z</time></trkpt><trkpt lat="53.29814073511971" lon="14.684364941332785"><ele>38.4</ele><time>2026-03-28T11:31:38.98Z</time></trkpt><trkpt lat="53.298128493965194" lon="14.68453112684514"><ele>38.599999999999994</ele><time>2026-03-28T11:31:39.98Z</time></trkpt><trkpt lat="53.298137880760216" lon="14.684683148321012"><ele>38.8</ele><time>2026-03-28T11:31:40.98Z</time></trkpt><trkpt lat="53.29814706467155" lon="14.684817267674662"><ele>39.0</ele><time>2026-03-28T11:31:41.98Z</time></trkpt><trkpt lat="53.298140605974275" lon="14.68498588691758"><ele>39.6</ele><time>2026-03-28T11:31:42.98Z</time></trkpt><trkpt lat="53.298122556926295" lon="14.685162516680405"><ele>40.2</ele><time>2026-03-28T11:31:43.98Z</time></trkpt><trkpt lat="53.29810874522165" lon="14.685318046746648"><ele>40.800000000000004</ele><time>2026-03-28T11:31:44.98Z</time></trkpt><trkpt lat="53.29809002279056" lon="14.685476924271839"><ele>41.4</ele><time>2026-03-28T11:31:45.98Z</time></trkpt><trkpt lat="53.2979916660875" lon="14.68556529074415"><ele>42.0</ele><time>2026-03-28T11:31:46.98Z</time></trkpt><trkpt lat="53.29795075487808" lon="14.685749758448335"><ele>43.6</ele><time>2026-03-28T11:31:48.98Z</time></trkpt><trkpt lat="53.29792105823118" lon="14.685875890973772"><ele>45.2</ele><time>2026-03-28T11:31:49.98Z</time></trkpt><trkpt lat="53.29787771087966" lon="14.686055171066242"><ele>46.8</ele><time>2026-03-28T11:31:50.98Z</time></trkpt><trkpt lat="53.297843724123425" lon="14.686269040518452"><ele>48.4</ele><time>2026-03-28T11:31:51.98Z</time></trkpt><trkpt lat="53.29779080530148" lon="14.686450123195243"><ele>50.0</ele><time>2026-03-28T11:31:52.98Z</time></trkpt><trkpt lat="53.297750724885006" lon="14.686637141546397"><ele>51.0</ele><time>2026-03-28T11:31:53.98Z</time></trkpt><trkpt lat="53.297705889677324" lon="14.686837278845951"><ele>52.0</ele><time>2026-03-28T11:31:54.98Z</time></trkpt><trkpt lat="53.29765706068656" lon="14.687036808524457"><ele>53.0</ele><time>2026-03-28T11:31:55.98Z</time></trkpt><trkpt lat="53.29760689991061" lon="14.687243216927717"><ele>54.0</ele><time>2026-03-28T11:31:56.98Z</time></trkpt><trkpt lat="53.29755108997854" lon="14.687444665610846"><ele>54.0</ele><time>2026-03-28T11:31:57.98Z</time></trkpt><trkpt lat="53.2974978834515" lon="14.687663117809395"><ele>54.0</ele><time>2026-03-28T11:31:58.98Z</time></trkpt><trkpt lat="53.29743514003245" lon="14.687912934537103"><ele>54.0</ele><time>2026-03-28T11:31:59.98Z</time></trkpt><trkpt lat="53.29736956932709" lon="14.688178147670888"><ele>53.66666666666667</ele><time>2026-03-28T11:32:00.98Z</time></trkpt><trkpt lat="53.29731232648171" lon="14.688412622923309"><ele>53.333333333333336</ele><time>2026-03-28T11:32:01.98Z</time></trkpt><trkpt lat="53.29724929156124" lon="14.688664333876526"><ele>53.0</ele><time>2026-03-28T11:32:02.98Z</time></trkpt><trkpt lat="53.29719619341149" lon="14.688878185519181"><ele>52.75</ele><time>2026-03-28T11:32:03.98Z</time></trkpt><trkpt lat="53.29714266182481" lon="14.68908759434323"><ele>52.5</ele><time>2026-03-28T11:32:04.98Z</time></trkpt><trkpt lat="53.29708770838478" lon="14.689314051773053"><ele>52.25</ele><time>2026-03-28T11:32:05.98Z</time></trkpt><trkpt lat="53.297015041219076" lon="14.689553234432713"><ele>52.0</ele><time>2026-03-28T11:32:06.98Z</time></trkpt><trkpt lat="53.29697308970842" lon="14.689773216429748"><ele>51.75</ele><time>2026-03-28T11:32:07.98Z</time></trkpt><trkpt lat="53.296920586759825" lon="14.689959495863855"><ele>51.5</ele><time>2026-03-28T11:32:08.98Z</time></trkpt><trkpt lat="53.29687645671098" lon="14.690172621526925"><ele>51.25</ele><time>2026-03-28T11:32:09.98Z</time></trkpt><trkpt lat="53.296817521022284" lon="14.690408347315499"><ele>51.0</ele><time>2026-03-28T11:32:10.98Z</time></trkpt><trkpt lat="53.29676882659577" lon="14.690611439916117"><ele>50.8</ele><time>2026-03-28T11:32:11.98Z</time></trkpt><trkpt lat="53.29673047847676" lon="14.690820908518617"><ele>50.599999999999994</ele><time>2026-03-28T11:32:12.98Z</time></trkpt><trkpt lat="53.29668895978005" lon="14.691013979573077"><ele>50.4</ele><time>2026-03-28T11:32:13.98Z</time></trkpt><trkpt lat="53.296733145059584" lon="14.691177896779841"><ele>50.2</ele><time>2026-03-28T11:32:14.98Z</time></trkpt><trkpt lat="53.29675303595154" lon="14.691304686330815"><ele>50.0</ele><time>2026-03-28T11:32:15.98Z</time></trkpt><trkpt lat="53.29676461132473" lon="14.691411019305114"><ele>50.5</ele><time>2026-03-28T11:32:16.98Z</time></trkpt><trkpt lat="53.296803066017006" lon="14.691540426797761"><ele>51.0</ele><time>2026-03-28T11:32:17.98Z</time></trkpt><trkpt lat="53.29682490373585" lon="14.691763260736538"><ele>51.5</ele><time>2026-03-28T11:32:19.98Z</time></trkpt><trkpt lat="53.29686119143203" lon="14.691933616459195"><ele>52.0</ele><time>2026-03-28T11:32:20.98Z</time></trkpt><trkpt lat="53.296891661839695" lon="14.692134289534177"><ele>52.0</ele><time>2026-03-28T11:32:21.98Z</time></trkpt><trkpt lat="53.29692730859175" lon="14.692366175548578"><ele>52.0</ele><time>2026-03-28T11:32:22.98Z</time></trkpt><trkpt lat="53.29696730906285" lon="14.692620660443836"><ele>52.0</ele><time>2026-03-28T11:32:23.98Z</time></trkpt><trkpt lat="53.296995449354476" lon="14.692907235593148"><ele>51.666666666666664</ele><time>2026-03-28T11:32:24.98Z</time></trkpt><trkpt lat="53.297051097688" lon="14.693192487986817"><ele>51.33333333333333</ele><time>2026-03-28T11:32:25.98Z</time></trkpt><trkpt lat="53.29709721297832" lon="14.693516854588786"><ele>51.0</ele><time>2026-03-28T11:32:26.98Z</time></trkpt><trkpt lat="53.297140018804306" lon="14.693800419605317"><ele>51.0</ele><time>2026-03-28T11:32:27.98Z</time></trkpt><trkpt lat="53.29718699845929" lon="14.694032765675615"><ele>51.0</ele><time>2026-03-28T11:32:28.98Z</time></trkpt><trkpt lat="53.29720771744694" lon="14.694237395262837"><ele>51.0</ele><time>2026-03-28T11:32:29.98Z</time></trkpt><trkpt lat="53.29723289739756" lon="14.694428039113697"><ele>51.0</ele><time>2026-03-28T11:32:30.98Z</time></trkpt><trkpt lat="53.2972536886135" lon="14.694599158835885"><ele>51.0</ele><time>2026-03-28T11:32:31.98Z</time></trkpt><trkpt lat="53.297271821114464" lon="14.69477786483901"><ele>51.0</ele><time>2026-03-28T11:32:32.98Z</time></trkpt><trkpt lat="53.29729770437087" lon="14.69491345024379"><ele>51.0</ele><time>2026-03-28T11:32:33.98Z</time></trkpt><trkpt lat="53.297306608940204" lon="14.695061205032738"><ele>51.0</ele><time>2026-03-28T11:32:34.98Z</time></trkpt><trkpt lat="53.29731688855829" lon="14.695187957577547"><ele>51.0</ele><time>2026-03-28T11:32:35.98Z</time></trkpt><trkpt lat="53.29730534995091" lon="14.695328965846457"><ele>51.0</ele><time>2026-03-28T11:32:36.98Z</time></trkpt><trkpt lat="53.29730701366446" lon="14.69550111140032"><ele>51.5</ele><time>2026-03-28T11:32:37.98Z</time></trkpt><trkpt lat="53.29730451902439" lon="14.695654348402668"><ele>52.0</ele><time>2026-03-28T11:32:38.98Z</time></trkpt><trkpt lat="53.29731644022986" lon="14.695777087783235"><ele>52.5</ele><time>2026-03-28T11:32:39.98Z</time></trkpt><trkpt lat="53.29730579085347" lon="14.695900730517943"><ele>53.0</ele><time>2026-03-28T11:32:40.98Z</time></trkpt><trkpt lat="53.29730513566007" lon="14.69601352211993"><ele>53.5</ele><time>2026-03-28T11:32:41.98Z</time></trkpt><trkpt lat="53.297292261386644" lon="14.696158215009664"><ele>54.0</ele><time>2026-03-28T11:32:43.98Z</time></trkpt><trkpt lat="53.297298348531854" lon="14.696019839911235"><ele>54.0</ele><time>2026-03-28T11:34:28.98Z</time></trkpt><trkpt lat="53.29731487170206" lon="14.695783494470035"><ele>54.00000000000001</ele><time>2026-03-28T11:34:30.98Z</time></trkpt><trkpt lat="53.29730993429658" lon="14.695650427072064"><ele>54.00000000000001</ele><time>2026-03-28T11:34:31.98Z</time></trkpt><trkpt lat="53.29731341860096" lon="14.695521218663794"><ele>54.0</ele><time>2026-03-28T11:34:32.98Z</time></trkpt><trkpt lat="53.29731277980132" lon="14.695383429908357"><ele>54.0</ele><time>2026-03-28T11:34:33.98Z</time></trkpt><trkpt lat="53.29731319274265" lon="14.695225547332662"><ele>53.400000000000006</ele><time>2026-03-28T11:34:34.98Z</time></trkpt><trkpt lat="53.297340478221784" lon="14.695109406435956"><ele>52.800000000000004</ele><time>2026-03-28T11:34:35.98Z</time></trkpt><trkpt lat="53.29732538728307" lon="14.694965177105047"><ele>52.2</ele><time>2026-03-28T11:34:36.98Z</time></trkpt><trkpt lat="53.29730088852945" lon="14.694749475128893"><ele>51.599999999999994</ele><time>2026-03-28T11:34:38.98Z</time></trkpt><trkpt lat="53.29728731788393" lon="14.694610682527454"><ele>51.0</ele><time>2026-03-28T11:34:39.98Z</time></trkpt><trkpt lat="53.29725974821186" lon="14.694486499544459"><ele>50.4</ele><time>2026-03-28T11:34:40.98Z</time></trkpt><trkpt lat="53.297233114139715" lon="14.694367046581862"><ele>49.8</ele><time>2026-03-28T11:34:41.98Z</time></trkpt><trkpt lat="53.29721235338438" lon="14.694212753283079"><ele>49.199999999999996</ele><time>2026-03-28T11:34:42.98Z</time></trkpt><trkpt lat="53.29717706145415" lon="14.694035836209046"><ele>48.599999999999994</ele><time>2026-03-28T11:34:43.98Z</time></trkpt><trkpt lat="53.29715936280932" lon="14.693903622151364"><ele>48.0</ele><time>2026-03-28T11:34:44.98Z</time></trkpt><trkpt lat="53.29713491169094" lon="14.693760721419867"><ele>48.0</ele><time>2026-03-28T11:34:45.98Z</time></trkpt><trkpt lat="53.29710024935214" lon="14.693617747745538"><ele>48.0</ele><time>2026-03-28T11:34:46.98Z</time></trkpt><trkpt lat="53.29707643312893" lon="14.69349468589726"><ele>48.0</ele><time>2026-03-28T11:34:47.98Z</time></trkpt><trkpt lat="53.297021870079895" lon="14.693303486575777"><ele>48.0</ele><time>2026-03-28T11:34:48.98Z</time></trkpt><trkpt lat="53.296983669125424" lon="14.693101183109567"><ele>48.0</ele><time>2026-03-28T11:34:49.98Z</time></trkpt><trkpt lat="53.29695366215055" lon="14.692913996656983"><ele>48.8</ele><time>2026-03-28T11:34:50.98Z</time></trkpt><trkpt lat="53.296913541286756" lon="14.692748087560302"><ele>49.599999999999994</ele><time>2026-03-28T11:34:51.98Z</time></trkpt><trkpt lat="53.296874584555376" lon="14.692596865013401"><ele>50.400000000000006</ele><time>2026-03-28T11:34:52.98Z</time></trkpt><trkpt lat="53.29684090860092" lon="14.69243600411759"><ele>51.2</ele><time>2026-03-28T11:34:53.98Z</time></trkpt><trkpt lat="53.296800455985505" lon="14.692248618927858"><ele>52.0</ele><time>2026-03-28T11:34:54.98Z</time></trkpt><trkpt lat="53.296899106822416" lon="14.692025783392591"><ele>51.99999999999999</ele><time>2026-03-28T11:34:55.98Z</time></trkpt><trkpt lat="53.296880581206594" lon="14.691903906013966"><ele>52.0</ele><time>2026-03-28T11:34:56.98Z</time></trkpt><trkpt lat="53.296859073320576" lon="14.691762408707897"><ele>52.0</ele><time>2026-03-28T11:34:59.98Z</time></trkpt><trkpt lat="53.29684282596161" lon="14.69165796886978"><ele>52.0</ele><time>2026-03-28T11:35:01.98Z</time></trkpt><trkpt lat="53.296821909762805" lon="14.69152464360036"><ele>51.99999999999999</ele><time>2026-03-28T11:35:03.98Z</time></trkpt><trkpt lat="53.2968044024549" lon="14.691413047526497"><ele>52.0</ele><time>2026-03-28T11:35:05.98Z</time></trkpt><trkpt lat="53.296783308889424" lon="14.691278591650947"><ele>52.0</ele><time>2026-03-28T11:35:08.98Z</time></trkpt><trkpt lat="53.29676594149846" lon="14.69116788749682"><ele>52.0</ele><time>2026-03-28T11:35:13.981Z</time></trkpt><trkpt lat="53.296723624092785" lon="14.691015573218625"><ele>52.0</ele><time>2026-03-28T11:36:13.967Z</time></trkpt><trkpt lat="53.2966386962798" lon="14.69110979191574"><ele>52.0</ele><time>2026-03-28T11:36:23.964Z</time></trkpt><trkpt lat="53.29664386297644" lon="14.691298522009985"><ele>52.0</ele><time>2026-03-28T11:36:25.963Z</time></trkpt><trkpt lat="53.296606506924476" lon="14.6913915274923"><ele>51.99999999999999</ele><time>2026-03-28T11:36:29.962Z</time></trkpt><trkpt lat="53.29653169778248" lon="14.69140608648292"><ele>52.0</ele><time>2026-03-28T11:36:32.962Z</time></trkpt><trkpt lat="53.29643921896058" lon="14.691472819762774"><ele>52.0</ele><time>2026-03-28T11:36:35.961Z</time></trkpt><trkpt lat="53.296360362883306" lon="14.691546254286306"><ele>52.0</ele><time>2026-03-28T11:36:38.961Z</time></trkpt><trkpt lat="53.29627542590602" lon="14.69158160926287"><ele>51.99999999999999</ele><time>2026-03-28T11:36:41.961Z</time></trkpt><trkpt lat="53.29620750167836" lon="14.691585482244832"><ele>52.0</ele><time>2026-03-28T11:36:44.961Z</time></trkpt><trkpt lat="53.29612920686815" lon="14.691622406816764"><ele>51.49999999999999</ele><time>2026-03-28T11:36:47.96Z</time></trkpt><trkpt lat="53.296047182998095" lon="14.691678377245438"><ele>51.0</ele><time>2026-03-28T11:36:50.96Z</time></trkpt><trkpt lat="53.29601103849234" lon="14.691561876121074"><ele>50.5</ele><time>2026-03-28T11:36:56.96Z</time></trkpt><trkpt lat="53.29594066402402" lon="14.691534058563095"><ele>50.0</ele><time>2026-03-28T11:37:00.96Z</time></trkpt><trkpt lat="53.29588411312737" lon="14.691582451371984"><ele>49.49999999999999</ele><time>2026-03-28T11:37:09.96Z</time></trkpt><trkpt lat="53.295831452590136" lon="14.691658730537352"><ele>49.0</ele><time>2026-03-28T11:37:14.96Z</time></trkpt><trkpt lat="53.295757061321886" lon="14.691735609683398"><ele>49.0</ele><time>2026-03-28T11:37:19.96Z</time></trkpt><trkpt lat="53.29582744472593" lon="14.691827033403904"><ele>49.0</ele><time>2026-03-28T11:37:40.958Z</time></trkpt><trkpt lat="53.29588263636165" lon="14.691759397691229"><ele>49.0</ele><time>2026-03-28T11:37:47.958Z</time></trkpt><trkpt lat="53.295983193868906" lon="14.691638900152686"><ele>49.0</ele><time>2026-03-28T11:37:57.958Z</time></trkpt><trkpt lat="53.296154054753615" lon="14.691598293502462"><ele>48.99999999999999</ele><time>2026-03-28T11:38:06.958Z</time></trkpt><trkpt lat="53.29623656318516" lon="14.69157734607524"><ele>49.0</ele><time>2026-03-28T11:38:08.958Z</time></trkpt><trkpt lat="53.296312312154186" lon="14.691553926095043"><ele>49.0</ele><time>2026-03-28T11:38:12.958Z</time></trkpt><trkpt lat="53.296369389786626" lon="14.691599925008585"><ele>49.0</ele><time>2026-03-28T11:38:15.958Z</time></trkpt><trkpt lat="53.29644390767178" lon="14.691605461133102"><ele>48.99999999999999</ele><time>2026-03-28T11:38:18.958Z</time></trkpt><trkpt lat="53.296520659416345" lon="14.691633386188927"><ele>49.0</ele><time>2026-03-28T11:38:21.958Z</time></trkpt><trkpt lat="53.29658837304307" lon="14.691697574278074"><ele>49.42857142857143</ele><time>2026-03-28T11:38:24.958Z</time></trkpt><trkpt lat="53.29663375220709" lon="14.691799508493801"><ele>49.85714285714286</ele><time>2026-03-28T11:38:26.958Z</time></trkpt><trkpt lat="53.296655489378324" lon="14.691907404369605"><ele>50.285714285714285</ele><time>2026-03-28T11:38:28.958Z</time></trkpt><trkpt lat="53.29667875692173" lon="14.69201617547117"><ele>50.714285714285715</ele><time>2026-03-28T11:38:30.958Z</time></trkpt><trkpt lat="53.29669844029599" lon="14.692133316647512"><ele>51.142857142857146</ele><time>2026-03-28T11:38:31.958Z</time></trkpt><trkpt lat="53.29672229122537" lon="14.69223983723345"><ele>51.57142857142857</ele><time>2026-03-28T11:38:32.958Z</time></trkpt><trkpt lat="53.29675945592777" lon="14.692331377101382"><ele>52.0</ele><time>2026-03-28T11:38:33.958Z</time></trkpt><trkpt lat="53.29679358451731" lon="14.692447066330015"><ele>52.0</ele><time>2026-03-28T11:38:34.958Z</time></trkpt><trkpt lat="53.296824887060914" lon="14.692573949191859"><ele>52.0</ele><time>2026-03-28T11:38:35.958Z</time></trkpt><trkpt lat="53.29685514614977" lon="14.692688022485648"><ele>52.0</ele><time>2026-03-28T11:38:36.958Z</time></trkpt><trkpt lat="53.29689403239174" lon="14.692821113355766"><ele>52.0</ele><time>2026-03-28T11:38:37.958Z</time></trkpt><trkpt lat="53.29693758724213" lon="14.692952718581745"><ele>52.0</ele><time>2026-03-28T11:38:38.958Z</time></trkpt><trkpt lat="53.29702608231839" lon="14.693093238743828"><ele>51.8</ele><time>2026-03-28T11:38:39.958Z</time></trkpt><trkpt lat="53.29702824183094" lon="14.693235960862616"><ele>51.6</ele><time>2026-03-28T11:38:40.958Z</time></trkpt><trkpt lat="53.297064772852046" lon="14.693408129109232"><ele>51.4</ele><time>2026-03-28T11:38:41.958Z</time></trkpt><trkpt lat="53.29708492515903" lon="14.693511992028947"><ele>51.199999999999996</ele><time>2026-03-28T11:38:42.958Z</time></trkpt><trkpt lat="53.297104155753125" lon="14.693695265824989"><ele>51.0</ele><time>2026-03-28T11:38:43.958Z</time></trkpt><trkpt lat="53.297149434367675" lon="14.693861444149626"><ele>51.0</ele><time>2026-03-28T11:38:44.958Z</time></trkpt><trkpt lat="53.29719142942322" lon="14.694042067790729"><ele>51.0</ele><time>2026-03-28T11:38:45.958Z</time></trkpt><trkpt lat="53.29724582071317" lon="14.69422844410029"><ele>51.0</ele><time>2026-03-28T11:38:46.958Z</time></trkpt><trkpt lat="53.29728519901246" lon="14.69440525507492"><ele>51.0</ele><time>2026-03-28T11:38:47.958Z</time></trkpt><trkpt lat="53.29731255452196" lon="14.694580606293584"><ele>51.0</ele><time>2026-03-28T11:38:48.958Z</time></trkpt><trkpt lat="53.297330103667754" lon="14.694728181696131"><ele>51.0</ele><time>2026-03-28T11:38:49.958Z</time></trkpt><trkpt lat="53.29734949523085" lon="14.694904043370082"><ele>51.0</ele><time>2026-03-28T11:38:50.958Z</time></trkpt><trkpt lat="53.29733818028122" lon="14.695066220633866"><ele>51.0</ele><time>2026-03-28T11:38:51.958Z</time></trkpt><trkpt lat="53.29735349080023" lon="14.695182287018374"><ele>51.0</ele><time>2026-03-28T11:38:52.958Z</time></trkpt><trkpt lat="53.29734097006872" lon="14.695323726015234"><ele>51.599999999999994</ele><time>2026-03-28T11:38:53.958Z</time></trkpt><trkpt lat="53.29730726873229" lon="14.695500273911977"><ele>52.2</ele><time>2026-03-28T11:38:54.958Z</time></trkpt><trkpt lat="53.29730427995006" lon="14.695666168561917"><ele>52.800000000000004</ele><time>2026-03-28T11:38:55.958Z</time></trkpt><trkpt lat="53.29731662058368" lon="14.695790488283428"><ele>53.400000000000006</ele><time>2026-03-28T11:38:56.958Z</time></trkpt><trkpt lat="53.297304201841264" lon="14.69593284067723"><ele>54.0</ele><time>2026-03-28T11:38:57.958Z</time></trkpt><trkpt lat="53.2972971010385" lon="14.696133678150707"><ele>54.25</ele><time>2026-03-28T11:38:58.958Z</time></trkpt><trkpt lat="53.297285828957456" lon="14.696310763829812"><ele>54.5</ele><time>2026-03-28T11:38:59.958Z</time></trkpt><trkpt lat="53.29726737805388" lon="14.696527751112"><ele>54.75</ele><time>2026-03-28T11:39:00.958Z</time></trkpt><trkpt lat="53.29724461786495" lon="14.696767657788568"><ele>55.0</ele><time>2026-03-28T11:39:01.958Z</time></trkpt><trkpt lat="53.29721736693593" lon="14.69702078467127"><ele>53.666666666666664</ele><time>2026-03-28T11:39:02.958Z</time></trkpt><trkpt lat="53.297182957732865" lon="14.697302905048124"><ele>52.33333333333333</ele><time>2026-03-28T11:39:03.958Z</time></trkpt><trkpt lat="53.29713524094083" lon="14.697581078640791"><ele>51.0</ele><time>2026-03-28T11:39:04.958Z</time></trkpt><trkpt lat="53.29710707858106" lon="14.697815332497475"><ele>50.599999999999994</ele><time>2026-03-28T11:39:05.958Z</time></trkpt><trkpt lat="53.29708055466256" lon="14.698008473962068"><ele>50.2</ele><time>2026-03-28T11:39:06.958Z</time></trkpt><trkpt lat="53.29705568664238" lon="14.69815636496631"><ele>49.8</ele><time>2026-03-28T11:39:07.958Z</time></trkpt><trkpt lat="53.29702103891282" lon="14.698322563244139"><ele>49.400000000000006</ele><time>2026-03-28T11:39:08.958Z</time></trkpt><trkpt lat="53.29698919828147" lon="14.698453405697064"><ele>49.0</ele><time>2026-03-28T11:39:09.958Z</time></trkpt><trkpt lat="53.29696254259692" lon="14.698623989134383"><ele>49.0</ele><time>2026-03-28T11:39:10.958Z</time></trkpt><trkpt lat="53.29690222383812" lon="14.698829514519991"><ele>49.0</ele><time>2026-03-28T11:39:11.958Z</time></trkpt><trkpt lat="53.296854584820565" lon="14.699020975133687"><ele>49.0</ele><time>2026-03-28T11:39:12.958Z</time></trkpt><trkpt lat="53.29682674327849" lon="14.699288141008577"><ele>49.0</ele><time>2026-03-28T11:39:13.958Z</time></trkpt><trkpt lat="53.296789370910474" lon="14.69952828466957"><ele>49.33333333333333</ele><time>2026-03-28T11:39:14.958Z</time></trkpt><trkpt lat="53.29674387817016" lon="14.699737015008868"><ele>49.66666666666667</ele><time>2026-03-28T11:39:15.958Z</time></trkpt><trkpt lat="53.2966985446047" lon="14.700024513871268"><ele>50.0</ele><time>2026-03-28T11:39:16.958Z</time></trkpt><trkpt lat="53.29667088428852" lon="14.700293117619818"><ele>51.0</ele><time>2026-03-28T11:39:17.958Z</time></trkpt><trkpt lat="53.29662227061532" lon="14.70057315613698"><ele>52.0</ele><time>2026-03-28T11:39:18.958Z</time></trkpt><trkpt lat="53.296581403556615" lon="14.700793153730991"><ele>53.0</ele><time>2026-03-28T11:39:19.958Z</time></trkpt><trkpt lat="53.296565275455926" lon="14.700996822046648"><ele>54.0</ele><time>2026-03-28T11:39:20.958Z</time></trkpt><trkpt lat="53.296543172791054" lon="14.701208146596864"><ele>55.400000000000006</ele><time>2026-03-28T11:39:21.958Z</time></trkpt><trkpt lat="53.29650517663179" lon="14.701421537534225"><ele>56.800000000000004</ele><time>2026-03-28T11:39:22.958Z</time></trkpt><trkpt lat="53.29644059582999" lon="14.701610484402613"><ele>58.199999999999996</ele><time>2026-03-28T11:39:23.958Z</time></trkpt><trkpt lat="53.29639506830027" lon="14.701725959179191"><ele>59.599999999999994</ele><time>2026-03-28T11:39:24.958Z</time></trkpt><trkpt lat="53.29634917023268" lon="14.701821629932697"><ele>61.0</ele><time>2026-03-28T11:39:25.958Z</time></trkpt><trkpt lat="53.29630257197677" lon="14.701908070668228"><ele>59.8</ele><time>2026-03-28T11:39:26.958Z</time></trkpt><trkpt lat="53.29625931113586" lon="14.701987947333716"><ele>58.599999999999994</ele><time>2026-03-28T11:39:27.958Z</time></trkpt><trkpt lat="53.29619815309581" lon="14.702092935084092"><ele>57.4</ele><time>2026-03-28T11:39:28.957Z</time></trkpt><trkpt lat="53.29609581633418" lon="14.702258618800794"><ele>56.2</ele><time>2026-03-28T11:39:29.958Z</time></trkpt><trkpt lat="53.29598925243966" lon="14.702418629278194"><ele>55.0</ele><time>2026-03-28T11:39:30.958Z</time></trkpt><trkpt lat="53.295904655012535" lon="14.702538295770976"><ele>54.99999999999999</ele><time>2026-03-28T11:39:31.957Z</time></trkpt><trkpt lat="53.29582637676256" lon="14.7026408063243"><ele>55.0</ele><time>2026-03-28T11:39:32.957Z</time></trkpt><trkpt lat="53.295770221107524" lon="14.702735462701467"><ele>55.0</ele><time>2026-03-28T11:39:33.957Z</time></trkpt><trkpt lat="53.295684629308916" lon="14.702812591388108"><ele>55.0</ele><time>2026-03-28T11:39:34.957Z</time></trkpt><trkpt lat="53.29560811461215" lon="14.702862349565534"><ele>54.99999999999999</ele><time>2026-03-28T11:39:35.957Z</time></trkpt><trkpt lat="53.29554063129802" lon="14.702910973540959"><ele>55.0</ele><time>2026-03-28T11:39:36.957Z</time></trkpt><trkpt lat="53.2954075749907" lon="14.70284886550749"><ele>52.75</ele><time>2026-03-28T11:39:38.958Z</time></trkpt><trkpt lat="53.295295078316165" lon="14.702821542369959"><ele>50.5</ele><time>2026-03-28T11:39:39.958Z</time></trkpt><trkpt lat="53.29516324490113" lon="14.702779672202725"><ele>48.25</ele><time>2026-03-28T11:39:40.957Z</time></trkpt><trkpt lat="53.29502462936171" lon="14.70274633906542"><ele>46.0</ele><time>2026-03-28T11:39:41.957Z</time></trkpt><trkpt lat="53.294852630937804" lon="14.702685289419971"><ele>46.0</ele><time>2026-03-28T11:39:42.958Z</time></trkpt><trkpt lat="53.29469581104874" lon="14.702643387121771"><ele>46.0</ele><time>2026-03-28T11:39:43.958Z</time></trkpt><trkpt lat="53.29455496881402" lon="14.702586308432764"><ele>46.0</ele><time>2026-03-28T11:39:44.958Z</time></trkpt><trkpt lat="53.294443967397164" lon="14.702570845972156"><ele>46.0</ele><time>2026-03-28T11:39:45.958Z</time></trkpt><trkpt lat="53.294340572677925" lon="14.70257325347943"><ele>46.0</ele><time>2026-03-28T11:39:46.958Z</time></trkpt><trkpt lat="53.29424590532001" lon="14.702580846171454"><ele>46.0</ele><time>2026-03-28T11:39:47.958Z</time></trkpt><trkpt lat="53.29414468039041" lon="14.702605228165792"><ele>46.0</ele><time>2026-03-28T11:39:48.958Z</time></trkpt><trkpt lat="53.29406476577282" lon="14.702677135154604"><ele>46.0</ele><time>2026-03-28T11:39:49.958Z</time></trkpt><trkpt lat="53.29398748440483" lon="14.702782742966015"><ele>46.0</ele><time>2026-03-28T11:39:50.958Z</time></trkpt><trkpt lat="53.293914819322985" lon="14.702897888949634"><ele>45.199999999999996</ele><time>2026-03-28T11:39:51.958Z</time></trkpt><trkpt lat="53.29385586949328" lon="14.703021717598563"><ele>44.4</ele><time>2026-03-28T11:39:52.958Z</time></trkpt><trkpt lat="53.293786845127926" lon="14.703147066445835"><ele>43.6</ele><time>2026-03-28T11:39:53.958Z</time></trkpt><trkpt lat="53.293746004011034" lon="14.703277209634495"><ele>42.8</ele><time>2026-03-28T11:39:54.958Z</time></trkpt><trkpt lat="53.293691204533545" lon="14.70340058662552"><ele>42.0</ele><time>2026-03-28T11:39:55.958Z</time></trkpt><trkpt lat="53.293640865885344" lon="14.703527686917706"><ele>43.2</ele><time>2026-03-28T11:39:56.958Z</time></trkpt><trkpt lat="53.29358186401049" lon="14.703663516584601"><ele>44.400000000000006</ele><time>2026-03-28T11:39:57.958Z</time></trkpt><trkpt lat="53.293530395058305" lon="14.703805546212628"><ele>45.599999999999994</ele><time>2026-03-28T11:39:58.958Z</time></trkpt><trkpt lat="53.293454721892026" lon="14.703959514700543"><ele>46.8</ele><time>2026-03-28T11:39:59.958Z</time></trkpt><trkpt lat="53.29340409740491" lon="14.704132146961836"><ele>48.0</ele><time>2026-03-28T11:40:00.958Z</time></trkpt><trkpt lat="53.29332692407244" lon="14.70427241452224"><ele>49.75</ele><time>2026-03-28T11:40:01.958Z</time></trkpt><trkpt lat="53.29326119578778" lon="14.704422961458388"><ele>51.5</ele><time>2026-03-28T11:40:02.958Z</time></trkpt><trkpt lat="53.29318752708731" lon="14.704589929160727"><ele>53.25</ele><time>2026-03-28T11:40:03.958Z</time></trkpt><trkpt lat="53.29311543312411" lon="14.704753327729438"><ele>55.0</ele><time>2026-03-28T11:40:04.958Z</time></trkpt><trkpt lat="53.29304105642314" lon="14.704921900070943"><ele>52.5</ele><time>2026-03-28T11:40:05.958Z</time></trkpt><trkpt lat="53.29297563993244" lon="14.70511351506478"><ele>50.0</ele><time>2026-03-28T11:40:06.958Z</time></trkpt><trkpt lat="53.29288167735438" lon="14.705269909333639"><ele>47.5</ele><time>2026-03-28T11:40:07.958Z</time></trkpt><trkpt lat="53.29279538689338" lon="14.705440877645826"><ele>45.0</ele><time>2026-03-28T11:40:08.958Z</time></trkpt><trkpt lat="53.292705211123476" lon="14.705596254021652"><ele>45.0</ele><time>2026-03-28T11:40:09.958Z</time></trkpt><trkpt lat="53.29261445473884" lon="14.705721878478707"><ele>45.0</ele><time>2026-03-28T11:40:10.958Z</time></trkpt><trkpt lat="53.29252116226593" lon="14.705804879553494"><ele>45.0</ele><time>2026-03-28T11:40:11.958Z</time></trkpt><trkpt lat="53.292419572239936" lon="14.705864469226741"><ele>45.0</ele><time>2026-03-28T11:40:12.958Z</time></trkpt><trkpt lat="53.2922863156565" lon="14.705963288374479"><ele>45.2</ele><time>2026-03-28T11:40:13.958Z</time></trkpt><trkpt lat="53.29217865237945" lon="14.706065212394396"><ele>45.4</ele><time>2026-03-28T11:40:14.958Z</time></trkpt><trkpt lat="53.29208340844404" lon="14.706175266104337"><ele>45.599999999999994</ele><time>2026-03-28T11:40:15.958Z</time></trkpt><trkpt lat="53.29199505420286" lon="14.706268542142077"><ele>45.8</ele><time>2026-03-28T11:40:16.958Z</time></trkpt><trkpt lat="53.29191634847498" lon="14.706347727460477"><ele>46.0</ele><time>2026-03-28T11:40:17.958Z</time></trkpt><trkpt lat="53.29184738063046" lon="14.70641831665434"><ele>46.0</ele><time>2026-03-28T11:40:18.958Z</time></trkpt><trkpt lat="53.291772000140526" lon="14.706462920369589"><ele>46.0</ele><time>2026-03-28T11:40:19.958Z</time></trkpt><trkpt lat="53.291687838732464" lon="14.706560563176199"><ele>46.0</ele><time>2026-03-28T11:40:20.958Z</time></trkpt><trkpt lat="53.291624005890505" lon="14.706652542142333"><ele>46.0</ele><time>2026-03-28T11:40:21.958Z</time></trkpt><trkpt lat="53.29156783524709" lon="14.70672800769079"><ele>46.0</ele><time>2026-03-28T11:40:22.958Z</time></trkpt><trkpt lat="53.29150023757902" lon="14.706814963103117"><ele>46.0</ele><time>2026-03-28T11:40:23.958Z</time></trkpt><trkpt lat="53.29142388556201" lon="14.70690736572733"><ele>44.599999999999994</ele><time>2026-03-28T11:40:24.958Z</time></trkpt><trkpt lat="53.291368457574734" lon="14.707003111565403"><ele>43.199999999999996</ele><time>2026-03-28T11:40:25.958Z</time></trkpt><trkpt lat="53.29130901876782" lon="14.707099915239182"><ele>41.8</ele><time>2026-03-28T11:40:26.958Z</time></trkpt><trkpt lat="53.291237129023656" lon="14.707186217667504"><ele>40.4</ele><time>2026-03-28T11:40:28.958Z</time></trkpt><trkpt lat="53.29120253827965" lon="14.707277663903419"><ele>39.0</ele><time>2026-03-28T11:40:30.958Z</time></trkpt><trkpt lat="53.29121146659282" lon="14.706983038487852"><ele>37.8</ele><time>2026-03-28T11:40:35.958Z</time></trkpt><trkpt lat="53.29128446352931" lon="14.70678850249934"><ele>36.599999999999994</ele><time>2026-03-28T11:40:36.958Z</time></trkpt><trkpt lat="53.29135118887407" lon="14.706594498748194"><ele>35.4</ele><time>2026-03-28T11:40:37.958Z</time></trkpt><trkpt lat="53.291403648981124" lon="14.706460209184351"><ele>34.199999999999996</ele><time>2026-03-28T11:40:38.958Z</time></trkpt><trkpt lat="53.29143569647376" lon="14.706335572417542"><ele>33.0</ele><time>2026-03-28T11:40:39.958Z</time></trkpt><trkpt lat="53.29147561634922" lon="14.706187088910012"><ele>33.285714285714285</ele><time>2026-03-28T11:40:41.958Z</time></trkpt><trkpt lat="53.2915137830537" lon="14.706055589129178"><ele>33.57142857142857</ele><time>2026-03-28T11:40:43.958Z</time></trkpt><trkpt lat="53.291482180578804" lon="14.705958662012108"><ele>33.85714285714286</ele><time>2026-03-28T11:40:47.958Z</time></trkpt><trkpt lat="53.29148384027155" lon="14.705843565172499"><ele>34.14285714285714</ele><time>2026-03-28T11:40:50.958Z</time></trkpt><trkpt lat="53.291485373439585" lon="14.70573688220788"><ele>34.42857142857143</ele><time>2026-03-28T11:40:58.958Z</time></trkpt><trkpt lat="53.291450115737575" lon="14.705613893457162"><ele>34.714285714285715</ele><time>2026-03-28T11:41:20.958Z</time></trkpt><trkpt lat="53.29149031511504" lon="14.705712978422783"><ele>35.0</ele><time>2026-03-28T11:52:03.953Z</time></trkpt><trkpt lat="53.29150019810496" lon="14.705841035195935"><ele>35.0</ele><time>2026-03-28T11:52:06.952Z</time></trkpt><trkpt lat="53.29150535782834" lon="14.706014780908328"><ele>35.0</ele><time>2026-03-28T11:52:08.951Z</time></trkpt><trkpt lat="53.29147368256445" lon="14.706132166625238"><ele>35.0</ele><time>2026-03-28T11:52:09.951Z</time></trkpt><trkpt lat="53.29144050230009" lon="14.706242497921457"><ele>35.0</ele><time>2026-03-28T11:52:10.952Z</time></trkpt><trkpt lat="53.291412736951315" lon="14.706346478233296"><ele>35.0</ele><time>2026-03-28T11:52:11.952Z</time></trkpt><trkpt lat="53.29138165639458" lon="14.706482513121793"><ele>35.0</ele><time>2026-03-28T11:52:12.952Z</time></trkpt><trkpt lat="53.29134707085313" lon="14.70659785376182"><ele>34.6</ele><time>2026-03-28T11:52:13.952Z</time></trkpt><trkpt lat="53.291278957853116" lon="14.706766732293488"><ele>34.2</ele><time>2026-03-28T11:52:14.952Z</time></trkpt><trkpt lat="53.29123609760806" lon="14.70691865802836"><ele>33.8</ele><time>2026-03-28T11:52:15.952Z</time></trkpt><trkpt lat="53.29119623224092" lon="14.707039467111757"><ele>33.4</ele><time>2026-03-28T11:52:16.952Z</time></trkpt><trkpt lat="53.29122725116985" lon="14.707201851023143"><ele>33.0</ele><time>2026-03-28T11:52:17.951Z</time></trkpt><trkpt lat="53.29119597015137" lon="14.707307173604345"><ele>34.5</ele><time>2026-03-28T11:52:20.951Z</time></trkpt><trkpt lat="53.29135383751688" lon="14.707212899754557"><ele>36.0</ele><time>2026-03-28T11:52:25.953Z</time></trkpt><trkpt lat="53.291407883484325" lon="14.707049610222594"><ele>37.5</ele><time>2026-03-28T11:52:26.953Z</time></trkpt><trkpt lat="53.291460387032075" lon="14.706936824707668"><ele>39.0</ele><time>2026-03-28T11:52:27.953Z</time></trkpt><trkpt lat="53.291539279499546" lon="14.70677100309622"><ele>40.4</ele><time>2026-03-28T11:52:28.954Z</time></trkpt><trkpt lat="53.291608666067816" lon="14.706638463952823"><ele>41.8</ele><time>2026-03-28T11:52:29.954Z</time></trkpt><trkpt lat="53.29166724956182" lon="14.706522152315605"><ele>43.199999999999996</ele><time>2026-03-28T11:52:30.954Z</time></trkpt><trkpt lat="53.29173699094147" lon="14.706406370087954"><ele>44.599999999999994</ele><time>2026-03-28T11:52:31.954Z</time></trkpt><trkpt lat="53.29181832792484" lon="14.706340714737888"><ele>46.0</ele><time>2026-03-28T11:52:32.955Z</time></trkpt><trkpt lat="53.29192488745641" lon="14.70627329410218"><ele>46.0</ele><time>2026-03-28T11:52:33.955Z</time></trkpt><trkpt lat="53.292028413195574" lon="14.706190503392177"><ele>46.0</ele><time>2026-03-28T11:52:34.955Z</time></trkpt><trkpt lat="53.29214064472806" lon="14.706087791745132"><ele>46.0</ele><time>2026-03-28T11:52:35.955Z</time></trkpt><trkpt lat="53.292270024556544" lon="14.70600083997659"><ele>46.0</ele><time>2026-03-28T11:52:36.955Z</time></trkpt><trkpt lat="53.29240460892592" lon="14.705920100502318"><ele>45.75</ele><time>2026-03-28T11:52:37.956Z</time></trkpt><trkpt lat="53.29253967728938" lon="14.705826436176833"><ele>45.5</ele><time>2026-03-28T11:52:38.956Z</time></trkpt><trkpt lat="53.29266314961864" lon="14.705704494445591"><ele>45.25</ele><time>2026-03-28T11:52:39.956Z</time></trkpt><trkpt lat="53.29277558046245" lon="14.70556789184365"><ele>45.0</ele><time>2026-03-28T11:52:40.956Z</time></trkpt><trkpt lat="53.2928576221829" lon="14.705405199804353"><ele>47.5</ele><time>2026-03-28T11:52:41.956Z</time></trkpt><trkpt lat="53.29294570125839" lon="14.705237740718502"><ele>50.0</ele><time>2026-03-28T11:52:42.956Z</time></trkpt><trkpt lat="53.2930249043513" lon="14.705023508452866"><ele>52.5</ele><time>2026-03-28T11:52:43.956Z</time></trkpt><trkpt lat="53.29311377130845" lon="14.704811004857698"><ele>55.0</ele><time>2026-03-28T11:52:44.956Z</time></trkpt><trkpt lat="53.29322297448515" lon="14.704603165209303"><ele>52.666666666666664</ele><time>2026-03-28T11:52:45.957Z</time></trkpt><trkpt lat="53.293302406317295" lon="14.704386968884561"><ele>50.33333333333333</ele><time>2026-03-28T11:52:46.957Z</time></trkpt><trkpt lat="53.29340261386948" lon="14.704163999122555"><ele>48.0</ele><time>2026-03-28T11:52:47.957Z</time></trkpt><trkpt lat="53.29349521763441" lon="14.703981524178056"><ele>48.0</ele><time>2026-03-28T11:52:48.957Z</time></trkpt><trkpt lat="53.29358404369346" lon="14.703783219291916"><ele>48.0</ele><time>2026-03-28T11:52:49.957Z</time></trkpt><trkpt lat="53.293642919865256" lon="14.703585628148748"><ele>48.0</ele><time>2026-03-28T11:52:50.957Z</time></trkpt><trkpt lat="53.293719869206306" lon="14.703395091057988"><ele>48.0</ele><time>2026-03-28T11:52:51.957Z</time></trkpt><trkpt lat="53.29380636631915" lon="14.703238513883461"><ele>47.599999999999994</ele><time>2026-03-28T11:52:52.957Z</time></trkpt><trkpt lat="53.29387839407615" lon="14.703065238792753"><ele>47.199999999999996</ele><time>2026-03-28T11:52:53.957Z</time></trkpt><trkpt lat="53.29394915059648" lon="14.702899460418976"><ele>46.8</ele><time>2026-03-28T11:52:54.957Z</time></trkpt><trkpt lat="53.29402834331588" lon="14.702802135338052"><ele>46.4</ele><time>2026-03-28T11:52:55.957Z</time></trkpt><trkpt lat="53.29409456180892" lon="14.702721651767282"><ele>46.0</ele><time>2026-03-28T11:52:56.957Z</time></trkpt><trkpt lat="53.29417493176818" lon="14.70264723913597"><ele>46.0</ele><time>2026-03-28T11:52:57.957Z</time></trkpt><trkpt lat="53.29425252792913" lon="14.702619125673268"><ele>46.0</ele><time>2026-03-28T11:52:58.957Z</time></trkpt><trkpt lat="53.294411945773305" lon="14.702627309153074"><ele>46.0</ele><time>2026-03-28T11:53:00.958Z</time></trkpt><trkpt lat="53.294524178053706" lon="14.702613609592897"><ele>46.0</ele><time>2026-03-28T11:53:01.958Z</time></trkpt><trkpt lat="53.29464648332283" lon="14.702652057109516"><ele>46.0</ele><time>2026-03-28T11:53:02.958Z</time></trkpt><trkpt lat="53.29477296229752" lon="14.702672916810167"><ele>46.0</ele><time>2026-03-28T11:53:03.958Z</time></trkpt><trkpt lat="53.29489292743715" lon="14.702718288913584"><ele>46.0</ele><time>2026-03-28T11:53:04.958Z</time></trkpt><trkpt lat="53.295005106171544" lon="14.702763006870992"><ele>46.0</ele><time>2026-03-28T11:53:05.958Z</time></trkpt><trkpt lat="53.29510748759606" lon="14.702805427693306"><ele>50.0</ele><time>2026-03-28T11:53:06.958Z</time></trkpt><trkpt lat="53.29520643523816" lon="14.702830295671067"><ele>54.0</ele><time>2026-03-28T11:53:07.958Z</time></trkpt><trkpt lat="53.29531378922479" lon="14.702854821086047"><ele>57.99999999999999</ele><time>2026-03-28T11:53:08.958Z</time></trkpt><trkpt lat="53.29540826714897" lon="14.702883686880222"><ele>62.0</ele><time>2026-03-28T11:53:09.958Z</time></trkpt><trkpt lat="53.295498845542305" lon="14.702899376621568"><ele>66.0</ele><time>2026-03-28T11:53:10.958Z</time></trkpt><trkpt lat="53.295572762386286" lon="14.702892375860367"><ele>67.0</ele><time>2026-03-28T11:53:12.958Z</time></trkpt><trkpt lat="53.29566278947403" lon="14.702880074287544"><ele>68.0</ele><time>2026-03-28T11:54:12.957Z</time></trkpt><trkpt lat="53.29573516224337" lon="14.702881091056549"><ele>69.0</ele><time>2026-03-28T11:54:14.957Z</time></trkpt><trkpt lat="53.29584452032013" lon="14.702892834739263"><ele>70.0</ele><time>2026-03-28T11:54:16.957Z</time></trkpt><trkpt lat="53.29591462625507" lon="14.702879470965344"><ele>71.0</ele><time>2026-03-28T11:54:17.958Z</time></trkpt><trkpt lat="53.29598672207259" lon="14.702906251430829"><ele>72.0</ele><time>2026-03-28T11:54:18.958Z</time></trkpt><trkpt lat="53.29607591376135" lon="14.70291509643628"><ele>72.0</ele><time>2026-03-28T11:54:19.957Z</time></trkpt><trkpt lat="53.29616785729664" lon="14.702924214339786"><ele>72.0</ele><time>2026-03-28T11:54:20.957Z</time></trkpt><trkpt lat="53.29624209386828" lon="14.702906016211033"><ele>72.0</ele><time>2026-03-28T11:54:21.957Z</time></trkpt><trkpt lat="53.296316576308094" lon="14.702909027267347"><ele>72.0</ele><time>2026-03-28T11:54:22.957Z</time></trkpt><trkpt lat="53.29639349680435" lon="14.702922898212245"><ele>72.0</ele><time>2026-03-28T11:54:23.957Z</time></trkpt><trkpt lat="53.296487786663796" lon="14.702926533744524"><ele>72.0</ele><time>2026-03-28T11:54:24.957Z</time></trkpt><trkpt lat="53.296590995452874" lon="14.702920608507245"><ele>73.8</ele><time>2026-03-28T11:54:25.957Z</time></trkpt><trkpt lat="53.29668641008099" lon="14.702945299367505"><ele>75.6</ele><time>2026-03-28T11:54:26.957Z</time></trkpt><trkpt lat="53.29676594357322" lon="14.702919987305508"><ele>77.39999999999999</ele><time>2026-03-28T11:54:27.957Z</time></trkpt><trkpt lat="53.29685031664746" lon="14.702945743739459"><ele>79.2</ele><time>2026-03-28T11:54:28.957Z</time></trkpt><trkpt lat="53.29694157696706" lon="14.703023937714033"><ele>81.0</ele><time>2026-03-28T11:54:29.957Z</time></trkpt><trkpt lat="53.29702945611985" lon="14.703112957994616"><ele>81.0</ele><time>2026-03-28T11:54:30.957Z</time></trkpt><trkpt lat="53.29710743722284" lon="14.703170329901404"><ele>81.0</ele><time>2026-03-28T11:54:31.957Z</time></trkpt><trkpt lat="53.297213444351755" lon="14.703244836839716"><ele>81.0</ele><time>2026-03-28T11:54:32.957Z</time></trkpt><trkpt lat="53.29732075549181" lon="14.703287418389296"><ele>81.0</ele><time>2026-03-28T11:54:33.957Z</time></trkpt><trkpt lat="53.29744519134731" lon="14.703374764419248"><ele>81.0</ele><time>2026-03-28T11:54:34.957Z</time></trkpt><trkpt lat="53.297572151674" lon="14.703438200256"><ele>81.6</ele><time>2026-03-28T11:54:35.957Z</time></trkpt><trkpt lat="53.29768714385952" lon="14.703500287493782"><ele>82.19999999999999</ele><time>2026-03-28T11:54:36.957Z</time></trkpt><trkpt lat="53.29780139190762" lon="14.70356188598758"><ele>82.80000000000001</ele><time>2026-03-28T11:54:37.957Z</time></trkpt><trkpt lat="53.29787489656028" lon="14.703636922322742"><ele>83.4</ele><time>2026-03-28T11:54:38.957Z</time></trkpt><trkpt lat="53.29795063110597" lon="14.703660717663483"><ele>84.0</ele><time>2026-03-28T11:54:39.957Z</time></trkpt><trkpt lat="53.298023686166204" lon="14.703730258388944"><ele>86.2</ele><time>2026-03-28T11:54:40.957Z</time></trkpt><trkpt lat="53.29814428195008" lon="14.703797695308516"><ele>88.4</ele><time>2026-03-28T11:54:41.957Z</time></trkpt><trkpt lat="53.29823749181265" lon="14.703901636764863"><ele>90.6</ele><time>2026-03-28T11:54:42.957Z</time></trkpt><trkpt lat="53.29832735616013" lon="14.703984973909048"><ele>92.8</ele><time>2026-03-28T11:54:43.957Z</time></trkpt><trkpt lat="53.298412150498876" lon="14.70407857566583"><ele>95.0</ele><time>2026-03-28T11:54:44.957Z</time></trkpt><trkpt lat="53.29848766955986" lon="14.704172779975536"><ele>95.0</ele><time>2026-03-28T11:54:45.957Z</time></trkpt><trkpt lat="53.2985731452581" lon="14.704297042485138"><ele>95.0</ele><time>2026-03-28T11:54:46.957Z</time></trkpt><trkpt lat="53.29865428524314" lon="14.704423255390935"><ele>95.0</ele><time>2026-03-28T11:54:47.957Z</time></trkpt><trkpt lat="53.29873210874925" lon="14.70454957854637"><ele>95.0</ele><time>2026-03-28T11:54:48.957Z</time></trkpt><trkpt lat="53.29880840669938" lon="14.704673526602573"><ele>95.0</ele><time>2026-03-28T11:54:49.957Z</time></trkpt><trkpt lat="53.2988790896846" lon="14.704787090736307"><ele>96.2</ele><time>2026-03-28T11:54:50.957Z</time></trkpt><trkpt lat="53.29894664030027" lon="14.704891426229482"><ele>97.4</ele><time>2026-03-28T11:54:51.957Z</time></trkpt><trkpt lat="53.29903231437734" lon="14.70501397461701"><ele>98.6</ele><time>2026-03-28T11:54:52.957Z</time></trkpt><trkpt lat="53.299119983008005" lon="14.705126923742963"><ele>99.8</ele><time>2026-03-28T11:54:53.957Z</time></trkpt><trkpt lat="53.29921514003483" lon="14.70523223459374"><ele>101.0</ele><time>2026-03-28T11:54:54.957Z</time></trkpt><trkpt lat="53.299311750441646" lon="14.705324034480817"><ele>102.0</ele><time>2026-03-28T11:54:55.957Z</time></trkpt><trkpt lat="53.29942688971838" lon="14.70541147868725"><ele>103.0</ele><time>2026-03-28T11:54:56.957Z</time></trkpt><trkpt lat="53.29953467966938" lon="14.705478483069758"><ele>104.0</ele><time>2026-03-28T11:54:57.957Z</time></trkpt><trkpt lat="53.29964428824297" lon="14.705535560421723"><ele>105.0</ele><time>2026-03-28T11:54:58.958Z</time></trkpt><trkpt lat="53.29975897089512" lon="14.705587283909335"><ele>105.0</ele><time>2026-03-28T11:54:59.958Z</time></trkpt><trkpt lat="53.29986884354199" lon="14.70563206859814"><ele>105.0</ele><time>2026-03-28T11:55:00.958Z</time></trkpt><trkpt lat="53.29998754722978" lon="14.705674311329256"><ele>105.0</ele><time>2026-03-28T11:55:01.958Z</time></trkpt><trkpt lat="53.300125431723394" lon="14.705719111262674"><ele>105.0</ele><time>2026-03-28T11:55:02.958Z</time></trkpt><trkpt lat="53.30026561911213" lon="14.705760921584783"><ele>105.0</ele><time>2026-03-28T11:55:03.958Z</time></trkpt><trkpt lat="53.30041114143543" lon="14.705802329021871"><ele>105.0</ele><time>2026-03-28T11:55:04.958Z</time></trkpt><trkpt lat="53.30057353432691" lon="14.705845587354279"><ele>105.0</ele><time>2026-03-28T11:55:05.958Z</time></trkpt><trkpt lat="53.300744851348746" lon="14.705887958733602"><ele>105.66666666666666</ele><time>2026-03-28T11:55:06.958Z</time></trkpt><trkpt lat="53.30091278643965" lon="14.705943440621173"><ele>106.33333333333333</ele><time>2026-03-28T11:55:07.958Z</time></trkpt><trkpt lat="53.30106515425254" lon="14.706011961641154"><ele>107.0</ele><time>2026-03-28T11:55:08.958Z</time></trkpt><trkpt lat="53.301234244294136" lon="14.70611375032408"><ele>107.66666666666666</ele><time>2026-03-28T11:55:09.958Z</time></trkpt><trkpt lat="53.30138784867233" lon="14.706205917256597"><ele>108.33333333333334</ele><time>2026-03-28T11:55:10.958Z</time></trkpt><trkpt lat="53.30155032020674" lon="14.706303247095612"><ele>109.0</ele><time>2026-03-28T11:55:11.958Z</time></trkpt><trkpt lat="53.30169985450042" lon="14.70636406005801"><ele>109.0</ele><time>2026-03-28T11:55:12.958Z</time></trkpt><trkpt lat="53.301808655168834" lon="14.70645795692279"><ele>109.0</ele><time>2026-03-28T11:55:13.958Z</time></trkpt><trkpt lat="53.301933141882074" lon="14.706503115055671"><ele>109.0</ele><time>2026-03-28T11:55:14.958Z</time></trkpt><trkpt lat="53.30204641839408" lon="14.706571012139696"><ele>109.0</ele><time>2026-03-28T11:55:15.958Z</time></trkpt><trkpt lat="53.30214677722597" lon="14.706626103420643"><ele>109.2</ele><time>2026-03-28T11:55:16.958Z</time></trkpt><trkpt lat="53.30225086549877" lon="14.706654624007992"><ele>109.4</ele><time>2026-03-28T11:55:17.958Z</time></trkpt><trkpt lat="53.302356967122385" lon="14.706705225095863"><ele>109.6</ele><time>2026-03-28T11:55:18.958Z</time></trkpt><trkpt lat="53.30246204321158" lon="14.706754183906671"><ele>109.8</ele><time>2026-03-28T11:55:19.958Z</time></trkpt><trkpt lat="53.30257236035397" lon="14.706817646390048"><ele>110.0</ele><time>2026-03-28T11:55:20.958Z</time></trkpt><trkpt lat="53.30269153429832" lon="14.706868464106071"><ele>109.75</ele><time>2026-03-28T11:55:21.958Z</time></trkpt><trkpt lat="53.30281693326539" lon="14.706927991269385"><ele>109.5</ele><time>2026-03-28T11:55:22.958Z</time></trkpt><trkpt lat="53.30294916653687" lon="14.70698960859669"><ele>109.25</ele><time>2026-03-28T11:55:23.958Z</time></trkpt><trkpt lat="53.30309343317441" lon="14.707049824222292"><ele>109.0</ele><time>2026-03-28T11:55:24.958Z</time></trkpt><trkpt lat="53.30323522882068" lon="14.707142730887615"><ele>109.66666666666667</ele><time>2026-03-28T11:55:25.958Z</time></trkpt><trkpt lat="53.30339414101072" lon="14.707218257645357"><ele>110.33333333333334</ele><time>2026-03-28T11:55:26.958Z</time></trkpt><trkpt lat="53.30355393382382" lon="14.707293168781707"><ele>111.0</ele><time>2026-03-28T11:55:27.958Z</time></trkpt><trkpt lat="53.30371236235118" lon="14.70734242931344"><ele>111.0</ele><time>2026-03-28T11:55:28.958Z</time></trkpt><trkpt lat="53.30386329879434" lon="14.707424442256917"><ele>111.0</ele><time>2026-03-28T11:55:29.958Z</time></trkpt><trkpt lat="53.30402839099649" lon="14.707511274107228"><ele>111.0</ele><time>2026-03-28T11:55:30.958Z</time></trkpt><trkpt lat="53.30415690589444" lon="14.707560772515881"><ele>111.19999999999999</ele><time>2026-03-28T11:55:31.958Z</time></trkpt><trkpt lat="53.30427884525873" lon="14.707622871374916"><ele>111.39999999999999</ele><time>2026-03-28T11:55:32.958Z</time></trkpt><trkpt lat="53.3043748751935" lon="14.707679145353"><ele>111.6</ele><time>2026-03-28T11:55:33.958Z</time></trkpt><trkpt lat="53.30446627720712" lon="14.707725275023105"><ele>111.8</ele><time>2026-03-28T11:55:34.958Z</time></trkpt><trkpt lat="53.3045589105118" lon="14.707769593386645"><ele>112.0</ele><time>2026-03-28T11:55:35.958Z</time></trkpt><trkpt lat="53.304659375601766" lon="14.707806544404969"><ele>112.0</ele><time>2026-03-28T11:55:36.958Z</time></trkpt><trkpt lat="53.304742309484126" lon="14.707779549870715"><ele>111.99999999999999</ele><time>2026-03-28T11:55:37.958Z</time></trkpt><trkpt lat="53.304824069950236" lon="14.70776803792712"><ele>111.99999999999999</ele><time>2026-03-28T11:55:38.958Z</time></trkpt><trkpt lat="53.30489984834687" lon="14.707752557333048"><ele>112.0</ele><time>2026-03-28T11:55:39.958Z</time></trkpt><trkpt lat="53.30500987964047" lon="14.707699888507939"><ele>112.0</ele><time>2026-03-28T11:55:40.958Z</time></trkpt><trkpt lat="53.305130501539715" lon="14.70766739628824"><ele>112.0</ele><time>2026-03-28T11:55:41.958Z</time></trkpt><trkpt lat="53.305263935728604" lon="14.707653848463304"><ele>112.0</ele><time>2026-03-28T11:55:42.958Z</time></trkpt><trkpt lat="53.30537485660626" lon="14.70759648297141"><ele>112.0</ele><time>2026-03-28T11:55:43.958Z</time></trkpt><trkpt lat="53.30548596827833" lon="14.707584095873973"><ele>112.0</ele><time>2026-03-28T11:55:44.958Z</time></trkpt><trkpt lat="53.305599006085146" lon="14.707546988085408"><ele>111.0</ele><time>2026-03-28T11:55:45.958Z</time></trkpt><trkpt lat="53.30569995381309" lon="14.707512881339728"><ele>109.99999999999999</ele><time>2026-03-28T11:55:46.958Z</time></trkpt><trkpt lat="53.30580049143459" lon="14.707480021521501"><ele>108.99999999999999</ele><time>2026-03-28T11:55:47.958Z</time></trkpt><trkpt lat="53.30591423483199" lon="14.707443473641117"><ele>108.0</ele><time>2026-03-28T11:55:48.958Z</time></trkpt><trkpt lat="53.30603393360864" lon="14.707405592086872"><ele>107.0</ele><time>2026-03-28T11:55:49.958Z</time></trkpt><trkpt lat="53.30614600222789" lon="14.707311165236012"><ele>107.0</ele><time>2026-03-28T11:55:50.958Z</time></trkpt><trkpt lat="53.306264595387226" lon="14.707276576938506"><ele>107.0</ele><time>2026-03-28T11:55:51.958Z</time></trkpt><trkpt lat="53.30638414759766" lon="14.707244971270887"><ele>107.0</ele><time>2026-03-28T11:55:52.958Z</time></trkpt><trkpt lat="53.30649284898445" lon="14.707201325857033"><ele>107.0</ele><time>2026-03-28T11:55:53.958Z</time></trkpt><trkpt lat="53.306590096329884" lon="14.707157333877095"><ele>107.6</ele><time>2026-03-28T11:55:54.958Z</time></trkpt><trkpt lat="53.30671306326602" lon="14.707127392700906"><ele>108.19999999999999</ele><time>2026-03-28T11:55:55.958Z</time></trkpt><trkpt lat="53.306816954905926" lon="14.707085148762728"><ele>108.8</ele><time>2026-03-28T11:55:56.958Z</time></trkpt><trkpt lat="53.306899715447" lon="14.707059753060857"><ele>109.4</ele><time>2026-03-28T11:55:57.958Z</time></trkpt><trkpt lat="53.30700483738139" lon="14.707035389700579"><ele>110.0</ele><time>2026-03-28T11:55:58.958Z</time></trkpt><trkpt lat="53.30712016205735" lon="14.706988048876541"><ele>110.0</ele><time>2026-03-28T11:55:59.958Z</time></trkpt><trkpt lat="53.30719825445737" lon="14.706936874488719"><ele>110.0</ele><time>2026-03-28T11:56:00.958Z</time></trkpt><trkpt lat="53.30729822570669" lon="14.70689060035657"><ele>110.0</ele><time>2026-03-28T11:56:01.958Z</time></trkpt><trkpt lat="53.30739199085566" lon="14.706853736452862"><ele>110.0</ele><time>2026-03-28T11:56:02.958Z</time></trkpt><trkpt lat="53.30749538383981" lon="14.706815984860972"><ele>110.0</ele><time>2026-03-28T11:56:03.958Z</time></trkpt><trkpt lat="53.30758955014783" lon="14.706779658092863"><ele>111.0</ele><time>2026-03-28T11:56:04.958Z</time></trkpt><trkpt lat="53.30768922799574" lon="14.706752670636682"><ele>112.0</ele><time>2026-03-28T11:56:05.958Z</time></trkpt><trkpt lat="53.307785702253355" lon="14.706707269932702"><ele>113.0</ele><time>2026-03-28T11:56:06.958Z</time></trkpt><trkpt lat="53.307886480433794" lon="14.706662900198971"><ele>114.0</ele><time>2026-03-28T11:56:07.958Z</time></trkpt><trkpt lat="53.30798453528127" lon="14.706621470942927"><ele>115.0</ele><time>2026-03-28T11:56:08.958Z</time></trkpt><trkpt lat="53.30808048168463" lon="14.70658336667165"><ele>116.2</ele><time>2026-03-28T11:56:09.958Z</time></trkpt><trkpt lat="53.308178170404574" lon="14.706583172510202"><ele>117.4</ele><time>2026-03-28T11:56:10.958Z</time></trkpt><trkpt lat="53.308276795050496" lon="14.706544457096088"><ele>118.6</ele><time>2026-03-28T11:56:11.958Z</time></trkpt><trkpt lat="53.30835501660051" lon="14.706494220369256"><ele>119.8</ele><time>2026-03-28T11:56:12.958Z</time></trkpt><trkpt lat="53.30844762644462" lon="14.706460875798042"><ele>121.0</ele><time>2026-03-28T11:56:13.958Z</time></trkpt><trkpt lat="53.30854923152312" lon="14.706416269425215"><ele>121.0</ele><time>2026-03-28T11:56:14.958Z</time></trkpt><trkpt lat="53.308652074547624" lon="14.706363837750507"><ele>121.0</ele><time>2026-03-28T11:56:15.958Z</time></trkpt><trkpt lat="53.308749193575515" lon="14.706318200184054"><ele>121.0</ele><time>2026-03-28T11:56:16.956Z</time></trkpt><trkpt lat="53.30886788217157" lon="14.706316838561305"><ele>121.0</ele><time>2026-03-28T11:56:17.956Z</time></trkpt><trkpt lat="53.308981104975864" lon="14.706311015281301"><ele>121.0</ele><time>2026-03-28T11:56:18.956Z</time></trkpt><trkpt lat="53.30910996741211" lon="14.70632199182281"><ele>121.50000000000001</ele><time>2026-03-28T11:56:19.956Z</time></trkpt><trkpt lat="53.30919989669981" lon="14.706338939516566"><ele>122.0</ele><time>2026-03-28T11:56:20.956Z</time></trkpt><trkpt lat="53.309273340696805" lon="14.706359490687827"><ele>122.5</ele><time>2026-03-28T11:56:21.956Z</time></trkpt><trkpt lat="53.30935293376369" lon="14.706385944949494"><ele>123.0</ele><time>2026-03-28T11:56:22.956Z</time></trkpt><trkpt lat="53.30942262017485" lon="14.706413972963539"><ele>123.50000000000001</ele><time>2026-03-28T11:56:23.956Z</time></trkpt><trkpt lat="53.30953143137688" lon="14.706442793196873"><ele>124.0</ele><time>2026-03-28T11:56:25.956Z</time></trkpt><trkpt lat="53.30961277751719" lon="14.706497396985448"><ele>124.00000000000001</ele><time>2026-03-28T11:56:27.956Z</time></trkpt><trkpt lat="53.3096921980336" lon="14.706515312466369"><ele>124.0</ele><time>2026-03-28T11:56:28.956Z</time></trkpt><trkpt lat="53.30977176627661" lon="14.70654549543931"><ele>124.0</ele><time>2026-03-28T11:56:29.956Z</time></trkpt><trkpt lat="53.30984874947974" lon="14.706579246843702"><ele>124.0</ele><time>2026-03-28T11:56:30.956Z</time></trkpt><trkpt lat="53.30993249892367" lon="14.706617552652117"><ele>124.00000000000001</ele><time>2026-03-28T11:56:31.956Z</time></trkpt><trkpt lat="53.31001355618116" lon="14.706669636507922"><ele>124.0</ele><time>2026-03-28T11:56:32.956Z</time></trkpt><trkpt lat="53.31007455370774" lon="14.706697759620246"><ele>123.50000000000001</ele><time>2026-03-28T11:56:33.956Z</time></trkpt><trkpt lat="53.31014835445208" lon="14.70672942879629"><ele>123.0</ele><time>2026-03-28T11:56:34.956Z</time></trkpt><trkpt lat="53.310228918070955" lon="14.70676839702057"><ele>122.5</ele><time>2026-03-28T11:56:35.956Z</time></trkpt><trkpt lat="53.3102937486332" lon="14.706796103503551"><ele>122.0</ele><time>2026-03-28T11:56:36.956Z</time></trkpt><trkpt lat="53.31037181103139" lon="14.70683517370354"><ele>121.50000000000001</ele><time>2026-03-28T11:56:37.956Z</time></trkpt><trkpt lat="53.310476309589156" lon="14.706891653466467"><ele>121.0</ele><time>2026-03-28T11:56:38.956Z</time></trkpt><trkpt lat="53.31058949094436" lon="14.706991866473825"><ele>121.0</ele><time>2026-03-28T11:56:39.956Z</time></trkpt><trkpt lat="53.310713795295584" lon="14.707093413022731"><ele>121.0</ele><time>2026-03-28T11:56:41.956Z</time></trkpt><trkpt lat="53.310792798992196" lon="14.707168139239919"><ele>121.0</ele><time>2026-03-28T11:56:42.956Z</time></trkpt><trkpt lat="53.31087567290443" lon="14.707257071917594"><ele>121.0</ele><time>2026-03-28T11:56:43.956Z</time></trkpt><trkpt lat="53.31096953317525" lon="14.707367286323324"><ele>121.0</ele><time>2026-03-28T11:56:44.956Z</time></trkpt><trkpt lat="53.31104241143825" lon="14.707459009099454"><ele>121.0</ele><time>2026-03-28T11:56:45.956Z</time></trkpt><trkpt lat="53.3111230152192" lon="14.707566138103926"><ele>121.0</ele><time>2026-03-28T11:56:46.956Z</time></trkpt><trkpt lat="53.311208322194794" lon="14.707685545850081"><ele>121.0</ele><time>2026-03-28T11:56:47.956Z</time></trkpt><trkpt lat="53.31128982368023" lon="14.70780267616638"><ele>121.0</ele><time>2026-03-28T11:56:48.956Z</time></trkpt><trkpt lat="53.31136880102847" lon="14.707903220268108"><ele>121.0</ele><time>2026-03-28T11:56:49.956Z</time></trkpt><trkpt lat="53.31145473800231" lon="14.708024834326052"><ele>122.25</ele><time>2026-03-28T11:56:50.956Z</time></trkpt><trkpt lat="53.311535237537974" lon="14.708145157624127"><ele>123.5</ele><time>2026-03-28T11:56:51.956Z</time></trkpt><trkpt lat="53.31163827150368" lon="14.708299435039114"><ele>124.75</ele><time>2026-03-28T11:56:52.956Z</time></trkpt><trkpt lat="53.3117052305065" lon="14.708457906952566"><ele>126.0</ele><time>2026-03-28T11:56:53.956Z</time></trkpt><trkpt lat="53.31177962522786" lon="14.70860495001316"><ele>126.0</ele><time>2026-03-28T11:56:54.956Z</time></trkpt><trkpt lat="53.311850338825295" lon="14.708747683918254"><ele>126.0</ele><time>2026-03-28T11:56:55.956Z</time></trkpt><trkpt lat="53.31192141912684" lon="14.708861787334035"><ele>126.0</ele><time>2026-03-28T11:56:56.956Z</time></trkpt><trkpt lat="53.31198784424594" lon="14.708993457546025"><ele>126.0</ele><time>2026-03-28T11:56:57.956Z</time></trkpt><trkpt lat="53.312051266067286" lon="14.70910345680369"><ele>126.0</ele><time>2026-03-28T11:56:58.956Z</time></trkpt><trkpt lat="53.31211958899799" lon="14.70923807042977"><ele>126.0</ele><time>2026-03-28T11:56:59.956Z</time></trkpt><trkpt lat="53.312214234478375" lon="14.70932814936922"><ele>126.0</ele><time>2026-03-28T11:57:00.956Z</time></trkpt><trkpt lat="53.31231674221304" lon="14.709432503719"><ele>126.0</ele><time>2026-03-28T11:57:01.956Z</time></trkpt><trkpt lat="53.31243715835269" lon="14.709545433773942"><ele>126.0</ele><time>2026-03-28T11:57:02.956Z</time></trkpt><trkpt lat="53.31256842242709" lon="14.709652914188263"><ele>126.75</ele><time>2026-03-28T11:57:03.956Z</time></trkpt><trkpt lat="53.31270343134476" lon="14.709738832713974"><ele>127.5</ele><time>2026-03-28T11:57:04.956Z</time></trkpt><trkpt lat="53.31282394271475" lon="14.709832684034938"><ele>128.25</ele><time>2026-03-28T11:57:05.956Z</time></trkpt><trkpt lat="53.312933480842275" lon="14.709903320192444"><ele>129.0</ele><time>2026-03-28T11:57:06.956Z</time></trkpt><trkpt lat="53.3130596394342" lon="14.710003013437316"><ele>129.0</ele><time>2026-03-28T11:57:07.956Z</time></trkpt><trkpt lat="53.31316016470898" lon="14.710078117411182"><ele>129.0</ele><time>2026-03-28T11:57:08.956Z</time></trkpt><trkpt lat="53.31326700773897" lon="14.710172656194288"><ele>129.0</ele><time>2026-03-28T11:57:09.956Z</time></trkpt><trkpt lat="53.31338433718509" lon="14.710267721805137"><ele>129.0</ele><time>2026-03-28T11:57:10.956Z</time></trkpt><trkpt lat="53.31349572598088" lon="14.710359943336895"><ele>129.0</ele><time>2026-03-28T11:57:11.956Z</time></trkpt><trkpt lat="53.31360242523336" lon="14.710482557441589"><ele>129.0</ele><time>2026-03-28T11:57:12.956Z</time></trkpt><trkpt lat="53.31371056183941" lon="14.710553914081126"><ele>129.0</ele><time>2026-03-28T11:57:13.956Z</time></trkpt><trkpt lat="53.313797288310184" lon="14.710650218092589"><ele>129.0</ele><time>2026-03-28T11:57:14.956Z</time></trkpt><trkpt lat="53.31388891593158" lon="14.710729830961956"><ele>129.25</ele><time>2026-03-28T11:57:15.956Z</time></trkpt><trkpt lat="53.313986317397415" lon="14.710813854852375"><ele>129.5</ele><time>2026-03-28T11:57:16.956Z</time></trkpt><trkpt lat="53.31407858725951" lon="14.710893452161669"><ele>129.75</ele><time>2026-03-28T11:57:17.956Z</time></trkpt><trkpt lat="53.31418627349033" lon="14.710955789032738"><ele>130.0</ele><time>2026-03-28T11:57:18.956Z</time></trkpt><trkpt lat="53.314298088852134" lon="14.711051600547087"><ele>130.0</ele><time>2026-03-28T11:57:19.956Z</time></trkpt><trkpt lat="53.314390071957" lon="14.711158524159368"><ele>130.0</ele><time>2026-03-28T11:57:20.956Z</time></trkpt><trkpt lat="53.31452328742922" lon="14.711250302571418"><ele>130.0</ele><time>2026-03-28T11:57:21.956Z</time></trkpt><trkpt lat="53.314649002954106" lon="14.711351093737177"><ele>130.0</ele><time>2026-03-28T11:57:22.956Z</time></trkpt><trkpt lat="53.31475356187598" lon="14.711437839862777"><ele>130.0</ele><time>2026-03-28T11:57:23.956Z</time></trkpt><trkpt lat="53.31484219512443" lon="14.711497313934963"><ele>130.0</ele><time>2026-03-28T11:57:24.956Z</time></trkpt><trkpt lat="53.31492169017721" lon="14.711579058299574"><ele>130.0</ele><time>2026-03-28T11:57:25.956Z</time></trkpt><trkpt lat="53.315012723890334" lon="14.711618992263835"><ele>130.0</ele><time>2026-03-28T11:57:26.956Z</time></trkpt><trkpt lat="53.31507393136409" lon="14.711669611614617"><ele>130.0</ele><time>2026-03-28T11:57:27.956Z</time></trkpt><trkpt lat="53.31518303969902" lon="14.71174575902238"><ele>130.00000000000003</ele><time>2026-03-28T11:57:29.956Z</time></trkpt><trkpt lat="53.315264138749626" lon="14.71180234320931"><ele>130.0</ele><time>2026-03-28T11:57:31.956Z</time></trkpt><trkpt lat="53.315329344347546" lon="14.711849394129256"><ele>130.0</ele><time>2026-03-28T11:57:33.956Z</time></trkpt><trkpt lat="53.31538490921633" lon="14.711907912685136"><ele>130.0</ele><time>2026-03-28T11:57:35.956Z</time></trkpt><trkpt lat="53.31544734076545" lon="14.711951734330924"><ele>130.0</ele><time>2026-03-28T11:57:37.956Z</time></trkpt><trkpt lat="53.315515607155625" lon="14.711986580549926"><ele>130.00000000000003</ele><time>2026-03-28T11:57:40.956Z</time></trkpt><trkpt lat="53.31558682243234" lon="14.712052040998632"><ele>130.0</ele><time>2026-03-28T11:57:43.956Z</time></trkpt><trkpt lat="53.31566153324411" lon="14.712111064892003"><ele>130.33333333333334</ele><time>2026-03-28T11:57:46.956Z</time></trkpt><trkpt lat="53.31572060825543" lon="14.71215260216521"><ele>130.66666666666669</ele><time>2026-03-28T11:57:48.956Z</time></trkpt><trkpt lat="53.31578629745688" lon="14.71222209566589"><ele>131.0</ele><time>2026-03-28T11:57:51.956Z</time></trkpt><trkpt lat="53.31585731056732" lon="14.712224856907756"><ele>131.33333333333334</ele><time>2026-03-28T11:59:16.955Z</time></trkpt><trkpt lat="53.31595856993512" lon="14.712289760627728"><ele>131.66666666666666</ele><time>2026-03-28T11:59:18.955Z</time></trkpt><trkpt lat="53.31603053187585" lon="14.712359075451726"><ele>132.0</ele><time>2026-03-28T11:59:19.955Z</time></trkpt><trkpt lat="53.31609027977139" lon="14.712481334797168"><ele>132.0</ele><time>2026-03-28T11:59:20.955Z</time></trkpt><trkpt lat="53.316152240883866" lon="14.712533956933747"><ele>132.0</ele><time>2026-03-28T11:59:21.955Z</time></trkpt><trkpt lat="53.31622769427455" lon="14.71259749316615"><ele>132.0</ele><time>2026-03-28T11:59:22.955Z</time></trkpt><trkpt lat="53.31630169879765" lon="14.712659799216798"><ele>132.0</ele><time>2026-03-28T11:59:23.955Z</time></trkpt><trkpt lat="53.31639231975283" lon="14.712694949140083"><ele>132.0</ele><time>2026-03-28T11:59:24.955Z</time></trkpt><trkpt lat="53.31649930228564" lon="14.712789175999895"><ele>131.66666666666666</ele><time>2026-03-28T11:59:25.955Z</time></trkpt><trkpt lat="53.31664950180304" lon="14.712898666705605"><ele>131.33333333333331</ele><time>2026-03-28T11:59:26.955Z</time></trkpt><trkpt lat="53.316812472912616" lon="14.713025740638068"><ele>131.0</ele><time>2026-03-28T11:59:27.955Z</time></trkpt><trkpt lat="53.31695902810032" lon="14.713142900309453"><ele>131.0</ele><time>2026-03-28T11:59:28.955Z</time></trkpt><trkpt lat="53.317110865053614" lon="14.713267962094031"><ele>131.0</ele><time>2026-03-28T11:59:29.955Z</time></trkpt><trkpt lat="53.317256639946244" lon="14.713384751577507"><ele>131.0</ele><time>2026-03-28T11:59:30.955Z</time></trkpt><trkpt lat="53.31738081260105" lon="14.713491847562526"><ele>131.25</ele><time>2026-03-28T11:59:31.955Z</time></trkpt><trkpt lat="53.31750934862788" lon="14.713597951682472"><ele>131.5</ele><time>2026-03-28T11:59:32.955Z</time></trkpt><trkpt lat="53.317622120137415" lon="14.713691910968702"><ele>131.75</ele><time>2026-03-28T11:59:33.955Z</time></trkpt><trkpt lat="53.317738445689294" lon="14.713787692713304"><ele>132.0</ele><time>2026-03-28T11:59:34.955Z</time></trkpt><trkpt lat="53.31782678733844" lon="14.713868277943838"><ele>132.0</ele><time>2026-03-28T11:59:35.955Z</time></trkpt><trkpt lat="53.31788565894644" lon="14.713915769383068"><ele>132.0</ele><time>2026-03-28T11:59:36.955Z</time></trkpt><trkpt lat="53.317975525663684" lon="14.713849418253663"><ele>132.0</ele><time>2026-03-28T11:59:39.955Z</time></trkpt><trkpt lat="53.31800182669543" lon="14.713743976979405"><ele>132.0</ele><time>2026-03-28T11:59:40.955Z</time></trkpt><trkpt lat="53.31802027227819" lon="14.71363961386833"><ele>132.0</ele><time>2026-03-28T11:59:41.955Z</time></trkpt><trkpt lat="53.31807713492386" lon="14.713558607436266"><ele>132.0</ele><time>2026-03-28T11:59:42.955Z</time></trkpt><trkpt lat="53.318100294016105" lon="14.713413971504735"><ele>132.0</ele><time>2026-03-28T11:59:43.955Z</time></trkpt><trkpt lat="53.318130667493655" lon="14.713228446701144"><ele>132.0</ele><time>2026-03-28T11:59:44.955Z</time></trkpt><trkpt lat="53.31816551411597" lon="14.71304235522682"><ele>132.0</ele><time>2026-03-28T11:59:45.955Z</time></trkpt><trkpt lat="53.31820574330879" lon="14.712855436843908"><ele>132.0</ele><time>2026-03-28T11:59:46.955Z</time></trkpt><trkpt lat="53.318248335268116" lon="14.712678517898844"><ele>132.5</ele><time>2026-03-28T11:59:47.955Z</time></trkpt><trkpt lat="53.31830002196492" lon="14.712496674494114"><ele>133.0</ele><time>2026-03-28T11:59:48.955Z</time></trkpt><trkpt lat="53.31836699331962" lon="14.712308899318435"><ele>133.5</ele><time>2026-03-28T11:59:49.955Z</time></trkpt><trkpt lat="53.31845749668532" lon="14.712119222605248"><ele>134.0</ele><time>2026-03-28T11:59:50.955Z</time></trkpt><trkpt lat="53.31854012524225" lon="14.711976970554915"><ele>133.6</ele><time>2026-03-28T11:59:51.955Z</time></trkpt><trkpt lat="53.318608988090205" lon="14.711862669294138"><ele>133.2</ele><time>2026-03-28T11:59:52.955Z</time></trkpt><trkpt lat="53.31867367218072" lon="14.711750665529589"><ele>132.79999999999998</ele><time>2026-03-28T11:59:53.955Z</time></trkpt><trkpt lat="53.31871236225666" lon="14.71165017363984"><ele>132.4</ele><time>2026-03-28T11:59:54.955Z</time></trkpt><trkpt lat="53.31878178489249" lon="14.711538389970723"><ele>132.0</ele><time>2026-03-28T11:59:55.955Z</time></trkpt><trkpt lat="53.318860661621045" lon="14.711387005667747"><ele>134.66666666666666</ele><time>2026-03-28T11:59:56.955Z</time></trkpt><trkpt lat="53.31897313484765" lon="14.711228927771511"><ele>137.33333333333331</ele><time>2026-03-28T11:59:57.955Z</time></trkpt><trkpt lat="53.31907931708424" lon="14.711057520538892"><ele>140.0</ele><time>2026-03-28T11:59:58.955Z</time></trkpt><trkpt lat="53.31919728691664" lon="14.710883430273494"><ele>140.0</ele><time>2026-03-28T11:59:59.955Z</time></trkpt><trkpt lat="53.31933017971115" lon="14.710694304798853"><ele>140.0</ele><time>2026-03-28T12:00:00.955Z</time></trkpt><trkpt lat="53.31944790488918" lon="14.710500885271328"><ele>140.0</ele><time>2026-03-28T12:00:01.955Z</time></trkpt><trkpt lat="53.31956954393204" lon="14.710312306275041"><ele>140.66666666666666</ele><time>2026-03-28T12:00:02.955Z</time></trkpt><trkpt lat="53.31969588348448" lon="14.71014652852263"><ele>141.33333333333334</ele><time>2026-03-28T12:00:03.955Z</time></trkpt><trkpt lat="53.31982689391293" lon="14.709952698213817"><ele>142.0</ele><time>2026-03-28T12:00:04.955Z</time></trkpt><trkpt lat="53.31996099757326" lon="14.709734794737203"><ele>142.0</ele><time>2026-03-28T12:00:05.955Z</time></trkpt><trkpt lat="53.32010501715297" lon="14.709489634781159"><ele>142.0</ele><time>2026-03-28T12:00:06.955Z</time></trkpt><trkpt lat="53.32026458467334" lon="14.70925505968301"><ele>142.0</ele><time>2026-03-28T12:00:07.955Z</time></trkpt><trkpt lat="53.32043292637747" lon="14.708996417660254"><ele>142.66666666666669</ele><time>2026-03-28T12:00:08.955Z</time></trkpt><trkpt lat="53.32058594041455" lon="14.708761081502868"><ele>143.33333333333334</ele><time>2026-03-28T12:00:09.955Z</time></trkpt><trkpt lat="53.32072560863373" lon="14.708547070400467"><ele>144.0</ele><time>2026-03-28T12:00:10.955Z</time></trkpt><trkpt lat="53.320848592621445" lon="14.708360721082586"><ele>142.33333333333334</ele><time>2026-03-28T12:00:11.955Z</time></trkpt><trkpt lat="53.320970119734" lon="14.708175570018714"><ele>140.66666666666669</ele><time>2026-03-28T12:00:12.955Z</time></trkpt><trkpt lat="53.32110144086581" lon="14.707975498368848"><ele>139.0</ele><time>2026-03-28T12:00:13.955Z</time></trkpt><trkpt lat="53.32123296058785" lon="14.707776806284818"><ele>140.0</ele><time>2026-03-28T12:00:14.955Z</time></trkpt><trkpt lat="53.32138830962636" lon="14.707539830136632"><ele>141.0</ele><time>2026-03-28T12:00:15.955Z</time></trkpt><trkpt lat="53.32153649985036" lon="14.707315343145055"><ele>142.0</ele><time>2026-03-28T12:00:16.955Z</time></trkpt><trkpt lat="53.32168978907701" lon="14.707082445920756"><ele>139.0</ele><time>2026-03-28T12:00:17.955Z</time></trkpt><trkpt lat="53.32184273499346" lon="14.706849833901682"><ele>136.0</ele><time>2026-03-28T12:00:18.955Z</time></trkpt><trkpt lat="53.32197313580501" lon="14.706651509780103"><ele>133.0</ele><time>2026-03-28T12:00:19.955Z</time></trkpt><trkpt lat="53.32207830719145" lon="14.70649163862116"><ele>133.0</ele><time>2026-03-28T12:00:20.955Z</time></trkpt><trkpt lat="53.322119463029075" lon="14.706390830681622"><ele>133.0</ele><time>2026-03-28T12:00:21.955Z</time></trkpt><trkpt lat="53.32218297865675" lon="14.706369736240097"><ele>133.0</ele><time>2026-03-28T12:00:24.955Z</time></trkpt><trkpt lat="53.3222599738414" lon="14.706263593201692"><ele>133.0</ele><time>2026-03-28T12:00:27.955Z</time></trkpt><trkpt lat="53.32250939934061" lon="14.70657801016673"><ele>134.5</ele><time>2026-03-28T12:00:28.954Z</time></trkpt><trkpt lat="53.32262529809137" lon="14.706600128396323"><ele>136.0</ele><time>2026-03-28T12:00:29.954Z</time></trkpt><trkpt lat="53.32273757145265" lon="14.706632425535107"><ele>137.5</ele><time>2026-03-28T12:00:30.954Z</time></trkpt><trkpt lat="53.322854496561675" lon="14.70662364003743"><ele>139.0</ele><time>2026-03-28T12:00:31.954Z</time></trkpt><trkpt lat="53.32297231318217" lon="14.706644775463591"><ele>138.0</ele><time>2026-03-28T12:00:32.954Z</time></trkpt><trkpt lat="53.32309066540263" lon="14.706668615888182"><ele>137.0</ele><time>2026-03-28T12:00:33.954Z</time></trkpt><trkpt lat="53.32319975900539" lon="14.7066792386255"><ele>136.0</ele><time>2026-03-28T12:00:34.953Z</time></trkpt><trkpt lat="53.32332711409687" lon="14.706679044454825"><ele>135.0</ele><time>2026-03-28T12:00:35.954Z</time></trkpt><trkpt lat="53.32345068208437" lon="14.706671138944808"><ele>135.0</ele><time>2026-03-28T12:00:36.954Z</time></trkpt><trkpt lat="53.32356975123182" lon="14.706678900710038"><ele>135.0</ele><time>2026-03-28T12:00:37.954Z</time></trkpt><trkpt lat="53.323687624114505" lon="14.706684129581879"><ele>135.0</ele><time>2026-03-28T12:00:38.954Z</time></trkpt><trkpt lat="53.32381580551414" lon="14.706679357299622"><ele>135.0</ele><time>2026-03-28T12:00:39.954Z</time></trkpt><trkpt lat="53.323922890761324" lon="14.7066709535385"><ele>134.0</ele><time>2026-03-28T12:00:40.954Z</time></trkpt><trkpt lat="53.32404362436645" lon="14.70665688123393"><ele>133.0</ele><time>2026-03-28T12:00:41.954Z</time></trkpt><trkpt lat="53.324173735638624" lon="14.706635716574917"><ele>132.0</ele><time>2026-03-28T12:00:42.954Z</time></trkpt><trkpt lat="53.32429641763585" lon="14.706606035074785"><ele>131.0</ele><time>2026-03-28T12:00:43.954Z</time></trkpt><trkpt lat="53.32442742831497" lon="14.706575503904423"><ele>131.0</ele><time>2026-03-28T12:00:44.954Z</time></trkpt><trkpt lat="53.324554136051" lon="14.706534914549225"><ele>131.0</ele><time>2026-03-28T12:00:45.954Z</time></trkpt><trkpt lat="53.32468458495004" lon="14.706504922774954"><ele>131.0</ele><time>2026-03-28T12:00:46.954Z</time></trkpt><trkpt lat="53.32483256657874" lon="14.706472510064437"><ele>131.0</ele><time>2026-03-28T12:00:47.954Z</time></trkpt><trkpt lat="53.324964248397244" lon="14.706453327473888"><ele>131.75</ele><time>2026-03-28T12:00:48.954Z</time></trkpt><trkpt lat="53.32508491710873" lon="14.706431714724978"><ele>132.5</ele><time>2026-03-28T12:00:49.954Z</time></trkpt><trkpt lat="53.32521139903034" lon="14.706409633484542"><ele>133.25</ele><time>2026-03-28T12:00:50.954Z</time></trkpt><trkpt lat="53.32532491609443" lon="14.706406620375159"><ele>134.0</ele><time>2026-03-28T12:00:51.954Z</time></trkpt><trkpt lat="53.32543405586856" lon="14.70641539237361"><ele>134.0</ele><time>2026-03-28T12:00:52.954Z</time></trkpt><trkpt lat="53.32554601944794" lon="14.706425094738034"><ele>134.0</ele><time>2026-03-28T12:00:53.954Z</time></trkpt><trkpt lat="53.32565843650409" lon="14.706416117883773"><ele>134.0</ele><time>2026-03-28T12:00:54.954Z</time></trkpt><trkpt lat="53.32576735247431" lon="14.70642207674253"><ele>134.0</ele><time>2026-03-28T12:00:55.954Z</time></trkpt><trkpt lat="53.32586995828451" lon="14.706422768487258"><ele>134.0</ele><time>2026-03-28T12:00:56.954Z</time></trkpt><trkpt lat="53.32596759884669" lon="14.706429575424748"><ele>133.83333333333331</ele><time>2026-03-28T12:00:57.954Z</time></trkpt><trkpt lat="53.326050242505154" lon="14.706427365059765"><ele>133.66666666666666</ele><time>2026-03-28T12:00:58.954Z</time></trkpt><trkpt lat="53.3261372540284" lon="14.706437965981099"><ele>133.5</ele><time>2026-03-28T12:00:59.954Z</time></trkpt><trkpt lat="53.32621715004453" lon="14.706438041469882"><ele>133.33333333333334</ele><time>2026-03-28T12:01:00.954Z</time></trkpt><trkpt lat="53.326303480003794" lon="14.7064639785689"><ele>133.16666666666669</ele><time>2026-03-28T12:01:01.954Z</time></trkpt><trkpt lat="53.32639526181818" lon="14.706523557990963"><ele>133.0</ele><time>2026-03-28T12:01:02.954Z</time></trkpt><trkpt lat="53.32649806593719" lon="14.70659222459447"><ele>133.0</ele><time>2026-03-28T12:01:03.954Z</time></trkpt><trkpt lat="53.32660242676285" lon="14.70666648792684"><ele>133.0</ele><time>2026-03-28T12:01:04.954Z</time></trkpt><trkpt lat="53.32670263329222" lon="14.706720949592498"><ele>133.0</ele><time>2026-03-28T12:01:05.954Z</time></trkpt><trkpt lat="53.32680703386177" lon="14.706766201922592"><ele>133.0</ele><time>2026-03-28T12:01:06.954Z</time></trkpt><trkpt lat="53.326897281212524" lon="14.706768666846065"><ele>133.0</ele><time>2026-03-28T12:01:07.954Z</time></trkpt><trkpt lat="53.326980645215635" lon="14.706769347116268"><ele>133.0</ele><time>2026-03-28T12:01:08.954Z</time></trkpt><trkpt lat="53.32708105744521" lon="14.706777939293627"><ele>133.0</ele><time>2026-03-28T12:01:09.954Z</time></trkpt><trkpt lat="53.32713430087162" lon="14.706840804940825"><ele>133.0</ele><time>2026-03-28T12:01:10.954Z</time></trkpt><trkpt lat="53.32723051768478" lon="14.706908865374823"><ele>133.0</ele><time>2026-03-28T12:01:11.954Z</time></trkpt><trkpt lat="53.32732907972857" lon="14.70698231779276"><ele>133.0</ele><time>2026-03-28T12:01:12.954Z</time></trkpt><trkpt lat="53.327409686376015" lon="14.707019813372902"><ele>132.8</ele><time>2026-03-28T12:01:13.954Z</time></trkpt><trkpt lat="53.32747495410739" lon="14.707015821346936"><ele>132.60000000000002</ele><time>2026-03-28T12:01:14.954Z</time></trkpt><trkpt lat="53.327597720741906" lon="14.706908778898269"><ele>132.39999999999998</ele><time>2026-03-28T12:01:16.954Z</time></trkpt><trkpt lat="53.327691245374915" lon="14.706788292771035"><ele>132.2</ele><time>2026-03-28T12:01:17.954Z</time></trkpt><trkpt lat="53.327778606742285" lon="14.706693940929334"><ele>132.0</ele><time>2026-03-28T12:01:18.954Z</time></trkpt><trkpt lat="53.32783784881518" lon="14.70664400088261"><ele>132.0</ele><time>2026-03-28T12:01:19.954Z</time></trkpt><trkpt lat="53.327907053868074" lon="14.706640794335613"><ele>132.0</ele><time>2026-03-28T12:01:20.954Z</time></trkpt><trkpt lat="53.32806536873734" lon="14.70668617515442"><ele>132.0</ele><time>2026-03-28T12:01:22.954Z</time></trkpt><trkpt lat="53.32818404915526" lon="14.706738533462653"><ele>132.0</ele><time>2026-03-28T12:01:23.954Z</time></trkpt><trkpt lat="53.32829971014672" lon="14.706782820339988"><ele>130.25</ele><time>2026-03-28T12:01:24.954Z</time></trkpt><trkpt lat="53.328419361469216" lon="14.70682166772747"><ele>128.5</ele><time>2026-03-28T12:01:25.954Z</time></trkpt><trkpt lat="53.328537778446204" lon="14.70686592078773"><ele>126.75</ele><time>2026-03-28T12:01:26.954Z</time></trkpt><trkpt lat="53.32864889691022" lon="14.706914792085055"><ele>125.0</ele><time>2026-03-28T12:01:27.954Z</time></trkpt><trkpt lat="53.32875028944104" lon="14.706972075875251"><ele>125.0</ele><time>2026-03-28T12:01:28.954Z</time></trkpt><trkpt lat="53.32884471619539" lon="14.70705312505052"><ele>125.0</ele><time>2026-03-28T12:01:29.954Z</time></trkpt><trkpt lat="53.328927727244015" lon="14.707132313702038"><ele>125.0</ele><time>2026-03-28T12:01:30.954Z</time></trkpt><trkpt lat="53.32901448917371" lon="14.707226961235651"><ele>125.0</ele><time>2026-03-28T12:01:31.954Z</time></trkpt><trkpt lat="53.329130432321314" lon="14.707321831961519"><ele>125.0</ele><time>2026-03-28T12:01:32.954Z</time></trkpt><trkpt lat="53.32922779163197" lon="14.707429650529889"><ele>122.2</ele><time>2026-03-28T12:01:33.954Z</time></trkpt><trkpt lat="53.32931269540823" lon="14.707495560233045"><ele>119.4</ele><time>2026-03-28T12:01:34.954Z</time></trkpt><trkpt lat="53.32940049932819" lon="14.707585076988783"><ele>116.6</ele><time>2026-03-28T12:01:35.954Z</time></trkpt><trkpt lat="53.32946842331687" lon="14.707626663280994"><ele>113.8</ele><time>2026-03-28T12:01:36.954Z</time></trkpt><trkpt lat="53.32955647233537" lon="14.707702854709297"><ele>111.0</ele><time>2026-03-28T12:01:38.954Z</time></trkpt><trkpt lat="53.329617176625156" lon="14.70783184346557"><ele>110.8</ele><time>2026-03-28T12:01:39.954Z</time></trkpt><trkpt lat="53.3296513353134" lon="14.708017857929311"><ele>110.6</ele><time>2026-03-28T12:01:40.954Z</time></trkpt><trkpt lat="53.32967222262666" lon="14.708194134251084"><ele>110.4</ele><time>2026-03-28T12:01:41.954Z</time></trkpt><trkpt lat="53.3297100660749" lon="14.708332399990464"><ele>110.2</ele><time>2026-03-28T12:01:42.954Z</time></trkpt><trkpt lat="53.329746212998444" lon="14.708504398213279"><ele>110.0</ele><time>2026-03-28T12:01:43.954Z</time></trkpt><trkpt lat="53.32978538946599" lon="14.708618204183962"><ele>109.2</ele><time>2026-03-28T12:01:44.954Z</time></trkpt><trkpt lat="53.32988556646984" lon="14.708733839096418"><ele>108.4</ele><time>2026-03-28T12:01:46.954Z</time></trkpt><trkpt lat="53.3299499307979" lon="14.708777223970541"><ele>107.6</ele><time>2026-03-28T12:01:47.954Z</time></trkpt><trkpt lat="53.33003930156141" lon="14.708776135541916"><ele>106.8</ele><time>2026-03-28T12:01:48.954Z</time></trkpt><trkpt lat="53.33017864437322" lon="14.708724259397805"><ele>106.0</ele><time>2026-03-28T12:01:49.954Z</time></trkpt><trkpt lat="53.33031477756541" lon="14.708632306545972"><ele>106.0</ele><time>2026-03-28T12:01:50.954Z</time></trkpt><trkpt lat="53.33041908224728" lon="14.708599176561739"><ele>106.0</ele><time>2026-03-28T12:01:51.954Z</time></trkpt><trkpt lat="53.33049959707943" lon="14.708596115435283"><ele>106.0</ele><time>2026-03-28T12:01:52.954Z</time></trkpt><trkpt lat="53.33057867511998" lon="14.708605327042532"><ele>106.0</ele><time>2026-03-28T12:01:53.954Z</time></trkpt><trkpt lat="53.33068129027063" lon="14.708640550884915"><ele>106.0</ele><time>2026-03-28T12:01:54.954Z</time></trkpt><trkpt lat="53.330772068064455" lon="14.708704904343344"><ele>108.19999999999999</ele><time>2026-03-28T12:01:55.954Z</time></trkpt><trkpt lat="53.330869685437584" lon="14.708753335480758"><ele>110.39999999999999</ele><time>2026-03-28T12:01:56.954Z</time></trkpt><trkpt lat="53.33093454244647" lon="14.708741282604683"><ele>112.6</ele><time>2026-03-28T12:01:57.954Z</time></trkpt><trkpt lat="53.331009699311956" lon="14.708674417874114"><ele>114.8</ele><time>2026-03-28T12:01:58.954Z</time></trkpt><trkpt lat="53.33111070747081" lon="14.708540731494175"><ele>117.0</ele><time>2026-03-28T12:01:59.954Z</time></trkpt><trkpt lat="53.331207625247636" lon="14.708410577307168"><ele>117.39999999999999</ele><time>2026-03-28T12:02:00.954Z</time></trkpt><trkpt lat="53.33129123004634" lon="14.708342723715571"><ele>117.79999999999998</ele><time>2026-03-28T12:02:01.954Z</time></trkpt><trkpt lat="53.33137297796057" lon="14.708287870451317"><ele>118.2</ele><time>2026-03-28T12:02:02.954Z</time></trkpt><trkpt lat="53.331476928105566" lon="14.708237034999394"><ele>118.6</ele><time>2026-03-28T12:02:03.954Z</time></trkpt><trkpt lat="53.33160624998522" lon="14.708200654378835"><ele>119.0</ele><time>2026-03-28T12:02:04.954Z</time></trkpt><trkpt lat="53.331734837500235" lon="14.70815805848237"><ele>118.2</ele><time>2026-03-28T12:02:05.954Z</time></trkpt><trkpt lat="53.33186520479386" lon="14.708111447056472"><ele>117.4</ele><time>2026-03-28T12:02:06.954Z</time></trkpt><trkpt lat="53.3319688029089" lon="14.70806942770934"><ele>116.6</ele><time>2026-03-28T12:02:07.954Z</time></trkpt><trkpt lat="53.33206330165756" lon="14.708035050774974"><ele>115.8</ele><time>2026-03-28T12:02:08.954Z</time></trkpt><trkpt lat="53.332171446081546" lon="14.707984405206886"><ele>115.0</ele><time>2026-03-28T12:02:09.954Z</time></trkpt><trkpt lat="53.332257088747475" lon="14.70796130205219"><ele>113.6</ele><time>2026-03-28T12:02:10.954Z</time></trkpt><trkpt lat="53.332343205248655" lon="14.707957201421522"><ele>112.2</ele><time>2026-03-28T12:02:11.954Z</time></trkpt><trkpt lat="53.33244032057795" lon="14.70798211223389"><ele>110.80000000000001</ele><time>2026-03-28T12:02:12.954Z</time></trkpt><trkpt lat="53.33254281728772" lon="14.708031468672113"><ele>109.4</ele><time>2026-03-28T12:02:13.954Z</time></trkpt><trkpt lat="53.332639836740505" lon="14.708092112844179"><ele>108.0</ele><time>2026-03-28T12:02:14.954Z</time></trkpt><trkpt lat="53.33272293216613" lon="14.708149223833225"><ele>108.0</ele><time>2026-03-28T12:02:15.954Z</time></trkpt><trkpt lat="53.33280166772522" lon="14.708203868791275"><ele>108.00000000000001</ele><time>2026-03-28T12:02:16.954Z</time></trkpt><trkpt lat="53.33290324290978" lon="14.708255868307722"><ele>108.00000000000001</ele><time>2026-03-28T12:02:17.954Z</time></trkpt><trkpt lat="53.333008964089146" lon="14.708312446891437"><ele>108.0</ele><time>2026-03-28T12:02:18.954Z</time></trkpt><trkpt lat="53.33309940550273" lon="14.708370459377372"><ele>108.0</ele><time>2026-03-28T12:02:19.954Z</time></trkpt><trkpt lat="53.33320695530216" lon="14.708403686380478"><ele>107.60000000000001</ele><time>2026-03-28T12:02:20.954Z</time></trkpt><trkpt lat="53.33329176054737" lon="14.708421992725462"><ele>107.20000000000002</ele><time>2026-03-28T12:02:21.954Z</time></trkpt><trkpt lat="53.333377517105504" lon="14.708438052526411"><ele>106.8</ele><time>2026-03-28T12:02:22.954Z</time></trkpt><trkpt lat="53.33346254651867" lon="14.708447875400834"><ele>106.4</ele><time>2026-03-28T12:02:23.954Z</time></trkpt><trkpt lat="53.333558745679156" lon="14.708471146821552"><ele>106.0</ele><time>2026-03-28T12:02:24.954Z</time></trkpt><trkpt lat="53.33365385405916" lon="14.708507888250033"><ele>106.0</ele><time>2026-03-28T12:02:25.954Z</time></trkpt><trkpt lat="53.33374963117431" lon="14.70852701765857"><ele>106.0</ele><time>2026-03-28T12:02:26.954Z</time></trkpt><trkpt lat="53.333834666379914" lon="14.708560655741922"><ele>106.0</ele><time>2026-03-28T12:02:27.954Z</time></trkpt><trkpt lat="53.333953831395156" lon="14.708592116852367"><ele>106.0</ele><time>2026-03-28T12:02:28.954Z</time></trkpt><trkpt lat="53.33403977393546" lon="14.70861675434881"><ele>106.0</ele><time>2026-03-28T12:02:29.954Z</time></trkpt><trkpt lat="53.33411758641666" lon="14.708639185516727"><ele>105.4</ele><time>2026-03-28T12:02:30.954Z</time></trkpt><trkpt lat="53.33420449423435" lon="14.708649070768779"><ele>104.8</ele><time>2026-03-28T12:02:31.954Z</time></trkpt><trkpt lat="53.334319578434325" lon="14.708647454091828"><ele>104.2</ele><time>2026-03-28T12:02:32.954Z</time></trkpt><trkpt lat="53.33441082266884" lon="14.708684791101057"><ele>103.60000000000001</ele><time>2026-03-28T12:02:33.954Z</time></trkpt><trkpt lat="53.334500969011835" lon="14.708689749915246"><ele>103.0</ele><time>2026-03-28T12:02:34.952Z</time></trkpt><trkpt lat="53.33460578635846" lon="14.708728966924395"><ele>103.0</ele><time>2026-03-28T12:02:35.952Z</time></trkpt><trkpt lat="53.33471290983866" lon="14.708772996919025"><ele>103.0</ele><time>2026-03-28T12:02:36.952Z</time></trkpt><trkpt lat="53.33481989753607" lon="14.708789628302133"><ele>103.0</ele><time>2026-03-28T12:02:37.952Z</time></trkpt><trkpt lat="53.334918829168814" lon="14.708805869286339"><ele>103.0</ele><time>2026-03-28T12:02:38.952Z</time></trkpt><trkpt lat="53.335009064979616" lon="14.70882200121881"><ele>103.0</ele><time>2026-03-28T12:02:39.952Z</time></trkpt><trkpt lat="53.33510250225326" lon="14.708855455557321"><ele>102.80000000000001</ele><time>2026-03-28T12:02:40.953Z</time></trkpt><trkpt lat="53.33518774136809" lon="14.708867484152067"><ele>102.6</ele><time>2026-03-28T12:02:41.952Z</time></trkpt><trkpt lat="53.33529355069814" lon="14.708881942559229"><ele>102.4</ele><time>2026-03-28T12:02:42.952Z</time></trkpt><trkpt lat="53.33541304591033" lon="14.70890935595456"><ele>102.19999999999999</ele><time>2026-03-28T12:02:43.952Z</time></trkpt><trkpt lat="53.33554725590877" lon="14.708952268438336"><ele>102.0</ele><time>2026-03-28T12:02:44.952Z</time></trkpt><trkpt lat="53.33568265993191" lon="14.709016133134975"><ele>102.0</ele><time>2026-03-28T12:02:45.952Z</time></trkpt><trkpt lat="53.335807808538895" lon="14.709062059247701"><ele>102.0</ele><time>2026-03-28T12:02:46.953Z</time></trkpt><trkpt lat="53.33592509009846" lon="14.709111962406567"><ele>102.0</ele><time>2026-03-28T12:02:47.953Z</time></trkpt><trkpt lat="53.33602694309246" lon="14.709167151998829"><ele>102.0</ele><time>2026-03-28T12:02:48.953Z</time></trkpt><trkpt lat="53.336137213358946" lon="14.709202944372567"><ele>102.0</ele><time>2026-03-28T12:02:49.953Z</time></trkpt><trkpt lat="53.33620759832405" lon="14.709218979430725"><ele>102.0</ele><time>2026-03-28T12:02:50.953Z</time></trkpt><trkpt lat="53.33628750007543" lon="14.709232660312813"><ele>102.0</ele><time>2026-03-28T12:02:51.953Z</time></trkpt><trkpt lat="53.33635210514733" lon="14.709258822464061"><ele>102.0</ele><time>2026-03-28T12:02:52.953Z</time></trkpt><trkpt lat="53.33641981262987" lon="14.709259678480304"><ele>102.0</ele><time>2026-03-28T12:02:53.953Z</time></trkpt><trkpt lat="53.33648489485313" lon="14.709225966297577"><ele>102.0</ele><time>2026-03-28T12:02:54.953Z</time></trkpt><trkpt lat="53.336600202986446" lon="14.709173805454762"><ele>103.0</ele><time>2026-03-28T12:02:55.953Z</time></trkpt><trkpt lat="53.33674117255954" lon="14.709055430854812"><ele>104.0</ele><time>2026-03-28T12:02:56.953Z</time></trkpt><trkpt lat="53.336869629415645" lon="14.708910261378236"><ele>105.0</ele><time>2026-03-28T12:02:57.953Z</time></trkpt><trkpt lat="53.336966946851526" lon="14.708784195065762"><ele>106.0</ele><time>2026-03-28T12:02:58.953Z</time></trkpt><trkpt lat="53.337053794331325" lon="14.708681639673296"><ele>106.8</ele><time>2026-03-28T12:02:59.953Z</time></trkpt><trkpt lat="53.33714298970078" lon="14.70856602588917"><ele>107.6</ele><time>2026-03-28T12:03:00.953Z</time></trkpt><trkpt lat="53.337215856800334" lon="14.7084467537851"><ele>108.4</ele><time>2026-03-28T12:03:01.953Z</time></trkpt><trkpt lat="53.337294813406366" lon="14.708308572615971"><ele>109.2</ele><time>2026-03-28T12:03:02.953Z</time></trkpt><trkpt lat="53.337371646875525" lon="14.708158886231564"><ele>110.0</ele><time>2026-03-28T12:03:03.953Z</time></trkpt><trkpt lat="53.337433334807166" lon="14.707999645066764"><ele>110.0</ele><time>2026-03-28T12:03:04.953Z</time></trkpt><trkpt lat="53.337496929976005" lon="14.707859368808322"><ele>110.0</ele><time>2026-03-28T12:03:05.953Z</time></trkpt><trkpt lat="53.33757283146361" lon="14.707711153589576"><ele>110.0</ele><time>2026-03-28T12:03:06.953Z</time></trkpt><trkpt lat="53.33764402285932" lon="14.707547925059723"><ele>110.0</ele><time>2026-03-28T12:03:07.953Z</time></trkpt><trkpt lat="53.33770234527599" lon="14.707410727177177"><ele>110.0</ele><time>2026-03-28T12:03:08.953Z</time></trkpt><trkpt lat="53.33774804320239" lon="14.70729054108069"><ele>110.4</ele><time>2026-03-28T12:03:09.953Z</time></trkpt><trkpt lat="53.33780009309103" lon="14.707152918299206"><ele>110.8</ele><time>2026-03-28T12:03:10.953Z</time></trkpt><trkpt lat="53.337853182353285" lon="14.707000361397844"><ele>111.19999999999999</ele><time>2026-03-28T12:03:11.953Z</time></trkpt><trkpt lat="53.33791164411596" lon="14.706866590837162"><ele>111.6</ele><time>2026-03-28T12:03:12.953Z</time></trkpt><trkpt lat="53.33796886107312" lon="14.706699691265742"><ele>112.0</ele><time>2026-03-28T12:03:13.953Z</time></trkpt><trkpt lat="53.33804664310471" lon="14.706527283452289"><ele>112.25</ele><time>2026-03-28T12:03:14.953Z</time></trkpt><trkpt lat="53.33815113852161" lon="14.706382706080609"><ele>112.5</ele><time>2026-03-28T12:03:15.953Z</time></trkpt><trkpt lat="53.338264319814215" lon="14.706234658088562"><ele>112.75</ele><time>2026-03-28T12:03:16.953Z</time></trkpt><trkpt lat="53.338358321525796" lon="14.706084304777084"><ele>113.0</ele><time>2026-03-28T12:03:17.953Z</time></trkpt><trkpt lat="53.3384575693644" lon="14.705945073937528"><ele>113.0</ele><time>2026-03-28T12:03:18.953Z</time></trkpt><trkpt lat="53.33854311479133" lon="14.705834233911633"><ele>113.00000000000001</ele><time>2026-03-28T12:03:19.953Z</time></trkpt><trkpt lat="53.33861635583491" lon="14.705722614236652"><ele>113.00000000000001</ele><time>2026-03-28T12:03:20.953Z</time></trkpt><trkpt lat="53.3386948431047" lon="14.705593566732901"><ele>113.0</ele><time>2026-03-28T12:03:21.953Z</time></trkpt><trkpt lat="53.33877188788017" lon="14.705498260122926"><ele>113.0</ele><time>2026-03-28T12:03:22.953Z</time></trkpt><trkpt lat="53.33887608001596" lon="14.705431697089953"><ele>112.4</ele><time>2026-03-28T12:03:23.953Z</time></trkpt><trkpt lat="53.33898241393742" lon="14.70536777630774"><ele>111.80000000000001</ele><time>2026-03-28T12:03:24.953Z</time></trkpt><trkpt lat="53.33909432477552" lon="14.705317002506861"><ele>111.2</ele><time>2026-03-28T12:03:25.953Z</time></trkpt><trkpt lat="53.33921294719655" lon="14.705286266889114"><ele>110.6</ele><time>2026-03-28T12:03:26.953Z</time></trkpt><trkpt lat="53.33930945405939" lon="14.70524259920946"><ele>110.0</ele><time>2026-03-28T12:03:27.953Z</time></trkpt><trkpt lat="53.33942421930057" lon="14.705202014927496"><ele>110.0</ele><time>2026-03-28T12:03:28.953Z</time></trkpt><trkpt lat="53.33955491199264" lon="14.7051573687489"><ele>110.0</ele><time>2026-03-28T12:03:29.953Z</time></trkpt><trkpt lat="53.33968690026307" lon="14.705124596106844"><ele>110.0</ele><time>2026-03-28T12:03:30.953Z</time></trkpt><trkpt lat="53.339809354697714" lon="14.705082526671237"><ele>110.0</ele><time>2026-03-28T12:03:31.953Z</time></trkpt><trkpt lat="53.33993768593867" lon="14.705059622536996"><ele>109.25</ele><time>2026-03-28T12:03:32.953Z</time></trkpt><trkpt lat="53.3400552675909" lon="14.705043145104076"><ele>108.5</ele><time>2026-03-28T12:03:33.953Z</time></trkpt><trkpt lat="53.34016507243151" lon="14.705013662487685"><ele>107.75</ele><time>2026-03-28T12:03:34.953Z</time></trkpt><trkpt lat="53.34027951156652" lon="14.704988057235505"><ele>107.0</ele><time>2026-03-28T12:03:35.953Z</time></trkpt><trkpt lat="53.34039395554871" lon="14.704964782541678"><ele>107.0</ele><time>2026-03-28T12:03:36.953Z</time></trkpt><trkpt lat="53.34051555082764" lon="14.704916756751132"><ele>107.0</ele><time>2026-03-28T12:03:37.953Z</time></trkpt><trkpt lat="53.34064283673737" lon="14.704887230326854"><ele>107.0</ele><time>2026-03-28T12:03:38.953Z</time></trkpt><trkpt lat="53.340768811047276" lon="14.70486863116416"><ele>107.0</ele><time>2026-03-28T12:03:39.953Z</time></trkpt><trkpt lat="53.34088541846316" lon="14.70483173272324"><ele>105.5</ele><time>2026-03-28T12:03:40.953Z</time></trkpt><trkpt lat="53.340993258045934" lon="14.704750044641917"><ele>104.0</ele><time>2026-03-28T12:03:41.953Z</time></trkpt><trkpt lat="53.341099385106844" lon="14.704655540152462"><ele>102.5</ele><time>2026-03-28T12:03:42.953Z</time></trkpt><trkpt lat="53.341215740456995" lon="14.704524205940285"><ele>101.0</ele><time>2026-03-28T12:03:43.953Z</time></trkpt><trkpt lat="53.34133347931057" lon="14.704380110806717"><ele>97.33333333333333</ele><time>2026-03-28T12:03:44.953Z</time></trkpt><trkpt lat="53.34144471869051" lon="14.704218136622162"><ele>93.66666666666666</ele><time>2026-03-28T12:03:45.953Z</time></trkpt><trkpt lat="53.34160274471308" lon="14.704038652986334"><ele>90.0</ele><time>2026-03-28T12:03:46.953Z</time></trkpt><trkpt lat="53.341753813649134" lon="14.703883404978374"><ele>90.0</ele><time>2026-03-28T12:03:47.953Z</time></trkpt><trkpt lat="53.34187520210022" lon="14.70376020046317"><ele>90.0</ele><time>2026-03-28T12:03:48.953Z</time></trkpt><trkpt lat="53.34200416577046" lon="14.703613408405305"><ele>90.0</ele><time>2026-03-28T12:03:49.953Z</time></trkpt><trkpt lat="53.34211729584706" lon="14.703488617549768"><ele>90.0</ele><time>2026-03-28T12:03:50.953Z</time></trkpt><trkpt lat="53.342226872433" lon="14.703372851359724"><ele>89.0</ele><time>2026-03-28T12:03:51.953Z</time></trkpt><trkpt lat="53.34231728113018" lon="14.703227090627038"><ele>88.0</ele><time>2026-03-28T12:03:52.953Z</time></trkpt><trkpt lat="53.34241304995684" lon="14.70300470340127"><ele>87.0</ele><time>2026-03-28T12:03:53.953Z</time></trkpt><trkpt lat="53.34250904129663" lon="14.702780528137328"><ele>87.0</ele><time>2026-03-28T12:03:54.953Z</time></trkpt><trkpt lat="53.34261069742198" lon="14.702531758193519"><ele>87.0</ele><time>2026-03-28T12:03:55.953Z</time></trkpt><trkpt lat="53.34267965954027" lon="14.702294571304016"><ele>87.0</ele><time>2026-03-28T12:03:56.953Z</time></trkpt><trkpt lat="53.342743705786425" lon="14.70209652298091"><ele>87.0</ele><time>2026-03-28T12:03:57.953Z</time></trkpt><trkpt lat="53.34281967948956" lon="14.701927668956499"><ele>87.0</ele><time>2026-03-28T12:03:58.953Z</time></trkpt><trkpt lat="53.342879845843484" lon="14.701784619982838"><ele>87.0</ele><time>2026-03-28T12:03:59.953Z</time></trkpt><trkpt lat="53.34294872257189" lon="14.701652070684046"><ele>87.0</ele><time>2026-03-28T12:04:00.953Z</time></trkpt><trkpt lat="53.34303602705786" lon="14.701538151814932"><ele>87.0</ele><time>2026-03-28T12:04:01.953Z</time></trkpt><trkpt lat="53.34314725575885" lon="14.70143319125612"><ele>84.33333333333333</ele><time>2026-03-28T12:04:02.953Z</time></trkpt><trkpt lat="53.34328301059973" lon="14.701348319611391"><ele>81.66666666666666</ele><time>2026-03-28T12:04:03.953Z</time></trkpt><trkpt lat="53.34346108936098" lon="14.701227467940347"><ele>79.0</ele><time>2026-03-28T12:04:04.953Z</time></trkpt><trkpt lat="53.343650804203854" lon="14.701104088499646"><ele>76.66666666666666</ele><time>2026-03-28T12:04:05.953Z</time></trkpt><trkpt lat="53.34384760194356" lon="14.700974581260294"><ele>74.33333333333333</ele><time>2026-03-28T12:04:06.953Z</time></trkpt><trkpt lat="53.34406218530407" lon="14.700818606832524"><ele>72.0</ele><time>2026-03-28T12:04:07.953Z</time></trkpt><trkpt lat="53.344236060821" lon="14.70070155133438"><ele>71.33333333333333</ele><time>2026-03-28T12:04:08.953Z</time></trkpt><trkpt lat="53.34437562346124" lon="14.700603696923359"><ele>70.66666666666666</ele><time>2026-03-28T12:04:09.953Z</time></trkpt><trkpt lat="53.34452028001064" lon="14.700492616464803"><ele>70.0</ele><time>2026-03-28T12:04:10.953Z</time></trkpt><trkpt lat="53.3446478353356" lon="14.700398951480407"><ele>69.75</ele><time>2026-03-28T12:04:11.953Z</time></trkpt><trkpt lat="53.34478529316414" lon="14.700305333093215"><ele>69.5</ele><time>2026-03-28T12:04:12.953Z</time></trkpt><trkpt lat="53.34490671657885" lon="14.7002258434706"><ele>69.25</ele><time>2026-03-28T12:04:13.953Z</time></trkpt><trkpt lat="53.345003586028994" lon="14.700180835744339"><ele>69.0</ele><time>2026-03-28T12:04:14.953Z</time></trkpt><trkpt lat="53.34512911539294" lon="14.700163394004376"><ele>69.0</ele><time>2026-03-28T12:04:15.953Z</time></trkpt><trkpt lat="53.3452480001026" lon="14.700163423476"><ele>69.0</ele><time>2026-03-28T12:04:16.953Z</time></trkpt><trkpt lat="53.34534110425667" lon="14.700168205357365"><ele>69.0</ele><time>2026-03-28T12:04:17.953Z</time></trkpt><trkpt lat="53.34542351430632" lon="14.700173281654193"><ele>69.0</ele><time>2026-03-28T12:04:18.953Z</time></trkpt><trkpt lat="53.34549405625948" lon="14.70017024815685"><ele>69.0</ele><time>2026-03-28T12:04:19.953Z</time></trkpt><trkpt lat="53.345622870577735" lon="14.700173110460062"><ele>69.0</ele><time>2026-03-28T12:04:21.953Z</time></trkpt><trkpt lat="53.34571894695485" lon="14.70018686411626"><ele>69.0</ele><time>2026-03-28T12:04:22.953Z</time></trkpt><trkpt lat="53.34582091670892" lon="14.700186417329707"><ele>69.0</ele><time>2026-03-28T12:04:23.953Z</time></trkpt><trkpt lat="53.34597704327124" lon="14.700199496310583"><ele>69.0</ele><time>2026-03-28T12:04:25.953Z</time></trkpt><trkpt lat="53.34606830314081" lon="14.700192827712554"><ele>69.0</ele><time>2026-03-28T12:04:26.953Z</time></trkpt><trkpt lat="53.34616272200958" lon="14.700172719922762"><ele>69.0</ele><time>2026-03-28T12:04:27.953Z</time></trkpt><trkpt lat="53.34625471380683" lon="14.700170684354442"><ele>69.0</ele><time>2026-03-28T12:04:28.953Z</time></trkpt><trkpt lat="53.34634775958077" lon="14.700165924607829"><ele>69.0</ele><time>2026-03-28T12:04:29.953Z</time></trkpt><trkpt lat="53.34645873451283" lon="14.700178374255366"><ele>69.0</ele><time>2026-03-28T12:04:30.953Z</time></trkpt><trkpt lat="53.34656920848478" lon="14.700183770976231"><ele>69.0</ele><time>2026-03-28T12:04:31.953Z</time></trkpt><trkpt lat="53.34669643481903" lon="14.700177327856604"><ele>67.75</ele><time>2026-03-28T12:04:32.953Z</time></trkpt><trkpt lat="53.34682205870556" lon="14.700156683942886"><ele>66.5</ele><time>2026-03-28T12:04:33.953Z</time></trkpt><trkpt lat="53.34695550550495" lon="14.70012641511957"><ele>65.25</ele><time>2026-03-28T12:04:34.953Z</time></trkpt><trkpt lat="53.34708700086052" lon="14.700107412023025"><ele>64.0</ele><time>2026-03-28T12:04:35.953Z</time></trkpt><trkpt lat="53.34720847855261" lon="14.700097299047338"><ele>63.400000000000006</ele><time>2026-03-28T12:04:36.953Z</time></trkpt><trkpt lat="53.34731656885147" lon="14.700096453549813"><ele>62.800000000000004</ele><time>2026-03-28T12:04:37.953Z</time></trkpt><trkpt lat="53.3474136647042" lon="14.700072252923096"><ele>62.199999999999996</ele><time>2026-03-28T12:04:38.953Z</time></trkpt><trkpt lat="53.34752813776503" lon="14.700060368399575"><ele>61.599999999999994</ele><time>2026-03-28T12:04:39.953Z</time></trkpt><trkpt lat="53.34763297787961" lon="14.700037811977108"><ele>61.0</ele><time>2026-03-28T12:04:40.952Z</time></trkpt><trkpt lat="53.34770533865678" lon="14.700018235165032"><ele>61.0</ele><time>2026-03-28T12:04:41.951Z</time></trkpt><trkpt lat="53.34779319592604" lon="14.700001752600723"><ele>60.99999999999999</ele><time>2026-03-28T12:04:42.951Z</time></trkpt><trkpt lat="53.34788920376255" lon="14.700029212583686"><ele>60.99999999999999</ele><time>2026-03-28T12:04:43.951Z</time></trkpt><trkpt lat="53.34800661021874" lon="14.700078248005067"><ele>61.0</ele><time>2026-03-28T12:04:44.952Z</time></trkpt><trkpt lat="53.34809996539452" lon="14.700159284888176"><ele>61.0</ele><time>2026-03-28T12:04:45.952Z</time></trkpt><trkpt lat="53.348182658061155" lon="14.700219073055836"><ele>62.33333333333333</ele><time>2026-03-28T12:04:46.951Z</time></trkpt><trkpt lat="53.34826332219667" lon="14.700274457719948"><ele>63.666666666666664</ele><time>2026-03-28T12:04:47.951Z</time></trkpt><trkpt lat="53.348344791124184" lon="14.700320393699794"><ele>65.0</ele><time>2026-03-28T12:04:48.951Z</time></trkpt><trkpt lat="53.34842853168853" lon="14.700381732823145"><ele>66.33333333333333</ele><time>2026-03-28T12:04:49.951Z</time></trkpt><trkpt lat="53.348509096709314" lon="14.700442133602737"><ele>67.66666666666667</ele><time>2026-03-28T12:04:50.951Z</time></trkpt><trkpt lat="53.348592068231035" lon="14.700510892168579"><ele>69.0</ele><time>2026-03-28T12:04:51.951Z</time></trkpt><trkpt lat="53.3486566715978" lon="14.700581447562628"><ele>69.0</ele><time>2026-03-28T12:04:52.951Z</time></trkpt><trkpt lat="53.34871382196441" lon="14.700639670799493"><ele>69.0</ele><time>2026-03-28T12:04:53.951Z</time></trkpt><trkpt lat="53.348782236793916" lon="14.700657263582974"><ele>69.0</ele><time>2026-03-28T12:04:54.951Z</time></trkpt><trkpt lat="53.348849981948824" lon="14.700648421843447"><ele>69.0</ele><time>2026-03-28T12:04:55.951Z</time></trkpt><trkpt lat="53.348931171794725" lon="14.700511545981957"><ele>69.0</ele><time>2026-03-28T12:04:57.951Z</time></trkpt><trkpt lat="53.34897759105799" lon="14.70033591590208"><ele>69.0</ele><time>2026-03-28T12:04:59.951Z</time></trkpt><trkpt lat="53.34902572513151" lon="14.70021674170493"><ele>71.5</ele><time>2026-03-28T12:05:00.951Z</time></trkpt><trkpt lat="53.34909084647214" lon="14.700094208507796"><ele>74.0</ele><time>2026-03-28T12:05:01.951Z</time></trkpt><trkpt lat="53.34918159202193" lon="14.700012668808808"><ele>76.5</ele><time>2026-03-28T12:05:02.951Z</time></trkpt><trkpt lat="53.34929506358687" lon="14.699896170077773"><ele>79.0</ele><time>2026-03-28T12:05:03.951Z</time></trkpt><trkpt lat="53.34941908921541" lon="14.699769509113965"><ele>79.0</ele><time>2026-03-28T12:05:04.951Z</time></trkpt><trkpt lat="53.349561869705084" lon="14.699617603795971"><ele>79.0</ele><time>2026-03-28T12:05:05.951Z</time></trkpt><trkpt lat="53.349676020161866" lon="14.699535822194441"><ele>79.0</ele><time>2026-03-28T12:05:06.951Z</time></trkpt><trkpt lat="53.34975006970293" lon="14.699476015671006"><ele>79.0</ele><time>2026-03-28T12:05:07.951Z</time></trkpt><trkpt lat="53.34983842912291" lon="14.699399226846595"><ele>78.75</ele><time>2026-03-28T12:05:08.951Z</time></trkpt><trkpt lat="53.34992670545514" lon="14.699310304262404"><ele>78.5</ele><time>2026-03-28T12:05:09.951Z</time></trkpt><trkpt lat="53.35004902906857" lon="14.699240172424277"><ele>78.25</ele><time>2026-03-28T12:05:10.951Z</time></trkpt><trkpt lat="53.35014804544385" lon="14.699155386265742"><ele>78.0</ele><time>2026-03-28T12:05:11.951Z</time></trkpt><trkpt lat="53.35024559751249" lon="14.699077825678728"><ele>78.0</ele><time>2026-03-28T12:05:12.951Z</time></trkpt><trkpt lat="53.3503328673466" lon="14.698989972658383"><ele>78.0</ele><time>2026-03-28T12:05:13.951Z</time></trkpt><trkpt lat="53.35042711245792" lon="14.698927321494585"><ele>78.0</ele><time>2026-03-28T12:05:14.951Z</time></trkpt><trkpt lat="53.35051888501527" lon="14.698870656137846"><ele>78.0</ele><time>2026-03-28T12:05:15.951Z</time></trkpt><trkpt lat="53.35061992669463" lon="14.698811002342076"><ele>78.0</ele><time>2026-03-28T12:05:16.951Z</time></trkpt><trkpt lat="53.3507297011717" lon="14.698709047948714"><ele>77.8</ele><time>2026-03-28T12:05:17.951Z</time></trkpt><trkpt lat="53.35083911389968" lon="14.698631910803586"><ele>77.6</ele><time>2026-03-28T12:05:18.951Z</time></trkpt><trkpt lat="53.35094362377865" lon="14.698568981838802"><ele>77.4</ele><time>2026-03-28T12:05:19.951Z</time></trkpt><trkpt lat="53.3510237238051" lon="14.698521969977604"><ele>77.2</ele><time>2026-03-28T12:05:20.951Z</time></trkpt><trkpt lat="53.351092891604786" lon="14.69847973936964"><ele>77.0</ele><time>2026-03-28T12:05:21.951Z</time></trkpt><trkpt lat="53.35118527308844" lon="14.698410140288427"><ele>77.0</ele><time>2026-03-28T12:05:22.951Z</time></trkpt><trkpt lat="53.351268572299155" lon="14.698289564186904"><ele>77.0</ele><time>2026-03-28T12:05:23.951Z</time></trkpt><trkpt lat="53.35135652775881" lon="14.698159650011837"><ele>77.0</ele><time>2026-03-28T12:05:24.951Z</time></trkpt><trkpt lat="53.35143513415025" lon="14.69802637097158"><ele>77.0</ele><time>2026-03-28T12:05:25.951Z</time></trkpt><trkpt lat="53.351519247669536" lon="14.697890304391189"><ele>76.5</ele><time>2026-03-28T12:05:26.951Z</time></trkpt><trkpt lat="53.35160501224019" lon="14.697724629567606"><ele>76.0</ele><time>2026-03-28T12:05:27.951Z</time></trkpt><trkpt lat="53.35168238046081" lon="14.697545706046462"><ele>75.5</ele><time>2026-03-28T12:05:28.951Z</time></trkpt><trkpt lat="53.35177131017479" lon="14.697396217602563"><ele>75.0</ele><time>2026-03-28T12:05:29.951Z</time></trkpt><trkpt lat="53.351862505483545" lon="14.697246568819915"><ele>75.0</ele><time>2026-03-28T12:05:30.951Z</time></trkpt><trkpt lat="53.35195278509078" lon="14.697086977149477"><ele>75.0</ele><time>2026-03-28T12:05:31.951Z</time></trkpt><trkpt lat="53.352033799701935" lon="14.696936186722365"><ele>75.0</ele><time>2026-03-28T12:05:32.951Z</time></trkpt><trkpt lat="53.35212396228364" lon="14.696796167756666"><ele>75.0</ele><time>2026-03-28T12:05:33.951Z</time></trkpt><trkpt lat="53.352221541795736" lon="14.696645730481682"><ele>74.33333333333333</ele><time>2026-03-28T12:05:34.951Z</time></trkpt><trkpt lat="53.35232148786127" lon="14.696465196595113"><ele>73.66666666666666</ele><time>2026-03-28T12:05:35.951Z</time></trkpt><trkpt lat="53.352435752725754" lon="14.696263664483736"><ele>73.0</ele><time>2026-03-28T12:05:36.951Z</time></trkpt><trkpt lat="53.3525603968893" lon="14.69605754502794"><ele>72.8</ele><time>2026-03-28T12:05:37.951Z</time></trkpt><trkpt lat="53.35266016931577" lon="14.695887839964715"><ele>72.6</ele><time>2026-03-28T12:05:38.951Z</time></trkpt><trkpt lat="53.35272878797597" lon="14.695722029010254"><ele>72.4</ele><time>2026-03-28T12:05:39.951Z</time></trkpt><trkpt lat="53.35278629690971" lon="14.695617316198783"><ele>72.2</ele><time>2026-03-28T12:05:40.951Z</time></trkpt><trkpt lat="53.35284086997616" lon="14.695560477470629"><ele>72.0</ele><time>2026-03-28T12:05:41.951Z</time></trkpt><trkpt lat="53.35291195142117" lon="14.69553848635971"><ele>72.0</ele><time>2026-03-28T12:05:42.951Z</time></trkpt><trkpt lat="53.353017972784556" lon="14.695539471255264"><ele>72.0</ele><time>2026-03-28T12:05:43.951Z</time></trkpt><trkpt lat="53.35313696865837" lon="14.695579855080993"><ele>72.0</ele><time>2026-03-28T12:05:44.951Z</time></trkpt><trkpt lat="53.35327447936155" lon="14.695573062847211"><ele>72.0</ele><time>2026-03-28T12:05:45.951Z</time></trkpt><trkpt lat="53.353403065392484" lon="14.695569706357483"><ele>71.75</ele><time>2026-03-28T12:05:46.951Z</time></trkpt><trkpt lat="53.35351506263516" lon="14.695556252595479"><ele>71.5</ele><time>2026-03-28T12:05:47.951Z</time></trkpt><trkpt lat="53.353648752567814" lon="14.695538091307093"><ele>71.25</ele><time>2026-03-28T12:05:48.951Z</time></trkpt><trkpt lat="53.35379876614525" lon="14.695527080046139"><ele>71.0</ele><time>2026-03-28T12:05:49.951Z</time></trkpt><trkpt lat="53.35393737397877" lon="14.695505003661701"><ele>70.75</ele><time>2026-03-28T12:05:50.951Z</time></trkpt><trkpt lat="53.35407600983063" lon="14.6954783043502"><ele>70.5</ele><time>2026-03-28T12:05:51.951Z</time></trkpt><trkpt lat="53.35422288581435" lon="14.695450126691917"><ele>70.25</ele><time>2026-03-28T12:05:52.951Z</time></trkpt><trkpt lat="53.3543805800242" lon="14.695417025360136"><ele>70.0</ele><time>2026-03-28T12:05:53.951Z</time></trkpt><trkpt lat="53.354513312867525" lon="14.695402343034331"><ele>70.0</ele><time>2026-03-28T12:05:54.951Z</time></trkpt><trkpt lat="53.35463326457827" lon="14.695379905160838"><ele>70.0</ele><time>2026-03-28T12:05:55.951Z</time></trkpt><trkpt lat="53.35474231849283" lon="14.695399939591207"><ele>70.0</ele><time>2026-03-28T12:05:56.951Z</time></trkpt><trkpt lat="53.354865490876094" lon="14.695383735043704"><ele>70.0</ele><time>2026-03-28T12:05:57.951Z</time></trkpt><trkpt lat="53.355005679381" lon="14.695369660574562"><ele>69.75</ele><time>2026-03-28T12:05:58.951Z</time></trkpt><trkpt lat="53.35512686257304" lon="14.695378079848311"><ele>69.5</ele><time>2026-03-28T12:05:59.951Z</time></trkpt><trkpt lat="53.35525212141473" lon="14.69536523003319"><ele>69.25</ele><time>2026-03-28T12:06:00.951Z</time></trkpt><trkpt lat="53.35536783871532" lon="14.695379414134448"><ele>69.0</ele><time>2026-03-28T12:06:01.951Z</time></trkpt><trkpt lat="53.35546686643045" lon="14.69538980434418"><ele>67.75</ele><time>2026-03-28T12:06:02.951Z</time></trkpt><trkpt lat="53.355568067520345" lon="14.695408566915608"><ele>66.5</ele><time>2026-03-28T12:06:03.951Z</time></trkpt><trkpt lat="53.35566397101527" lon="14.69545183484073"><ele>65.25</ele><time>2026-03-28T12:06:04.951Z</time></trkpt><trkpt lat="53.35578655361026" lon="14.695459269236677"><ele>64.0</ele><time>2026-03-28T12:06:05.951Z</time></trkpt><trkpt lat="53.35593395076717" lon="14.695495655529362"><ele>64.0</ele><time>2026-03-28T12:06:06.951Z</time></trkpt><trkpt lat="53.356097879881524" lon="14.695550735997571"><ele>64.0</ele><time>2026-03-28T12:06:07.951Z</time></trkpt><trkpt lat="53.356221643178195" lon="14.695597962049488"><ele>64.0</ele><time>2026-03-28T12:06:08.951Z</time></trkpt><trkpt lat="53.35635894944574" lon="14.695643932675353"><ele>64.0</ele><time>2026-03-28T12:06:09.951Z</time></trkpt><trkpt lat="53.35647343833091" lon="14.695682767867753"><ele>63.25</ele><time>2026-03-28T12:06:10.951Z</time></trkpt><trkpt lat="53.35658537249242" lon="14.695715805737432"><ele>62.5</ele><time>2026-03-28T12:06:11.951Z</time></trkpt><trkpt lat="53.356716582592995" lon="14.695749592525752"><ele>61.75</ele><time>2026-03-28T12:06:12.951Z</time></trkpt><trkpt lat="53.356826165981445" lon="14.69578858378927"><ele>61.0</ele><time>2026-03-28T12:06:13.951Z</time></trkpt><trkpt lat="53.35696881547548" lon="14.695846565866047"><ele>61.0</ele><time>2026-03-28T12:06:14.951Z</time></trkpt><trkpt lat="53.35710471629602" lon="14.695918081988959"><ele>61.0</ele><time>2026-03-28T12:06:15.951Z</time></trkpt><trkpt lat="53.35725764465465" lon="14.695986581692098"><ele>61.0</ele><time>2026-03-28T12:06:16.951Z</time></trkpt><trkpt lat="53.35738298771527" lon="14.69604344922392"><ele>61.0</ele><time>2026-03-28T12:06:17.951Z</time></trkpt><trkpt lat="53.357501996324686" lon="14.696059004871165"><ele>60.5</ele><time>2026-03-28T12:06:18.951Z</time></trkpt><trkpt lat="53.35762421538717" lon="14.696067737842235"><ele>60.0</ele><time>2026-03-28T12:06:19.951Z</time></trkpt><trkpt lat="53.357734854589346" lon="14.696076179002018"><ele>59.5</ele><time>2026-03-28T12:06:20.951Z</time></trkpt><trkpt lat="53.35784254061557" lon="14.696062159956115"><ele>59.0</ele><time>2026-03-28T12:06:21.951Z</time></trkpt><trkpt lat="53.35795809063882" lon="14.696047096359937"><ele>58.0</ele><time>2026-03-28T12:06:22.951Z</time></trkpt><trkpt lat="53.35805278495062" lon="14.696048596055974"><ele>57.00000000000001</ele><time>2026-03-28T12:06:23.951Z</time></trkpt><trkpt lat="53.358167145586954" lon="14.696026708223357"><ele>56.00000000000001</ele><time>2026-03-28T12:06:24.951Z</time></trkpt><trkpt lat="53.358275308157275" lon="14.696014914117086"><ele>55.0</ele><time>2026-03-28T12:06:25.951Z</time></trkpt><trkpt lat="53.35839452337061" lon="14.695996447603452"><ele>54.0</ele><time>2026-03-28T12:06:26.951Z</time></trkpt><trkpt lat="53.35852351653504" lon="14.69599100441876"><ele>54.0</ele><time>2026-03-28T12:06:27.951Z</time></trkpt><trkpt lat="53.35864733865503" lon="14.695985490369349"><ele>54.0</ele><time>2026-03-28T12:06:28.951Z</time></trkpt><trkpt lat="53.35876583520092" lon="14.695971794708274"><ele>54.0</ele><time>2026-03-28T12:06:29.951Z</time></trkpt><trkpt lat="53.358874375167126" lon="14.695943849285289"><ele>54.0</ele><time>2026-03-28T12:06:30.951Z</time></trkpt><trkpt lat="53.35899439799099" lon="14.695930024794025"><ele>51.0</ele><time>2026-03-28T12:06:31.951Z</time></trkpt><trkpt lat="53.35910213548265" lon="14.695920157966073"><ele>48.00000000000001</ele><time>2026-03-28T12:06:32.951Z</time></trkpt><trkpt lat="53.35920298683781" lon="14.695894253474298"><ele>45.0</ele><time>2026-03-28T12:06:33.951Z</time></trkpt><trkpt lat="53.35931696465466" lon="14.695884731710546"><ele>42.0</ele><time>2026-03-28T12:06:34.951Z</time></trkpt><trkpt lat="53.35942066293594" lon="14.695850993648765"><ele>39.0</ele><time>2026-03-28T12:06:35.951Z</time></trkpt><trkpt lat="53.35951335325839" lon="14.695821982218424"><ele>39.0</ele><time>2026-03-28T12:06:36.951Z</time></trkpt><trkpt lat="53.359593383683865" lon="14.69580507807552"><ele>39.0</ele><time>2026-03-28T12:06:37.951Z</time></trkpt><trkpt lat="53.35965791000161" lon="14.695790486469638"><ele>39.0</ele><time>2026-03-28T12:06:38.951Z</time></trkpt><trkpt lat="53.35977204239145" lon="14.695760736227019"><ele>39.0</ele><time>2026-03-28T12:06:40.951Z</time></trkpt><trkpt lat="53.35988502739271" lon="14.695762663155467"><ele>39.0</ele><time>2026-03-28T12:06:42.951Z</time></trkpt><trkpt lat="53.35997388751072" lon="14.695796451611598"><ele>37.6</ele><time>2026-03-28T12:06:44.951Z</time></trkpt><trkpt lat="53.36004711169089" lon="14.695835385831598"><ele>36.2</ele><time>2026-03-28T12:06:48.95Z</time></trkpt><trkpt lat="53.36010346255404" lon="14.695904730743859"><ele>34.800000000000004</ele><time>2026-03-28T12:07:03.95Z</time></trkpt><trkpt lat="53.36017222583934" lon="14.695999569105576"><ele>33.4</ele><time>2026-03-28T12:07:05.95Z</time></trkpt><trkpt lat="53.36026546692742" lon="14.696128328464336"><ele>32.0</ele><time>2026-03-28T12:07:07.95Z</time></trkpt><trkpt lat="53.36036171836946" lon="14.696258488271155"><ele>32.0</ele><time>2026-03-28T12:07:09.95Z</time></trkpt><trkpt lat="53.36042158163299" lon="14.696338388005113"><ele>32.0</ele><time>2026-03-28T12:07:10.95Z</time></trkpt><trkpt lat="53.36048788429031" lon="14.696441293821538"><ele>32.0</ele><time>2026-03-28T12:07:11.95Z</time></trkpt><trkpt lat="53.360555324336815" lon="14.696548605205493"><ele>32.0</ele><time>2026-03-28T12:07:12.95Z</time></trkpt><trkpt lat="53.3606283541626" lon="14.696668004677203"><ele>32.0</ele><time>2026-03-28T12:07:13.95Z</time></trkpt><trkpt lat="53.36071031443865" lon="14.696739814937525"><ele>32.4</ele><time>2026-03-28T12:07:14.95Z</time></trkpt><trkpt lat="53.360797956477164" lon="14.696839898946818"><ele>32.800000000000004</ele><time>2026-03-28T12:07:15.95Z</time></trkpt><trkpt lat="53.360890421659114" lon="14.696936546890145"><ele>33.2</ele><time>2026-03-28T12:07:16.95Z</time></trkpt><trkpt lat="53.36097825578375" lon="14.697013441279289"><ele>33.6</ele><time>2026-03-28T12:07:17.95Z</time></trkpt><trkpt lat="53.36108081388281" lon="14.697126281846398"><ele>34.0</ele><time>2026-03-28T12:07:18.95Z</time></trkpt><trkpt lat="53.36118685117536" lon="14.697223059203544"><ele>34.0</ele><time>2026-03-28T12:07:19.95Z</time></trkpt><trkpt lat="53.36127942386285" lon="14.697345588483795"><ele>34.0</ele><time>2026-03-28T12:07:20.95Z</time></trkpt><trkpt lat="53.36137202060135" lon="14.697428563744745"><ele>34.0</ele><time>2026-03-28T12:07:21.95Z</time></trkpt><trkpt lat="53.36146557756475" lon="14.697512339459108"><ele>34.0</ele><time>2026-03-28T12:07:22.95Z</time></trkpt><trkpt lat="53.36155157721289" lon="14.697601632169421"><ele>34.0</ele><time>2026-03-28T12:07:23.95Z</time></trkpt><trkpt lat="53.36165637427098" lon="14.697698188441583"><ele>33.75</ele><time>2026-03-28T12:07:24.95Z</time></trkpt><trkpt lat="53.3617700164883" lon="14.697790176798838"><ele>33.5</ele><time>2026-03-28T12:07:25.95Z</time></trkpt><trkpt lat="53.361873844128425" lon="14.697877459357517"><ele>33.25</ele><time>2026-03-28T12:07:26.95Z</time></trkpt><trkpt lat="53.36199470731225" lon="14.697962275895206"><ele>33.0</ele><time>2026-03-28T12:07:27.95Z</time></trkpt><trkpt lat="53.36211963973551" lon="14.698045113646861"><ele>33.0</ele><time>2026-03-28T12:07:28.95Z</time></trkpt><trkpt lat="53.36224050474352" lon="14.698159358185283"><ele>33.0</ele><time>2026-03-28T12:07:29.95Z</time></trkpt><trkpt lat="53.362353902567506" lon="14.698244286024737"><ele>33.0</ele><time>2026-03-28T12:07:30.95Z</time></trkpt><trkpt lat="53.36246985005513" lon="14.698345797410436"><ele>33.0</ele><time>2026-03-28T12:07:31.95Z</time></trkpt><trkpt lat="53.362588199654525" lon="14.698430581424196"><ele>33.0</ele><time>2026-03-28T12:07:32.95Z</time></trkpt><trkpt lat="53.362709813800926" lon="14.698515885252892"><ele>33.0</ele><time>2026-03-28T12:07:33.95Z</time></trkpt><trkpt lat="53.362825030371766" lon="14.698640789795949"><ele>33.0</ele><time>2026-03-28T12:07:34.95Z</time></trkpt><trkpt lat="53.36295020113844" lon="14.698739970197153"><ele>33.0</ele><time>2026-03-28T12:07:35.95Z</time></trkpt><trkpt lat="53.363071384998946" lon="14.698843022269203"><ele>32.75</ele><time>2026-03-28T12:07:36.95Z</time></trkpt><trkpt lat="53.3631877554213" lon="14.698942163548315"><ele>32.5</ele><time>2026-03-28T12:07:37.95Z</time></trkpt><trkpt lat="53.3632905062191" lon="14.699024333135354"><ele>32.25</ele><time>2026-03-28T12:07:38.95Z</time></trkpt><trkpt lat="53.36338173962991" lon="14.699116727727535"><ele>32.0</ele><time>2026-03-28T12:07:39.95Z</time></trkpt><trkpt lat="53.3634676891031" lon="14.69922605527615"><ele>32.0</ele><time>2026-03-28T12:07:40.95Z</time></trkpt><trkpt lat="53.363539077061866" lon="14.699343877485607"><ele>32.0</ele><time>2026-03-28T12:07:41.95Z</time></trkpt><trkpt lat="53.36360036928494" lon="14.699457328437964"><ele>32.0</ele><time>2026-03-28T12:07:42.95Z</time></trkpt><trkpt lat="53.36366299489043" lon="14.69949456516127"><ele>32.0</ele><time>2026-03-28T12:07:43.95Z</time></trkpt><trkpt lat="53.363730576207544" lon="14.699516671832"><ele>32.0</ele><time>2026-03-28T12:07:44.95Z</time></trkpt><trkpt lat="53.36388304142192" lon="14.699523931735147"><ele>30.75</ele><time>2026-03-28T12:07:46.95Z</time></trkpt><trkpt lat="53.36400197628333" lon="14.699468746053505"><ele>29.5</ele><time>2026-03-28T12:07:47.95Z</time></trkpt><trkpt lat="53.36412276958538" lon="14.699415363022082"><ele>28.25</ele><time>2026-03-28T12:07:48.95Z</time></trkpt><trkpt lat="53.364246103459315" lon="14.699369358944638"><ele>27.0</ele><time>2026-03-28T12:07:49.95Z</time></trkpt><trkpt lat="53.364346720458094" lon="14.699327337194974"><ele>27.0</ele><time>2026-03-28T12:07:50.95Z</time></trkpt><trkpt lat="53.36444034978419" lon="14.699270375080093"><ele>27.000000000000004</ele><time>2026-03-28T12:07:51.949Z</time></trkpt><trkpt lat="53.36453490059139" lon="14.699208497918484"><ele>27.000000000000004</ele><time>2026-03-28T12:07:52.946Z</time></trkpt><trkpt lat="53.36463451097797" lon="14.699147125804087"><ele>27.0</ele><time>2026-03-28T12:07:53.944Z</time></trkpt><trkpt lat="53.36473537508425" lon="14.699081534917209"><ele>27.0</ele><time>2026-03-28T12:07:54.942Z</time></trkpt><trkpt lat="53.364838498734684" lon="14.699034728884373"><ele>27.0</ele><time>2026-03-28T12:07:55.939Z</time></trkpt><trkpt lat="53.36492715373917" lon="14.698979318007513"><ele>27.000000000000004</ele><time>2026-03-28T12:07:56.937Z</time></trkpt><trkpt lat="53.36501575855064" lon="14.698909743555275"><ele>27.000000000000004</ele><time>2026-03-28T12:07:57.935Z</time></trkpt><trkpt lat="53.36510715588937" lon="14.698809754372029"><ele>27.0</ele><time>2026-03-28T12:07:58.934Z</time></trkpt><trkpt lat="53.365187885001" lon="14.698694789445703"><ele>27.0</ele><time>2026-03-28T12:07:59.932Z</time></trkpt><trkpt lat="53.36527746924861" lon="14.698583204062658"><ele>26.6</ele><time>2026-03-28T12:08:00.93Z</time></trkpt><trkpt lat="53.365360055116966" lon="14.698480461745353"><ele>26.200000000000003</ele><time>2026-03-28T12:08:01.929Z</time></trkpt><trkpt lat="53.365418138703745" lon="14.698368809204135"><ele>25.8</ele><time>2026-03-28T12:08:02.927Z</time></trkpt><trkpt lat="53.36545461310181" lon="14.698277411071183"><ele>25.4</ele><time>2026-03-28T12:08:03.926Z</time></trkpt><trkpt lat="53.365538388407046" lon="14.69813839896403"><ele>25.0</ele><time>2026-03-28T12:08:05.924Z</time></trkpt><trkpt lat="53.36559929034609" lon="14.698031716050087"><ele>25.000000000000004</ele><time>2026-03-28T12:08:07.922Z</time></trkpt><trkpt lat="53.36568055513252" lon="14.697907437191377"><ele>25.0</ele><time>2026-03-28T12:08:09.92Z</time></trkpt><trkpt lat="53.36573416823634" lon="14.697806003516039"><ele>25.0</ele><time>2026-03-28T12:08:11.918Z</time></trkpt><trkpt lat="53.36578490005224" lon="14.697718832239467"><ele>25.0</ele><time>2026-03-28T12:08:13.917Z</time></trkpt><trkpt lat="53.36584350052215" lon="14.697662489177862"><ele>25.000000000000004</ele><time>2026-03-28T12:08:15.915Z</time></trkpt><trkpt lat="53.3658924580833" lon="14.697588228955903"><ele>25.0</ele><time>2026-03-28T12:08:17.914Z</time></trkpt><trkpt lat="53.365956939554216" lon="14.697485551945698"><ele>24.833333333333336</ele><time>2026-03-28T12:08:19.913Z</time></trkpt><trkpt lat="53.36601108363543" lon="14.697399848856964"><ele>24.666666666666668</ele><time>2026-03-28T12:08:21.913Z</time></trkpt><trkpt lat="53.36608293102517" lon="14.697294817772065"><ele>24.5</ele><time>2026-03-28T12:08:23.912Z</time></trkpt><trkpt lat="53.36613210877152" lon="14.697209039259905"><ele>24.333333333333336</ele><time>2026-03-28T12:08:24.911Z</time></trkpt><trkpt lat="53.3662090059286" lon="14.697145234921857"><ele>24.166666666666668</ele><time>2026-03-28T12:08:25.911Z</time></trkpt><trkpt lat="53.36627916315453" lon="14.697034662127264"><ele>24.0</ele><time>2026-03-28T12:08:26.911Z</time></trkpt><trkpt lat="53.366383062413526" lon="14.696913951086254"><ele>23.5</ele><time>2026-03-28T12:08:27.911Z</time></trkpt><trkpt lat="53.36647919759393" lon="14.696790494633408"><ele>23.0</ele><time>2026-03-28T12:08:28.91Z</time></trkpt><trkpt lat="53.36656872992354" lon="14.696652659656682"><ele>22.5</ele><time>2026-03-28T12:08:29.91Z</time></trkpt><trkpt lat="53.366668197403655" lon="14.696495874799355"><ele>22.0</ele><time>2026-03-28T12:08:30.91Z</time></trkpt><trkpt lat="53.36677951760493" lon="14.696351030878159"><ele>22.0</ele><time>2026-03-28T12:08:31.91Z</time></trkpt><trkpt lat="53.3668976992203" lon="14.696214111387299"><ele>22.0</ele><time>2026-03-28T12:08:32.909Z</time></trkpt><trkpt lat="53.36700664291765" lon="14.69606276282225"><ele>22.0</ele><time>2026-03-28T12:08:33.909Z</time></trkpt><trkpt lat="53.36711529267889" lon="14.695875362999393"><ele>22.0</ele><time>2026-03-28T12:08:34.909Z</time></trkpt><trkpt lat="53.367221524946686" lon="14.695719248369777"><ele>22.25</ele><time>2026-03-28T12:08:35.909Z</time></trkpt><trkpt lat="53.36729336885011" lon="14.695544466592438"><ele>22.5</ele><time>2026-03-28T12:08:36.909Z</time></trkpt><trkpt lat="53.367395829948684" lon="14.695372365096452"><ele>22.75</ele><time>2026-03-28T12:08:37.909Z</time></trkpt><trkpt lat="53.367504295033136" lon="14.695229326502036"><ele>23.0</ele><time>2026-03-28T12:08:38.908Z</time></trkpt><trkpt lat="53.36761283888372" lon="14.695068063589634"><ele>23.5</ele><time>2026-03-28T12:08:39.908Z</time></trkpt><trkpt lat="53.36772609530401" lon="14.694898119910432"><ele>24.0</ele><time>2026-03-28T12:08:40.908Z</time></trkpt><trkpt lat="53.3678347858808" lon="14.694733328851305"><ele>24.5</ele><time>2026-03-28T12:08:41.908Z</time></trkpt><trkpt lat="53.36793300323052" lon="14.694593049348377"><ele>25.0</ele><time>2026-03-28T12:08:42.908Z</time></trkpt><trkpt lat="53.3680250368413" lon="14.69445230312778"><ele>23.6</ele><time>2026-03-28T12:08:43.908Z</time></trkpt><trkpt lat="53.36811482780472" lon="14.694331862657512"><ele>22.2</ele><time>2026-03-28T12:08:44.908Z</time></trkpt><trkpt lat="53.3681907511759" lon="14.694236002067637"><ele>20.8</ele><time>2026-03-28T12:08:45.908Z</time></trkpt><trkpt lat="53.36826248193918" lon="14.69415312647472"><ele>19.4</ele><time>2026-03-28T12:08:46.908Z</time></trkpt><trkpt lat="53.368355821603735" lon="14.694038215381605"><ele>18.0</ele><time>2026-03-28T12:08:48.907Z</time></trkpt><trkpt lat="53.36843343512784" lon="14.69394669224041"><ele>18.0</ele><time>2026-03-28T12:08:50.907Z</time></trkpt><trkpt lat="53.368507192717615" lon="14.693842576417774"><ele>18.0</ele><time>2026-03-28T12:08:52.905Z</time></trkpt><trkpt lat="53.36856373090036" lon="14.693792735151002"><ele>18.0</ele><time>2026-03-28T12:08:53.905Z</time></trkpt><trkpt lat="53.36863177307781" lon="14.693687939756213"><ele>18.0</ele><time>2026-03-28T12:08:54.905Z</time></trkpt><trkpt lat="53.36871241479299" lon="14.693600428614713"><ele>18.0</ele><time>2026-03-28T12:08:55.905Z</time></trkpt><trkpt lat="53.368768813789394" lon="14.69354651665221"><ele>18.0</ele><time>2026-03-28T12:08:56.905Z</time></trkpt><trkpt lat="53.36883331691612" lon="14.693441635139326"><ele>17.166666666666668</ele><time>2026-03-28T12:08:58.905Z</time></trkpt><trkpt lat="53.36888503075387" lon="14.6933706837726"><ele>16.333333333333332</ele><time>2026-03-28T12:09:00.905Z</time></trkpt><trkpt lat="53.36893556674457" lon="14.693290192689936"><ele>15.5</ele><time>2026-03-28T12:09:02.905Z</time></trkpt><trkpt lat="53.36898525324681" lon="14.693220556427603"><ele>14.666666666666666</ele><time>2026-03-28T12:09:03.905Z</time></trkpt><trkpt lat="53.369043204830085" lon="14.693145155640346"><ele>13.833333333333332</ele><time>2026-03-28T12:09:04.905Z</time></trkpt><trkpt lat="53.36910414640679" lon="14.693060058738588"><ele>13.0</ele><time>2026-03-28T12:09:05.905Z</time></trkpt><trkpt lat="53.36917967311517" lon="14.692948366649903"><ele>13.0</ele><time>2026-03-28T12:09:06.905Z</time></trkpt><trkpt lat="53.369262662089575" lon="14.692820146914475"><ele>13.0</ele><time>2026-03-28T12:09:07.905Z</time></trkpt><trkpt lat="53.36934870566351" lon="14.6926883415414"><ele>13.0</ele><time>2026-03-28T12:09:08.905Z</time></trkpt><trkpt lat="53.36943798091289" lon="14.692550579505733"><ele>13.0</ele><time>2026-03-28T12:09:09.905Z</time></trkpt><trkpt lat="53.36954267245562" lon="14.692409132520853"><ele>13.0</ele><time>2026-03-28T12:09:10.905Z</time></trkpt><trkpt lat="53.369665811350224" lon="14.692249754971323"><ele>13.0</ele><time>2026-03-28T12:09:11.905Z</time></trkpt><trkpt lat="53.36980092742066" lon="14.692059378421039"><ele>13.0</ele><time>2026-03-28T12:09:12.905Z</time></trkpt><trkpt lat="53.36993579882404" lon="14.691860765276214"><ele>12.666666666666666</ele><time>2026-03-28T12:09:13.905Z</time></trkpt><trkpt lat="53.37009635716692" lon="14.691641877956153"><ele>12.333333333333332</ele><time>2026-03-28T12:09:14.905Z</time></trkpt><trkpt lat="53.37026214798816" lon="14.691420824484059"><ele>12.0</ele><time>2026-03-28T12:09:15.905Z</time></trkpt><trkpt lat="53.37040956545396" lon="14.691210247011735"><ele>12.0</ele><time>2026-03-28T12:09:16.905Z</time></trkpt><trkpt lat="53.37054776173916" lon="14.691012364760882"><ele>12.0</ele><time>2026-03-28T12:09:17.905Z</time></trkpt><trkpt lat="53.3706763596374" lon="14.690835020101089"><ele>12.0</ele><time>2026-03-28T12:09:18.905Z</time></trkpt><trkpt lat="53.37078352050731" lon="14.690693059106449"><ele>12.0</ele><time>2026-03-28T12:09:19.905Z</time></trkpt><trkpt lat="53.370870769233946" lon="14.690605821239888"><ele>12.0</ele><time>2026-03-28T12:09:20.905Z</time></trkpt><trkpt lat="53.37093057646043" lon="14.690520376897668"><ele>12.0</ele><time>2026-03-28T12:09:21.905Z</time></trkpt><trkpt lat="53.37099739099703" lon="14.69043870390455"><ele>12.0</ele><time>2026-03-28T12:09:23.904Z</time></trkpt><trkpt lat="53.37094159191355" lon="14.690262616946683"><ele>12.0</ele><time>2026-03-28T12:09:26.904Z</time></trkpt><trkpt lat="53.37084032883183" lon="14.690162166597604"><ele>11.75</ele><time>2026-03-28T12:09:27.904Z</time></trkpt><trkpt lat="53.370743550837304" lon="14.69003487408413"><ele>11.5</ele><time>2026-03-28T12:09:28.904Z</time></trkpt><trkpt lat="53.3706333507326" lon="14.68990560800911"><ele>11.25</ele><time>2026-03-28T12:09:29.904Z</time></trkpt><trkpt lat="53.37052357819039" lon="14.68976927093073"><ele>11.0</ele><time>2026-03-28T12:09:30.904Z</time></trkpt><trkpt lat="53.37039151467724" lon="14.689609854684067"><ele>10.5</ele><time>2026-03-28T12:09:31.904Z</time></trkpt><trkpt lat="53.37028269273533" lon="14.68947510609116"><ele>10.0</ele><time>2026-03-28T12:09:32.904Z</time></trkpt><trkpt lat="53.37019771786365" lon="14.689358656995955"><ele>9.5</ele><time>2026-03-28T12:09:33.904Z</time></trkpt><trkpt lat="53.37012002027304" lon="14.6892587992237"><ele>9.0</ele><time>2026-03-28T12:09:34.904Z</time></trkpt><trkpt lat="53.370021513147286" lon="14.689143175240492"><ele>9.0</ele><time>2026-03-28T12:09:35.904Z</time></trkpt><trkpt lat="53.36993109593047" lon="14.689039137787923"><ele>9.0</ele><time>2026-03-28T12:09:36.904Z</time></trkpt><trkpt lat="53.36985965959128" lon="14.68895479603258"><ele>9.0</ele><time>2026-03-28T12:09:37.904Z</time></trkpt><trkpt lat="53.369792368620566" lon="14.688833322403545"><ele>9.0</ele><time>2026-03-28T12:09:39.904Z</time></trkpt><trkpt lat="53.36974323565043" lon="14.688754409701414"><ele>9.0</ele><time>2026-03-28T12:09:44.904Z</time></trkpt><trkpt lat="53.369665663851194" lon="14.688658064962784"><ele>8.75</ele><time>2026-03-28T12:09:46.904Z</time></trkpt><trkpt lat="53.36973573953959" lon="14.688357645634808"><ele>8.5</ele><time>2026-03-28T12:09:48.904Z</time></trkpt><trkpt lat="53.36973644501784" lon="14.688236238862967"><ele>8.25</ele><time>2026-03-28T12:09:49.904Z</time></trkpt><trkpt lat="53.36972477726075" lon="14.688102346802149"><ele>8.0</ele><time>2026-03-28T12:09:50.904Z</time></trkpt><trkpt lat="53.36972941264958" lon="14.687882448195419"><ele>7.999999999999999</ele><time>2026-03-28T12:09:52.904Z</time></trkpt><trkpt lat="53.36969576418752" lon="14.687779800031498"><ele>8.0</ele><time>2026-03-28T12:09:53.904Z</time></trkpt><trkpt lat="53.36962989318803" lon="14.68771456896726"><ele>8.0</ele><time>2026-03-28T12:09:54.904Z</time></trkpt><trkpt lat="53.369515734891166" lon="14.687628892611036"><ele>8.0</ele><time>2026-03-28T12:09:56.904Z</time></trkpt><trkpt lat="53.369431946871046" lon="14.687601411313029"><ele>7.999999999999999</ele><time>2026-03-28T12:09:57.904Z</time></trkpt><trkpt lat="53.36935420528826" lon="14.687547519358755"><ele>8.0</ele><time>2026-03-28T12:09:58.904Z</time></trkpt><trkpt lat="53.36928280075955" lon="14.687456190413469"><ele>8.4</ele><time>2026-03-28T12:09:59.904Z</time></trkpt><trkpt lat="53.369218357900685" lon="14.68737822517812"><ele>8.8</ele><time>2026-03-28T12:10:00.904Z</time></trkpt><trkpt lat="53.3691324697897" lon="14.687255538983853"><ele>9.2</ele><time>2026-03-28T12:10:02.904Z</time></trkpt><trkpt lat="53.369075540495004" lon="14.687196322596597"><ele>9.6</ele><time>2026-03-28T12:10:03.904Z</time></trkpt><trkpt lat="53.36900002985482" lon="14.687038731040829"><ele>10.0</ele><time>2026-03-28T12:10:05.904Z</time></trkpt><trkpt lat="53.368952690029104" lon="14.686894921538897"><ele>10.0</ele><time>2026-03-28T12:10:07.904Z</time></trkpt><trkpt lat="53.36889937124029" lon="14.686753762419146"><ele>10.0</ele><time>2026-03-28T12:10:09.904Z</time></trkpt><trkpt lat="53.36886031719062" lon="14.686610804114949"><ele>10.0</ele><time>2026-03-28T12:10:11.904Z</time></trkpt><trkpt lat="53.36884160685886" lon="14.686503220848309"><ele>10.0</ele><time>2026-03-28T12:10:12.904Z</time></trkpt><trkpt lat="53.368841784053046" lon="14.686246516249549"><ele>10.0</ele><time>2026-03-28T12:10:14.904Z</time></trkpt><trkpt lat="53.36882984806405" lon="14.686113836801722"><ele>10.166666666666668</ele><time>2026-03-28T12:10:15.904Z</time></trkpt><trkpt lat="53.36885201628193" lon="14.685996045900627"><ele>10.333333333333334</ele><time>2026-03-28T12:10:16.904Z</time></trkpt><trkpt lat="53.368859132608584" lon="14.685831793357394"><ele>10.5</ele><time>2026-03-28T12:10:18.904Z</time></trkpt><trkpt lat="53.36888523392736" lon="14.685692775593749"><ele>10.666666666666666</ele><time>2026-03-28T12:10:20.904Z</time></trkpt><trkpt lat="53.36893509142558" lon="14.685595996963144"><ele>10.833333333333332</ele><time>2026-03-28T12:10:23.904Z</time></trkpt><trkpt lat="53.36900621962268" lon="14.685521725344444"><ele>11.0</ele><time>2026-03-28T12:10:26.904Z</time></trkpt><trkpt lat="53.36905640163251" lon="14.685418779631595"><ele>10.714285714285715</ele><time>2026-03-28T12:10:29.904Z</time></trkpt><trkpt lat="53.369125572268985" lon="14.685352444950603"><ele>10.428571428571429</ele><time>2026-03-28T12:10:32.904Z</time></trkpt><trkpt lat="53.36917775743073" lon="14.685280504213674"><ele>10.142857142857142</ele><time>2026-03-28T12:11:00.901Z</time></trkpt><trkpt lat="53.36923411792676" lon="14.685191011695371"><ele>9.857142857142858</ele><time>2026-03-28T12:11:02.902Z</time></trkpt><trkpt lat="53.36930357687191" lon="14.685129933313343"><ele>9.571428571428571</ele><time>2026-03-28T12:11:04.902Z</time></trkpt><trkpt lat="53.369365516409495" lon="14.685066092600524"><ele>9.285714285714286</ele><time>2026-03-28T12:11:06.902Z</time></trkpt><trkpt lat="53.36942578234107" lon="14.685001363367784"><ele>9.0</ele><time>2026-03-28T12:11:08.901Z</time></trkpt><trkpt lat="53.369492764160775" lon="14.684949818854182"><ele>9.0</ele><time>2026-03-28T12:11:10.901Z</time></trkpt><trkpt lat="53.36956300087576" lon="14.684901259608274"><ele>9.0</ele><time>2026-03-28T12:11:12.901Z</time></trkpt><trkpt lat="53.369655077020965" lon="14.684823554655498"><ele>9.0</ele><time>2026-03-28T12:11:14.901Z</time></trkpt><trkpt lat="53.369745082826505" lon="14.684748168964374"><ele>9.0</ele><time>2026-03-28T12:11:16.901Z</time></trkpt><trkpt lat="53.36983768377396" lon="14.684686360482305"><ele>9.0</ele><time>2026-03-28T12:11:18.901Z</time></trkpt><trkpt lat="53.36992003996662" lon="14.684625922001858"><ele>9.2</ele><time>2026-03-28T12:11:20.901Z</time></trkpt><trkpt lat="53.36998748778605" lon="14.684577487924793"><ele>9.4</ele><time>2026-03-28T12:11:22.901Z</time></trkpt><trkpt lat="53.370050587760005" lon="14.684537116414235"><ele>9.6</ele><time>2026-03-28T12:11:24.901Z</time></trkpt><trkpt lat="53.37010875627911" lon="14.68449040577225"><ele>9.8</ele><time>2026-03-28T12:11:26.901Z</time></trkpt><trkpt lat="53.37010973558345" lon="14.684098084904079"><ele>10.0</ele><time>2026-03-28T12:11:29.901Z</time></trkpt><trkpt lat="53.37013540533862" lon="14.68393732202739"><ele>10.0</ele><time>2026-03-28T12:11:31.901Z</time></trkpt><trkpt lat="53.370122703844814" lon="14.683821766317276"><ele>10.0</ele><time>2026-03-28T12:11:33.901Z</time></trkpt><trkpt lat="53.37006922179829" lon="14.683655085857728"><ele>10.0</ele><time>2026-03-28T12:11:35.901Z</time></trkpt><trkpt lat="53.37001956229244" lon="14.683483264047998"><ele>10.0</ele><time>2026-03-28T12:11:37.901Z</time></trkpt><trkpt lat="53.36997931361008" lon="14.683282262540711"><ele>10.0</ele><time>2026-03-28T12:11:39.901Z</time></trkpt><trkpt lat="53.36996114830568" lon="14.683166674141118"><ele>10.666666666666668</ele><time>2026-03-28T12:11:40.901Z</time></trkpt><trkpt lat="53.3699473085505" lon="14.683058839104726"><ele>11.333333333333334</ele><time>2026-03-28T12:11:41.901Z</time></trkpt><trkpt lat="53.36990521561046" lon="14.682891436080858"><ele>12.0</ele><time>2026-03-28T12:11:43.901Z</time></trkpt><trkpt lat="53.369843834579896" lon="14.682763600987355"><ele>12.666666666666668</ele><time>2026-03-28T12:11:45.901Z</time></trkpt><trkpt lat="53.36982334156767" lon="14.682662060697949"><ele>13.333333333333334</ele><time>2026-03-28T12:11:48.901Z</time></trkpt><trkpt lat="53.3698488214449" lon="14.682535688068917"><ele>14.0</ele><time>2026-03-28T12:11:52.901Z</time></trkpt><trkpt lat="53.36985156855222" lon="14.682419985674086"><ele>14.6</ele><time>2026-03-28T12:11:54.901Z</time></trkpt><trkpt lat="53.36981975161531" lon="14.682304800752672"><ele>15.2</ele><time>2026-03-28T12:11:56.901Z</time></trkpt><trkpt lat="53.36979092509835" lon="14.68212427163153"><ele>15.799999999999999</ele><time>2026-03-28T12:11:58.901Z</time></trkpt><trkpt lat="53.36979368215169" lon="14.681894579045276"><ele>16.4</ele><time>2026-03-28T12:12:00.901Z</time></trkpt><trkpt lat="53.36979872524491" lon="14.681771230973757"><ele>17.0</ele><time>2026-03-28T12:12:01.901Z</time></trkpt><trkpt lat="53.3698043314455" lon="14.681632791945672"><ele>17.6</ele><time>2026-03-28T12:12:02.901Z</time></trkpt><trkpt lat="53.36981219016799" lon="14.681477655163254"><ele>18.2</ele><time>2026-03-28T12:12:03.901Z</time></trkpt><trkpt lat="53.36982596431309" lon="14.681301349995007"><ele>18.8</ele><time>2026-03-28T12:12:05.901Z</time></trkpt><trkpt lat="53.36982234323187" lon="14.681139179770247"><ele>19.4</ele><time>2026-03-28T12:12:07.901Z</time></trkpt><trkpt lat="53.36980714325049" lon="14.680967970817651"><ele>20.0</ele><time>2026-03-28T12:12:57.9Z</time></trkpt><trkpt lat="53.36981381643391" lon="14.680750579444553"><ele>20.333333333333336</ele><time>2026-03-28T12:13:29.899Z</time></trkpt><trkpt lat="53.36981338218841" lon="14.680596360774942"><ele>20.666666666666668</ele><time>2026-03-28T12:13:31.899Z</time></trkpt><trkpt lat="53.36977464145765" lon="14.68048683272119"><ele>21.0</ele><time>2026-03-28T12:13:33.899Z</time></trkpt><trkpt lat="53.36972606454242" lon="14.680381038030765"><ele>21.333333333333332</ele><time>2026-03-28T12:13:35.899Z</time></trkpt><trkpt lat="53.36968769990773" lon="14.680233861308672"><ele>21.666666666666664</ele><time>2026-03-28T12:13:37.899Z</time></trkpt><trkpt lat="53.36966769918747" lon="14.68007871574992"><ele>22.0</ele><time>2026-03-28T12:13:39.899Z</time></trkpt><trkpt lat="53.36964096844335" lon="14.679903282578806"><ele>22.6</ele><time>2026-03-28T12:13:41.899Z</time></trkpt><trkpt lat="53.369600154814776" lon="14.679759556674393"><ele>23.200000000000003</ele><time>2026-03-28T12:13:43.899Z</time></trkpt><trkpt lat="53.36954047175773" lon="14.679621742016034"><ele>23.8</ele><time>2026-03-28T12:13:45.899Z</time></trkpt><trkpt lat="53.36951388733666" lon="14.679453028224696"><ele>24.4</ele><time>2026-03-28T12:13:47.899Z</time></trkpt><trkpt lat="53.36950234134976" lon="14.679316968433996"><ele>25.0</ele><time>2026-03-28T12:13:49.899Z</time></trkpt><trkpt lat="53.369479520904605" lon="14.679207784562786"><ele>25.500000000000004</ele><time>2026-03-28T12:13:51.899Z</time></trkpt><trkpt lat="53.36942809080097" lon="14.67911876714309"><ele>26.0</ele><time>2026-03-28T12:13:53.899Z</time></trkpt><trkpt lat="53.36933655867504" lon="14.679097162897186"><ele>26.5</ele><time>2026-03-28T12:13:56.899Z</time></trkpt><trkpt lat="53.36926890146601" lon="14.679083904798029"><ele>27.0</ele><time>2026-03-28T12:13:57.899Z</time></trkpt><trkpt lat="53.36913739454607" lon="14.679117700429341"><ele>27.500000000000004</ele><time>2026-03-28T12:13:59.899Z</time></trkpt><trkpt lat="53.36907564603524" lon="14.67920300768478"><ele>28.0</ele><time>2026-03-28T12:14:00.899Z</time></trkpt><trkpt lat="53.36899220776044" lon="14.67934217946933"><ele>28.166666666666668</ele><time>2026-03-28T12:14:01.899Z</time></trkpt><trkpt lat="53.36891878560383" lon="14.679457583339907"><ele>28.333333333333336</ele><time>2026-03-28T12:14:02.899Z</time></trkpt><trkpt lat="53.36885261610871" lon="14.679549672674922"><ele>28.5</ele><time>2026-03-28T12:14:03.899Z</time></trkpt><trkpt lat="53.36880429867022" lon="14.679621262419166"><ele>28.666666666666664</ele><time>2026-03-28T12:14:04.899Z</time></trkpt><trkpt lat="53.36873664105528" lon="14.679781319532351"><ele>28.833333333333332</ele><time>2026-03-28T12:14:06.899Z</time></trkpt><trkpt lat="53.36868493895441" lon="14.679884627598836"><ele>29.0</ele><time>2026-03-28T12:14:07.899Z</time></trkpt><trkpt lat="53.36860487073377" lon="14.679981518385473"><ele>28.999999999999996</ele><time>2026-03-28T12:14:08.899Z</time></trkpt><trkpt lat="53.368520318092465" lon="14.680090114079814"><ele>29.0</ele><time>2026-03-28T12:14:09.899Z</time></trkpt><trkpt lat="53.36845895143219" lon="14.680183660107843"><ele>29.0</ele><time>2026-03-28T12:14:10.899Z</time></trkpt><trkpt lat="53.36839409893366" lon="14.680262609524071"><ele>29.0</ele><time>2026-03-28T12:14:11.899Z</time></trkpt><trkpt lat="53.3683224431114" lon="14.680361811413357"><ele>28.999999999999996</ele><time>2026-03-28T12:14:12.899Z</time></trkpt><trkpt lat="53.36826046276872" lon="14.680445935924855"><ele>29.0</ele><time>2026-03-28T12:14:13.899Z</time></trkpt><trkpt lat="53.36818734652886" lon="14.680534345389262"><ele>28.666666666666664</ele><time>2026-03-28T12:14:14.899Z</time></trkpt><trkpt lat="53.36812540301684" lon="14.68063020717902"><ele>28.333333333333332</ele><time>2026-03-28T12:14:15.899Z</time></trkpt><trkpt lat="53.36803780529989" lon="14.680777301337947"><ele>28.0</ele><time>2026-03-28T12:14:17.899Z</time></trkpt><trkpt lat="53.367977696913435" lon="14.680898083167301"><ele>27.666666666666664</ele><time>2026-03-28T12:14:19.899Z</time></trkpt><trkpt lat="53.36791969564225" lon="14.680956320172482"><ele>27.333333333333332</ele><time>2026-03-28T12:14:22.899Z</time></trkpt><trkpt lat="53.36785836074744" lon="14.681001825297304"><ele>27.0</ele><time>2026-03-28T12:14:24.899Z</time></trkpt><trkpt lat="53.36778706812436" lon="14.681011092507664"><ele>27.0</ele><time>2026-03-28T12:14:27.899Z</time></trkpt><trkpt lat="53.36772665241083" lon="14.680969288038222"><ele>27.0</ele><time>2026-03-28T12:14:29.899Z</time></trkpt><trkpt lat="53.367648527946955" lon="14.680957564787384"><ele>27.0</ele><time>2026-03-28T12:14:31.899Z</time></trkpt><trkpt lat="53.3675525190209" lon="14.680934173530357"><ele>27.0</ele><time>2026-03-28T12:14:33.899Z</time></trkpt><trkpt lat="53.367499043560414" lon="14.680873983692967"><ele>27.0</ele><time>2026-03-28T12:14:35.898Z</time></trkpt><trkpt lat="53.367443958040596" lon="14.680799178997617"><ele>27.0</ele><time>2026-03-28T12:14:37.898Z</time></trkpt><trkpt lat="53.36737956227615" lon="14.680694472319974"><ele>27.0</ele><time>2026-03-28T12:14:40.898Z</time></trkpt><trkpt lat="53.367476674044795" lon="14.680808766961928"><ele>27.0</ele><time>2026-03-28T12:15:42.896Z</time></trkpt><trkpt lat="53.36753937723774" lon="14.680910778794459"><ele>27.0</ele><time>2026-03-28T12:15:44.896Z</time></trkpt><trkpt lat="53.36760861778248" lon="14.6809654445199"><ele>27.0</ele><time>2026-03-28T12:15:46.896Z</time></trkpt><trkpt lat="53.367694551154855" lon="14.680984636451925"><ele>27.0</ele><time>2026-03-28T12:15:48.896Z</time></trkpt><trkpt lat="53.367764464524" lon="14.680966312952997"><ele>27.0</ele><time>2026-03-28T12:15:50.896Z</time></trkpt><trkpt lat="53.367807535021" lon="14.680867528410992"><ele>27.0</ele><time>2026-03-28T12:15:52.895Z</time></trkpt><trkpt lat="53.367836838842734" lon="14.680765284887544"><ele>27.000000000000004</ele><time>2026-03-28T12:15:54.895Z</time></trkpt><trkpt lat="53.36790179812557" lon="14.680650148241968"><ele>27.000000000000004</ele><time>2026-03-28T12:15:56.895Z</time></trkpt><trkpt lat="53.36793688583589" lon="14.68048184261142"><ele>27.0</ele><time>2026-03-28T12:15:58.895Z</time></trkpt><trkpt lat="53.36794336028496" lon="14.680314833397649"><ele>27.0</ele><time>2026-03-28T12:16:00.895Z</time></trkpt><trkpt lat="53.36796271800791" lon="14.6801534824499"><ele>27.333333333333332</ele><time>2026-03-28T12:16:02.895Z</time></trkpt><trkpt lat="53.367980351357986" lon="14.680021550341007"><ele>27.666666666666664</ele><time>2026-03-28T12:16:04.895Z</time></trkpt><trkpt lat="53.36800724233016" lon="14.679852822860257"><ele>28.0</ele><time>2026-03-28T12:16:06.895Z</time></trkpt><trkpt lat="53.36803018700914" lon="14.679710182181887"><ele>28.333333333333332</ele><time>2026-03-28T12:16:08.895Z</time></trkpt><trkpt lat="53.36803647317689" lon="14.679580527409714"><ele>28.666666666666664</ele><time>2026-03-28T12:16:10.895Z</time></trkpt><trkpt lat="53.36805312316734" lon="14.679449816144084"><ele>29.0</ele><time>2026-03-28T12:16:11.895Z</time></trkpt><trkpt lat="53.368063643926405" lon="14.679327790104956"><ele>29.833333333333332</ele><time>2026-03-28T12:16:12.895Z</time></trkpt><trkpt lat="53.368046853818335" lon="14.67922271450345"><ele>30.666666666666664</ele><time>2026-03-28T12:16:14.895Z</time></trkpt><trkpt lat="53.36798276430827" lon="14.679075945841001"><ele>31.5</ele><time>2026-03-28T12:16:16.895Z</time></trkpt><trkpt lat="53.36795447462952" lon="14.6789281830851"><ele>32.333333333333336</ele><time>2026-03-28T12:16:18.895Z</time></trkpt><trkpt lat="53.36792018409504" lon="14.678831271013632"><ele>33.16666666666667</ele><time>2026-03-28T12:16:20.895Z</time></trkpt><trkpt lat="53.36787810757569" lon="14.678744744559049"><ele>34.0</ele><time>2026-03-28T12:16:21.895Z</time></trkpt><trkpt lat="53.36783551505186" lon="14.678585986126768"><ele>34.0</ele><time>2026-03-28T12:16:23.895Z</time></trkpt><trkpt lat="53.36780357479631" lon="14.678492035030203"><ele>34.0</ele><time>2026-03-28T12:16:24.895Z</time></trkpt><trkpt lat="53.36775322230393" lon="14.678421005247397"><ele>34.0</ele><time>2026-03-28T12:16:25.895Z</time></trkpt><trkpt lat="53.367703174263646" lon="14.678355210671217"><ele>34.0</ele><time>2026-03-28T12:16:26.895Z</time></trkpt><trkpt lat="53.36764836744997" lon="14.678231861284992"><ele>34.0</ele><time>2026-03-28T12:16:28.895Z</time></trkpt><trkpt lat="53.36762393163" lon="14.678041919002396"><ele>34.0</ele><time>2026-03-28T12:16:30.895Z</time></trkpt><trkpt lat="53.367600738838696" lon="14.67787396301346"><ele>33.5</ele><time>2026-03-28T12:16:33.895Z</time></trkpt><trkpt lat="53.36762462366564" lon="14.67768572214557"><ele>33.0</ele><time>2026-03-28T12:16:35.895Z</time></trkpt><trkpt lat="53.36760564735996" lon="14.677545877855604"><ele>32.5</ele><time>2026-03-28T12:16:37.895Z</time></trkpt><trkpt lat="53.36760246782616" lon="14.677433743768077"><ele>32.0</ele><time>2026-03-28T12:16:40.895Z</time></trkpt><trkpt lat="53.36751477317288" lon="14.677372106636085"><ele>31.500000000000004</ele><time>2026-03-28T12:16:47.895Z</time></trkpt><trkpt lat="53.36748541048481" lon="14.677277905469774"><ele>31.0</ele><time>2026-03-28T12:16:51.895Z</time></trkpt><trkpt lat="53.36744045532822" lon="14.677170259922736"><ele>31.000000000000004</ele><time>2026-03-28T12:16:57.895Z</time></trkpt><trkpt lat="53.36737123203153" lon="14.67709646991599"><ele>31.0</ele><time>2026-03-28T12:17:00.895Z</time></trkpt><trkpt lat="53.36730807985549" lon="14.67705368833039"><ele>31.0</ele><time>2026-03-28T12:17:03.895Z</time></trkpt><trkpt lat="53.36728495717359" lon="14.676946594190987"><ele>31.0</ele><time>2026-03-28T12:17:07.895Z</time></trkpt><trkpt lat="53.36730066209888" lon="14.676790788839288"><ele>31.000000000000004</ele><time>2026-03-28T12:17:09.895Z</time></trkpt><trkpt lat="53.36732490795409" lon="14.676680533599008"><ele>31.0</ele><time>2026-03-28T12:17:10.895Z</time></trkpt><trkpt lat="53.3673531502302" lon="14.676540390291416"><ele>30.333333333333336</ele><time>2026-03-28T12:17:11.895Z</time></trkpt><trkpt lat="53.367385328987055" lon="14.676391626022596"><ele>29.666666666666668</ele><time>2026-03-28T12:17:12.895Z</time></trkpt><trkpt lat="53.36741769846146" lon="14.676242939366555"><ele>29.0</ele><time>2026-03-28T12:17:13.895Z</time></trkpt><trkpt lat="53.36744834927427" lon="14.676110632259869"><ele>28.333333333333336</ele><time>2026-03-28T12:17:14.895Z</time></trkpt><trkpt lat="53.36746981915847" lon="14.67599188924978"><ele>27.666666666666668</ele><time>2026-03-28T12:17:15.895Z</time></trkpt><trkpt lat="53.367487427152845" lon="14.675888844541154"><ele>27.0</ele><time>2026-03-28T12:17:16.894Z</time></trkpt><trkpt lat="53.36749559671734" lon="14.67569269080483"><ele>27.0</ele><time>2026-03-28T12:17:18.894Z</time></trkpt><trkpt lat="53.367519944449164" lon="14.67559155283117"><ele>27.000000000000004</ele><time>2026-03-28T12:17:19.894Z</time></trkpt><trkpt lat="53.36755753764384" lon="14.675452735673897"><ele>27.000000000000004</ele><time>2026-03-28T12:17:20.894Z</time></trkpt><trkpt lat="53.367618004579576" lon="14.675263199413152"><ele>27.0</ele><time>2026-03-28T12:17:21.894Z</time></trkpt><trkpt lat="53.36766860411667" lon="14.675058241553689"><ele>27.0</ele><time>2026-03-28T12:17:22.894Z</time></trkpt><trkpt lat="53.36769756633579" lon="14.674875559163114"><ele>27.200000000000003</ele><time>2026-03-28T12:17:23.894Z</time></trkpt><trkpt lat="53.367719613741826" lon="14.67473228805153"><ele>27.400000000000002</ele><time>2026-03-28T12:17:24.894Z</time></trkpt><trkpt lat="53.36773456164631" lon="14.674624013401454"><ele>27.599999999999998</ele><time>2026-03-28T12:17:25.894Z</time></trkpt><trkpt lat="53.367762635071436" lon="14.674442566052045"><ele>27.799999999999997</ele><time>2026-03-28T12:17:27.894Z</time></trkpt><trkpt lat="53.36778486051974" lon="14.674277195423777"><ele>28.0</ele><time>2026-03-28T12:17:29.894Z</time></trkpt><trkpt lat="53.36779092506058" lon="14.674112529746452"><ele>28.166666666666668</ele><time>2026-03-28T12:17:31.894Z</time></trkpt><trkpt lat="53.367818917284886" lon="14.673917158004619"><ele>28.333333333333336</ele><time>2026-03-28T12:17:33.894Z</time></trkpt><trkpt lat="53.3678386337365" lon="14.67373282274153"><ele>28.5</ele><time>2026-03-28T12:17:35.894Z</time></trkpt><trkpt lat="53.36785903871149" lon="14.673625933545475"><ele>28.666666666666664</ele><time>2026-03-28T12:17:36.894Z</time></trkpt><trkpt lat="53.367880283523355" lon="14.673510545548721"><ele>28.833333333333332</ele><time>2026-03-28T12:17:37.894Z</time></trkpt><trkpt lat="53.36790398186385" lon="14.673388702434048"><ele>29.0</ele><time>2026-03-28T12:17:38.894Z</time></trkpt><trkpt lat="53.36794489484905" lon="14.67317313704906"><ele>29.0</ele><time>2026-03-28T12:17:40.894Z</time></trkpt><trkpt lat="53.367972190169475" lon="14.67305289840744"><ele>29.0</ele><time>2026-03-28T12:17:41.894Z</time></trkpt><trkpt lat="53.36801718834166" lon="14.672879288941663"><ele>29.0</ele><time>2026-03-28T12:17:43.894Z</time></trkpt><trkpt lat="53.3680475513965" lon="14.672705813945095"><ele>29.0</ele><time>2026-03-28T12:17:45.894Z</time></trkpt><trkpt lat="53.36807520069929" lon="14.67252107368325"><ele>29.0</ele><time>2026-03-28T12:17:47.894Z</time></trkpt><trkpt lat="53.36810885526064" lon="14.67233948419178"><ele>28.6</ele><time>2026-03-28T12:17:49.894Z</time></trkpt><trkpt lat="53.368131521780064" lon="14.672179198807838"><ele>28.2</ele><time>2026-03-28T12:17:51.894Z</time></trkpt><trkpt lat="53.36816926853939" lon="14.672032860728295"><ele>27.800000000000004</ele><time>2026-03-28T12:17:53.894Z</time></trkpt><trkpt lat="53.36824002025495" lon="14.671938609147391"><ele>27.400000000000002</ele><time>2026-03-28T12:17:56.894Z</time></trkpt><trkpt lat="53.36831013175444" lon="14.671920282235165"><ele>27.0</ele><time>2026-03-28T12:17:58.894Z</time></trkpt><trkpt lat="53.368392655213405" lon="14.671833946376138"><ele>27.0</ele><time>2026-03-28T12:18:01.894Z</time></trkpt><trkpt lat="53.3684687266655" lon="14.671768955282948"><ele>27.0</ele><time>2026-03-28T12:18:04.894Z</time></trkpt><trkpt lat="53.36855639874199" lon="14.671705034436243"><ele>27.0</ele><time>2026-03-28T12:18:07.894Z</time></trkpt><trkpt lat="53.36864510407647" lon="14.671665674374777"><ele>27.0</ele><time>2026-03-28T12:18:09.894Z</time></trkpt><trkpt lat="53.36870528485129" lon="14.671634249534357"><ele>27.0</ele><time>2026-03-28T12:18:11.894Z</time></trkpt><trkpt lat="53.36878018257244" lon="14.671620864762392"><ele>27.0</ele><time>2026-03-28T12:18:14.894Z</time></trkpt><trkpt lat="53.36884468033476" lon="14.67159461647023"><ele>27.0</ele><time>2026-03-28T12:18:18.894Z</time></trkpt><trkpt lat="53.36901478281629" lon="14.671605899612313"><ele>27.000000000000004</ele><time>2026-03-28T12:18:48.894Z</time></trkpt><trkpt lat="53.369084995215594" lon="14.67160377089951"><ele>27.000000000000004</ele><time>2026-03-28T12:18:49.894Z</time></trkpt><trkpt lat="53.369184528347375" lon="14.671586686646222"><ele>27.0</ele><time>2026-03-28T12:18:50.894Z</time></trkpt><trkpt lat="53.3692686199689" lon="14.67160016736888"><ele>27.0</ele><time>2026-03-28T12:18:51.894Z</time></trkpt><trkpt lat="53.36934370925336" lon="14.671597257854865"><ele>27.0</ele><time>2026-03-28T12:18:52.894Z</time></trkpt><trkpt lat="53.36942454061744" lon="14.671600950551234"><ele>27.000000000000004</ele><time>2026-03-28T12:18:53.894Z</time></trkpt><trkpt lat="53.36951102570534" lon="14.671582114801987"><ele>27.000000000000004</ele><time>2026-03-28T12:18:54.894Z</time></trkpt><trkpt lat="53.369643788616045" lon="14.671568656301373"><ele>27.0</ele><time>2026-03-28T12:18:55.894Z</time></trkpt><trkpt lat="53.369761667031256" lon="14.671575673604794"><ele>27.0</ele><time>2026-03-28T12:18:56.894Z</time></trkpt><trkpt lat="53.369879782112484" lon="14.671590653847188"><ele>26.666666666666668</ele><time>2026-03-28T12:18:57.894Z</time></trkpt><trkpt lat="53.36997934175123" lon="14.671621994632751"><ele>26.333333333333336</ele><time>2026-03-28T12:18:58.894Z</time></trkpt><trkpt lat="53.37007627140161" lon="14.671626568029714"><ele>26.0</ele><time>2026-03-28T12:18:59.894Z</time></trkpt><trkpt lat="53.37014564764077" lon="14.671603701212721"><ele>25.666666666666668</ele><time>2026-03-28T12:19:00.894Z</time></trkpt><trkpt lat="53.37023585649108" lon="14.671567890182319"><ele>25.333333333333336</ele><time>2026-03-28T12:19:01.894Z</time></trkpt><trkpt lat="53.370300124266876" lon="14.671535072994093"><ele>25.0</ele><time>2026-03-28T12:19:02.894Z</time></trkpt><trkpt lat="53.37036473964894" lon="14.67147836661317"><ele>25.0</ele><time>2026-03-28T12:19:03.894Z</time></trkpt><trkpt lat="53.370464931080875" lon="14.67139885499288"><ele>25.0</ele><time>2026-03-28T12:19:05.894Z</time></trkpt><trkpt lat="53.37055003049168" lon="14.671394893100457"><ele>25.0</ele><time>2026-03-28T12:19:07.894Z</time></trkpt><trkpt lat="53.370642063818195" lon="14.671451013499903"><ele>25.0</ele><time>2026-03-28T12:19:09.894Z</time></trkpt><trkpt lat="53.37072456776242" lon="14.671439018204023"><ele>25.0</ele><time>2026-03-28T12:19:11.894Z</time></trkpt><trkpt lat="53.370818915982156" lon="14.671445187259442"><ele>24.666666666666668</ele><time>2026-03-28T12:19:13.894Z</time></trkpt><trkpt lat="53.37088740430956" lon="14.671459480231709"><ele>24.333333333333336</ele><time>2026-03-28T12:19:15.894Z</time></trkpt><trkpt lat="53.37095345649226" lon="14.671458601861211"><ele>24.0</ele><time>2026-03-28T12:19:17.893Z</time></trkpt><trkpt lat="53.37103531578699" lon="14.671451464653142"><ele>23.666666666666668</ele><time>2026-03-28T12:19:20.893Z</time></trkpt><trkpt lat="53.371107095376146" lon="14.671329382711782"><ele>23.333333333333336</ele><time>2026-03-28T12:19:23.892Z</time></trkpt><trkpt lat="53.37111825565011" lon="14.671173523141475"><ele>23.0</ele><time>2026-03-28T12:19:25.892Z</time></trkpt><trkpt lat="53.3711465384095" lon="14.671017592178487"><ele>23.0</ele><time>2026-03-28T12:19:27.893Z</time></trkpt><trkpt lat="53.37115465932884" lon="14.670911905754764"><ele>23.0</ele><time>2026-03-28T12:19:29.892Z</time></trkpt><trkpt lat="53.37118504106436" lon="14.670798944695887"><ele>23.0</ele><time>2026-03-28T12:19:32.892Z</time></trkpt><trkpt lat="53.37124413561015" lon="14.670702320239124"><ele>23.0</ele><time>2026-03-28T12:19:45.892Z</time></trkpt><trkpt lat="53.37131776892642" lon="14.670770593870147"><ele>23.0</ele><time>2026-03-28T12:19:49.892Z</time></trkpt><trkpt lat="53.3713544881635" lon="14.670997677957041"><ele>23.0</ele><time>2026-03-28T12:19:51.892Z</time></trkpt><trkpt lat="53.37137171322192" lon="14.67113762798992"><ele>22.666666666666668</ele><time>2026-03-28T12:19:52.892Z</time></trkpt><trkpt lat="53.371390664553935" lon="14.67125833653546"><ele>22.333333333333336</ele><time>2026-03-28T12:19:53.892Z</time></trkpt><trkpt lat="53.37141524337742" lon="14.67138652084616"><ele>22.0</ele><time>2026-03-28T12:19:54.892Z</time></trkpt><trkpt lat="53.37144319938278" lon="14.671528371050089"><ele>21.666666666666668</ele><time>2026-03-28T12:19:55.892Z</time></trkpt><trkpt lat="53.37145859756448" lon="14.671643682782653"><ele>21.333333333333332</ele><time>2026-03-28T12:19:56.892Z</time></trkpt><trkpt lat="53.37147455572457" lon="14.671754345719505"><ele>21.0</ele><time>2026-03-28T12:19:57.892Z</time></trkpt><trkpt lat="53.37150486007689" lon="14.671958758855814"><ele>20.833333333333332</ele><time>2026-03-28T12:19:59.892Z</time></trkpt><trkpt lat="53.37152550172169" lon="14.67207907676614"><ele>20.666666666666668</ele><time>2026-03-28T12:20:00.892Z</time></trkpt><trkpt lat="53.37154256915389" lon="14.672198311790327"><ele>20.5</ele><time>2026-03-28T12:20:01.892Z</time></trkpt><trkpt lat="53.37156343539543" lon="14.672338657826835"><ele>20.333333333333336</ele><time>2026-03-28T12:20:02.892Z</time></trkpt><trkpt lat="53.37158227181377" lon="14.672477720231809"><ele>20.166666666666668</ele><time>2026-03-28T12:20:03.892Z</time></trkpt><trkpt lat="53.37160197119467" lon="14.672619154705735"><ele>20.0</ele><time>2026-03-28T12:20:04.892Z</time></trkpt><trkpt lat="53.37161838318177" lon="14.672757414226949"><ele>19.8</ele><time>2026-03-28T12:20:05.892Z</time></trkpt><trkpt lat="53.37163956004964" lon="14.672883980875278"><ele>19.6</ele><time>2026-03-28T12:20:06.892Z</time></trkpt><trkpt lat="53.371658311071286" lon="14.673022365669526"><ele>19.4</ele><time>2026-03-28T12:20:07.892Z</time></trkpt><trkpt lat="53.37168559080111" lon="14.673197467851377"><ele>19.2</ele><time>2026-03-28T12:20:08.892Z</time></trkpt><trkpt lat="53.37171789118124" lon="14.673383872237281"><ele>19.0</ele><time>2026-03-28T12:20:09.892Z</time></trkpt><trkpt lat="53.37174727124928" lon="14.673591042312676"><ele>19.333333333333332</ele><time>2026-03-28T12:20:10.892Z</time></trkpt><trkpt lat="53.371782445258866" lon="14.673818148525198"><ele>19.666666666666668</ele><time>2026-03-28T12:20:11.892Z</time></trkpt><trkpt lat="53.37182281876477" lon="14.674083230303719"><ele>20.0</ele><time>2026-03-28T12:20:12.892Z</time></trkpt><trkpt lat="53.371863535756695" lon="14.674347213905465"><ele>20.0</ele><time>2026-03-28T12:20:13.892Z</time></trkpt><trkpt lat="53.37190924762302" lon="14.67464543853352"><ele>20.0</ele><time>2026-03-28T12:20:14.892Z</time></trkpt><trkpt lat="53.37195823352436" lon="14.674958335631827"><ele>20.0</ele><time>2026-03-28T12:20:15.892Z</time></trkpt><trkpt lat="53.3720068224522" lon="14.675270438026763"><ele>19.666666666666668</ele><time>2026-03-28T12:20:16.892Z</time></trkpt><trkpt lat="53.37205251695487" lon="14.67558063827191"><ele>19.333333333333332</ele><time>2026-03-28T12:20:17.892Z</time></trkpt><trkpt lat="53.37209778891443" lon="14.675885936270245"><ele>19.0</ele><time>2026-03-28T12:20:18.892Z</time></trkpt><trkpt lat="53.372142426219185" lon="14.676194087937684"><ele>18.666666666666664</ele><time>2026-03-28T12:20:19.892Z</time></trkpt><trkpt lat="53.37217019567264" lon="14.67651502684434"><ele>18.333333333333332</ele><time>2026-03-28T12:20:20.892Z</time></trkpt><trkpt lat="53.37219648341902" lon="14.676819063265594"><ele>18.0</ele><time>2026-03-28T12:20:21.892Z</time></trkpt><trkpt lat="53.372220393101344" lon="14.67710175168181"><ele>17.333333333333332</ele><time>2026-03-28T12:20:22.892Z</time></trkpt><trkpt lat="53.372246359982675" lon="14.677367846990549"><ele>16.666666666666664</ele><time>2026-03-28T12:20:23.892Z</time></trkpt><trkpt lat="53.37227572148018" lon="14.677637142571376"><ele>16.0</ele><time>2026-03-28T12:20:24.892Z</time></trkpt><trkpt lat="53.37231214451192" lon="14.67794133580188"><ele>15.666666666666666</ele><time>2026-03-28T12:20:25.892Z</time></trkpt><trkpt lat="53.37235224479025" lon="14.678266850232951"><ele>15.333333333333332</ele><time>2026-03-28T12:20:26.892Z</time></trkpt><trkpt lat="53.372397740506855" lon="14.6785857519072"><ele>15.0</ele><time>2026-03-28T12:20:27.892Z</time></trkpt><trkpt lat="53.372446418901056" lon="14.678918441377423"><ele>14.666666666666668</ele><time>2026-03-28T12:20:28.892Z</time></trkpt><trkpt lat="53.37249142636902" lon="14.679251864701143"><ele>14.333333333333334</ele><time>2026-03-28T12:20:29.892Z</time></trkpt><trkpt lat="53.37254511898048" lon="14.67958646734972"><ele>14.0</ele><time>2026-03-28T12:20:30.892Z</time></trkpt><trkpt lat="53.372592039094464" lon="14.679900665142583"><ele>14.0</ele><time>2026-03-28T12:20:31.892Z</time></trkpt><trkpt lat="53.37263520095551" lon="14.680206548283087"><ele>14.0</ele><time>2026-03-28T12:20:32.892Z</time></trkpt><trkpt lat="53.37267403196789" lon="14.680484688930738"><ele>14.0</ele><time>2026-03-28T12:20:33.892Z</time></trkpt><trkpt lat="53.37271874288924" lon="14.680753514590052"><ele>14.0</ele><time>2026-03-28T12:20:34.892Z</time></trkpt><trkpt lat="53.37273920968395" lon="14.68103793949015"><ele>14.0</ele><time>2026-03-28T12:20:35.892Z</time></trkpt><trkpt lat="53.37276978797834" lon="14.681286864729676"><ele>14.0</ele><time>2026-03-28T12:20:36.892Z</time></trkpt><trkpt lat="53.37280512581715" lon="14.681526600663995"><ele>13.799999999999999</ele><time>2026-03-28T12:20:37.892Z</time></trkpt><trkpt lat="53.3728381176274" lon="14.68175285325624"><ele>13.599999999999998</ele><time>2026-03-28T12:20:38.892Z</time></trkpt><trkpt lat="53.37285244175257" lon="14.681965276116234"><ele>13.4</ele><time>2026-03-28T12:20:39.892Z</time></trkpt><trkpt lat="53.372877864266314" lon="14.682130793351144"><ele>13.2</ele><time>2026-03-28T12:20:40.892Z</time></trkpt><trkpt lat="53.37288793226874" lon="14.682264080599717"><ele>13.0</ele><time>2026-03-28T12:20:41.892Z</time></trkpt><trkpt lat="53.37289462237454" lon="14.682375604069556"><ele>12.25</ele><time>2026-03-28T12:20:43.892Z</time></trkpt><trkpt lat="53.37290789409812" lon="14.682482609779349"><ele>11.5</ele><time>2026-03-28T12:20:48.892Z</time></trkpt><trkpt lat="53.3730323165187" lon="14.682363237313123"><ele>10.75</ele><time>2026-03-28T12:20:50.892Z</time></trkpt><trkpt lat="53.373073563909024" lon="14.682212060744625"><ele>10.0</ele><time>2026-03-28T12:20:51.892Z</time></trkpt><trkpt lat="53.37317086795612" lon="14.68202106501479"><ele>10.75</ele><time>2026-03-28T12:20:52.892Z</time></trkpt><trkpt lat="53.373248133862795" lon="14.681830512475226"><ele>11.5</ele><time>2026-03-28T12:20:53.892Z</time></trkpt><trkpt lat="53.373323504910346" lon="14.681615324312407"><ele>12.25</ele><time>2026-03-28T12:20:54.892Z</time></trkpt><trkpt lat="53.373413334513586" lon="14.681391204112298"><ele>13.0</ele><time>2026-03-28T12:20:55.892Z</time></trkpt><trkpt lat="53.373510251838205" lon="14.681155747038776"><ele>13.333333333333332</ele><time>2026-03-28T12:20:56.892Z</time></trkpt><trkpt lat="53.37361222929248" lon="14.680913479200656"><ele>13.666666666666668</ele><time>2026-03-28T12:20:57.892Z</time></trkpt><trkpt lat="53.37372011640083" lon="14.680650994658603"><ele>14.0</ele><time>2026-03-28T12:20:58.892Z</time></trkpt><trkpt lat="53.373820058731326" lon="14.680403421582408"><ele>15.0</ele><time>2026-03-28T12:20:59.892Z</time></trkpt><trkpt lat="53.37393119649153" lon="14.680123569698203"><ele>16.0</ele><time>2026-03-28T12:21:00.892Z</time></trkpt><trkpt lat="53.37405892369766" lon="14.679833428011348"><ele>17.0</ele><time>2026-03-28T12:21:01.892Z</time></trkpt><trkpt lat="53.37419426165012" lon="14.679503539036267"><ele>15.5</ele><time>2026-03-28T12:21:02.892Z</time></trkpt><trkpt lat="53.37433025822467" lon="14.679174032779198"><ele>14.0</ele><time>2026-03-28T12:21:03.892Z</time></trkpt><trkpt lat="53.37446730558504" lon="14.678842542285246"><ele>13.0</ele><time>2026-03-28T12:21:04.892Z</time></trkpt><trkpt lat="53.37461908686235" lon="14.678469569740313"><ele>12.0</ele><time>2026-03-28T12:21:05.892Z</time></trkpt><trkpt lat="53.374761909649585" lon="14.67813302970314"><ele>12.5</ele><time>2026-03-28T12:21:06.892Z</time></trkpt><trkpt lat="53.37494648432462" lon="14.677825858949388"><ele>13.0</ele><time>2026-03-28T12:21:07.892Z</time></trkpt><trkpt lat="53.37514162527324" lon="14.677506822308905"><ele>13.0</ele><time>2026-03-28T12:21:08.892Z</time></trkpt><trkpt lat="53.375295947671944" lon="14.677188410545536"><ele>13.0</ele><time>2026-03-28T12:21:09.892Z</time></trkpt><trkpt lat="53.375428326011296" lon="14.676903632447885"><ele>13.0</ele><time>2026-03-28T12:21:10.892Z</time></trkpt><trkpt lat="53.37556884120871" lon="14.676620548114268"><ele>13.0</ele><time>2026-03-28T12:21:11.892Z</time></trkpt><trkpt lat="53.37570136912849" lon="14.676337603321265"><ele>13.0</ele><time>2026-03-28T12:21:12.892Z</time></trkpt><trkpt lat="53.37581723491604" lon="14.676086181483136"><ele>13.0</ele><time>2026-03-28T12:21:13.892Z</time></trkpt><trkpt lat="53.37592866262242" lon="14.675843220640568"><ele>13.0</ele><time>2026-03-28T12:21:14.892Z</time></trkpt><trkpt lat="53.37603222720813" lon="14.675619912970747"><ele>13.0</ele><time>2026-03-28T12:21:15.892Z</time></trkpt><trkpt lat="53.376132867466175" lon="14.675424228738049"><ele>13.333333333333332</ele><time>2026-03-28T12:21:16.892Z</time></trkpt><trkpt lat="53.37624479278796" lon="14.675245385126292"><ele>13.666666666666668</ele><time>2026-03-28T12:21:17.892Z</time></trkpt><trkpt lat="53.37637773245711" lon="14.675057261252762"><ele>14.0</ele><time>2026-03-28T12:21:18.892Z</time></trkpt><trkpt lat="53.37651631420711" lon="14.674868443264163"><ele>14.0</ele><time>2026-03-28T12:21:19.892Z</time></trkpt><trkpt lat="53.37663814750975" lon="14.674660530418299"><ele>14.0</ele><time>2026-03-28T12:21:20.892Z</time></trkpt><trkpt lat="53.376696185484526" lon="14.67444947386373"><ele>14.0</ele><time>2026-03-28T12:21:21.892Z</time></trkpt><trkpt lat="53.37673669657493" lon="14.67428103800314"><ele>14.0</ele><time>2026-03-28T12:21:22.892Z</time></trkpt><trkpt lat="53.376781553272366" lon="14.67416306758849"><ele>13.25</ele><time>2026-03-28T12:21:23.892Z</time></trkpt><trkpt lat="53.37681085090805" lon="14.674044131080974"><ele>12.5</ele><time>2026-03-28T12:21:26.892Z</time></trkpt><trkpt lat="53.37670624750246" lon="14.673783469954806"><ele>11.75</ele><time>2026-03-28T12:21:28.89Z</time></trkpt><trkpt lat="53.37661138780067" lon="14.67361586343789"><ele>11.0</ele><time>2026-03-28T12:21:29.89Z</time></trkpt><trkpt lat="53.37650418791621" lon="14.673427944575856"><ele>11.0</ele><time>2026-03-28T12:21:30.89Z</time></trkpt><trkpt lat="53.37639315822466" lon="14.67321637373797"><ele>11.0</ele><time>2026-03-28T12:21:31.889Z</time></trkpt><trkpt lat="53.37627199169897" lon="14.672971014621057"><ele>11.0</ele><time>2026-03-28T12:21:32.89Z</time></trkpt><trkpt lat="53.376137040068336" lon="14.672710415728957"><ele>10.0</ele><time>2026-03-28T12:21:33.89Z</time></trkpt><trkpt lat="53.37598555851639" lon="14.672434703326012"><ele>9.0</ele><time>2026-03-28T12:21:34.889Z</time></trkpt><trkpt lat="53.375825899594055" lon="14.672147813314679"><ele>9.333333333333334</ele><time>2026-03-28T12:21:35.889Z</time></trkpt><trkpt lat="53.375685190859656" lon="14.671838483069935"><ele>9.666666666666668</ele><time>2026-03-28T12:21:36.889Z</time></trkpt><trkpt lat="53.37556050894355" lon="14.671546211351396"><ele>10.0</ele><time>2026-03-28T12:21:37.889Z</time></trkpt><trkpt lat="53.375497982523555" lon="14.671271385267534"><ele>11.666666666666668</ele><time>2026-03-28T12:21:38.889Z</time></trkpt><trkpt lat="53.375472792646335" lon="14.670977574630829"><ele>13.333333333333334</ele><time>2026-03-28T12:21:39.889Z</time></trkpt><trkpt lat="53.37548291452545" lon="14.670669555205611"><ele>15.0</ele><time>2026-03-28T12:21:40.89Z</time></trkpt><trkpt lat="53.375499564061194" lon="14.670312507471392"><ele>15.0</ele><time>2026-03-28T12:21:41.889Z</time></trkpt><trkpt lat="53.37551036997165" lon="14.669934947340721"><ele>15.0</ele><time>2026-03-28T12:21:42.889Z</time></trkpt><trkpt lat="53.37551836506988" lon="14.669591494531346"><ele>15.0</ele><time>2026-03-28T12:21:43.889Z</time></trkpt><trkpt lat="53.37551322319881" lon="14.669279383276443"><ele>15.333333333333332</ele><time>2026-03-28T12:21:44.889Z</time></trkpt><trkpt lat="53.37551211891208" lon="14.668998960233765"><ele>15.666666666666666</ele><time>2026-03-28T12:21:45.889Z</time></trkpt><trkpt lat="53.37551442074129" lon="14.668738388141195"><ele>16.0</ele><time>2026-03-28T12:21:46.889Z</time></trkpt><trkpt lat="53.37552121851653" lon="14.668500843388461"><ele>15.999999999999998</ele><time>2026-03-28T12:21:47.889Z</time></trkpt><trkpt lat="53.37552119127308" lon="14.668321299894783"><ele>16.0</ele><time>2026-03-28T12:21:48.889Z</time></trkpt><trkpt lat="53.37553838472195" lon="14.66817291948576"><ele>16.0</ele><time>2026-03-28T12:21:49.889Z</time></trkpt><trkpt lat="53.375540921981724" lon="14.668061944028263"><ele>16.0</ele><time>2026-03-28T12:21:50.889Z</time></trkpt><trkpt lat="53.375542811296185" lon="14.667919881763751"><ele>15.999999999999998</ele><time>2026-03-28T12:21:52.889Z</time></trkpt><trkpt lat="53.37554325159009" lon="14.667810633783322"><ele>16.0</ele><time>2026-03-28T12:22:03.889Z</time></trkpt><trkpt lat="53.37540019480977" lon="14.667725430204968"><ele>16.2</ele><time>2026-03-28T12:22:05.889Z</time></trkpt><trkpt lat="53.375297280698824" lon="14.667731040062337"><ele>16.400000000000002</ele><time>2026-03-28T12:22:06.889Z</time></trkpt><trkpt lat="53.37519860823013" lon="14.667728621791747"><ele>16.6</ele><time>2026-03-28T12:22:07.889Z</time></trkpt><trkpt lat="53.37512243104127" lon="14.667715698752684"><ele>16.8</ele><time>2026-03-28T12:22:08.889Z</time></trkpt><trkpt lat="53.375013610252935" lon="14.667689744541708"><ele>17.0</ele><time>2026-03-28T12:22:10.889Z</time></trkpt><trkpt lat="53.37490782117468" lon="14.667914763611515"><ele>17.0</ele><time>2026-03-28T12:22:13.889Z</time></trkpt><trkpt lat="53.37490020703138" lon="14.668108040909404"><ele>17.0</ele><time>2026-03-28T12:22:14.889Z</time></trkpt><trkpt lat="53.374878349262936" lon="14.668362886068724"><ele>17.0</ele><time>2026-03-28T12:22:15.889Z</time></trkpt><trkpt lat="53.37483346549249" lon="14.668612678642498"><ele>17.0</ele><time>2026-03-28T12:22:16.889Z</time></trkpt><trkpt lat="53.37481208509489" lon="14.668825338205183"><ele>16.8</ele><time>2026-03-28T12:22:17.889Z</time></trkpt><trkpt lat="53.37479860797878" lon="14.669030205115966"><ele>16.6</ele><time>2026-03-28T12:22:18.889Z</time></trkpt><trkpt lat="53.374800195599" lon="14.669214288978331"><ele>16.400000000000002</ele><time>2026-03-28T12:22:19.889Z</time></trkpt><trkpt lat="53.37478977114863" lon="14.669350450124679"><ele>16.2</ele><time>2026-03-28T12:22:20.889Z</time></trkpt><trkpt lat="53.37475888669165" lon="14.669493811060498"><ele>16.0</ele><time>2026-03-28T12:22:22.889Z</time></trkpt><trkpt lat="53.37460750039549" lon="14.669463123563471"><ele>18.0</ele><time>2026-03-28T12:22:26.889Z</time></trkpt><trkpt lat="53.37451087370608" lon="14.66944423954354"><ele>18.0</ele><time>2026-03-28T12:22:28.889Z</time></trkpt></trkseg></trk></gpx>